<?xml version="1.0" encoding="UTF-8" standalone="no" ?>
<gpx xmlns="http://www.topografix.com/GPX/1/1" xmlns:xsi="http://www.w3.org/2001/XMLSchema-instance" xsi:schemaLocation="http://www.topografix.com/GPX/1/1 http://www.topografix.com/GPX/1/1/gpx.xsd" version="1.1" creator="VisuGPX - https://www.visugpx.com">
  <metadata>
    <name>enduro plan de vitrolle</name>
    <desc><![CDATA[belle descente !!!!]]></desc>
  </metadata>
  <trk>
    <name><![CDATA[04/03/2012 9:58]]></name>
    <desc><![CDATA[]]></desc>
    <trkseg>
      <trkpt lat="44.41619" lon="5.94746">
        <ele>725.8</ele>
        <time>2012-03-04T08:58:12Z</time>
      </trkpt>
      <trkpt lat="44.41622" lon="5.9474">
        <ele>730.8</ele>
        <time>2012-03-04T08:58:18Z</time>
      </trkpt>
      <trkpt lat="44.41624" lon="5.94734">
        <ele>729.7</ele>
        <time>2012-03-04T08:58:21Z</time>
      </trkpt>
      <trkpt lat="44.41626" lon="5.9474">
        <ele>717.5</ele>
        <time>2012-03-04T08:58:51Z</time>
      </trkpt>
      <trkpt lat="44.4163" lon="5.94743">
        <ele>710.6</ele>
        <time>2012-03-04T08:59:07Z</time>
      </trkpt>
      <trkpt lat="44.41628" lon="5.94737">
        <ele>708.2</ele>
        <time>2012-03-04T09:00:46Z</time>
      </trkpt>
      <trkpt lat="44.41628" lon="5.94737">
        <ele>708.2</ele>
        <time>2012-03-04T09:00:46Z</time>
      </trkpt>
      <trkpt lat="44.41628" lon="5.94737">
        <ele>708.2</ele>
        <time>2012-03-04T09:00:47Z</time>
      </trkpt>
      <trkpt lat="44.41628" lon="5.9473">
        <ele>707.2</ele>
        <time>2012-03-04T09:01:25Z</time>
      </trkpt>
      <trkpt lat="44.41628" lon="5.9473">
        <ele>707.2</ele>
        <time>2012-03-04T09:01:25Z</time>
      </trkpt>
      <trkpt lat="44.41628" lon="5.9473">
        <ele>707.2</ele>
        <time>2012-03-04T09:01:26Z</time>
      </trkpt>
      <trkpt lat="44.41632" lon="5.94725">
        <ele>707</ele>
        <time>2012-03-04T09:01:40Z</time>
      </trkpt>
      <trkpt lat="44.41636" lon="5.94722">
        <ele>706.7</ele>
        <time>2012-03-04T09:01:43Z</time>
      </trkpt>
      <trkpt lat="44.4164" lon="5.94724">
        <ele>704.6</ele>
        <time>2012-03-04T09:01:47Z</time>
      </trkpt>
      <trkpt lat="44.41635" lon="5.94731">
        <ele>705.4</ele>
        <time>2012-03-04T09:01:50Z</time>
      </trkpt>
      <trkpt lat="44.41631" lon="5.94736">
        <ele>704.9</ele>
        <time>2012-03-04T09:01:52Z</time>
      </trkpt>
      <trkpt lat="44.41635" lon="5.94731">
        <ele>711.7</ele>
        <time>2012-03-04T09:03:03Z</time>
      </trkpt>
      <trkpt lat="44.41638" lon="5.94726">
        <ele>711</ele>
        <time>2012-03-04T09:03:06Z</time>
      </trkpt>
      <trkpt lat="44.41642" lon="5.9472">
        <ele>710.1</ele>
        <time>2012-03-04T09:03:09Z</time>
      </trkpt>
      <trkpt lat="44.41646" lon="5.94717">
        <ele>708.2</ele>
        <time>2012-03-04T09:03:12Z</time>
      </trkpt>
      <trkpt lat="44.4165" lon="5.94713">
        <ele>707.5</ele>
        <time>2012-03-04T09:03:15Z</time>
      </trkpt>
      <trkpt lat="44.41653" lon="5.94708">
        <ele>707.8</ele>
        <time>2012-03-04T09:03:18Z</time>
      </trkpt>
      <trkpt lat="44.41658" lon="5.94704">
        <ele>708.6</ele>
        <time>2012-03-04T09:03:21Z</time>
      </trkpt>
      <trkpt lat="44.41662" lon="5.947">
        <ele>706.1</ele>
        <time>2012-03-04T09:03:24Z</time>
      </trkpt>
      <trkpt lat="44.41667" lon="5.94696">
        <ele>707.5</ele>
        <time>2012-03-04T09:03:27Z</time>
      </trkpt>
      <trkpt lat="44.41672" lon="5.94692">
        <ele>708.2</ele>
        <time>2012-03-04T09:03:30Z</time>
      </trkpt>
      <trkpt lat="44.41676" lon="5.94688">
        <ele>707.8</ele>
        <time>2012-03-04T09:03:33Z</time>
      </trkpt>
      <trkpt lat="44.41682" lon="5.94686">
        <ele>708.9</ele>
        <time>2012-03-04T09:03:36Z</time>
      </trkpt>
      <trkpt lat="44.41686" lon="5.94683">
        <ele>709.4</ele>
        <time>2012-03-04T09:03:39Z</time>
      </trkpt>
      <trkpt lat="44.41691" lon="5.94681">
        <ele>709.4</ele>
        <time>2012-03-04T09:03:42Z</time>
      </trkpt>
      <trkpt lat="44.41696" lon="5.94678">
        <ele>709.5</ele>
        <time>2012-03-04T09:03:45Z</time>
      </trkpt>
      <trkpt lat="44.41701" lon="5.94674">
        <ele>709.9</ele>
        <time>2012-03-04T09:03:48Z</time>
      </trkpt>
      <trkpt lat="44.41706" lon="5.9467">
        <ele>710.6</ele>
        <time>2012-03-04T09:03:51Z</time>
      </trkpt>
      <trkpt lat="44.4171" lon="5.94664">
        <ele>710.4</ele>
        <time>2012-03-04T09:03:54Z</time>
      </trkpt>
      <trkpt lat="44.41713" lon="5.94657">
        <ele>710.1</ele>
        <time>2012-03-04T09:03:57Z</time>
      </trkpt>
      <trkpt lat="44.41716" lon="5.9465">
        <ele>709.8</ele>
        <time>2012-03-04T09:04:00Z</time>
      </trkpt>
      <trkpt lat="44.41718" lon="5.94644">
        <ele>709.9</ele>
        <time>2012-03-04T09:04:03Z</time>
      </trkpt>
      <trkpt lat="44.41718" lon="5.94638">
        <ele>709.6</ele>
        <time>2012-03-04T09:04:06Z</time>
      </trkpt>
      <trkpt lat="44.41719" lon="5.94631">
        <ele>710.8</ele>
        <time>2012-03-04T09:04:09Z</time>
      </trkpt>
      <trkpt lat="44.41719" lon="5.94624">
        <ele>711.1</ele>
        <time>2012-03-04T09:04:12Z</time>
      </trkpt>
      <trkpt lat="44.41718" lon="5.94617">
        <ele>712.5</ele>
        <time>2012-03-04T09:04:15Z</time>
      </trkpt>
      <trkpt lat="44.41717" lon="5.94609">
        <ele>713.5</ele>
        <time>2012-03-04T09:04:18Z</time>
      </trkpt>
      <trkpt lat="44.41717" lon="5.94601">
        <ele>715.3</ele>
        <time>2012-03-04T09:04:21Z</time>
      </trkpt>
      <trkpt lat="44.41717" lon="5.94594">
        <ele>715.7</ele>
        <time>2012-03-04T09:04:24Z</time>
      </trkpt>
      <trkpt lat="44.41716" lon="5.94588">
        <ele>715.9</ele>
        <time>2012-03-04T09:04:27Z</time>
      </trkpt>
      <trkpt lat="44.41715" lon="5.94581">
        <ele>716.7</ele>
        <time>2012-03-04T09:04:30Z</time>
      </trkpt>
      <trkpt lat="44.41714" lon="5.94573">
        <ele>716.6</ele>
        <time>2012-03-04T09:04:34Z</time>
      </trkpt>
      <trkpt lat="44.41714" lon="5.94565">
        <ele>716.5</ele>
        <time>2012-03-04T09:04:37Z</time>
      </trkpt>
      <trkpt lat="44.41715" lon="5.94558">
        <ele>717.5</ele>
        <time>2012-03-04T09:04:40Z</time>
      </trkpt>
      <trkpt lat="44.41718" lon="5.94551">
        <ele>718.3</ele>
        <time>2012-03-04T09:04:43Z</time>
      </trkpt>
      <trkpt lat="44.4172" lon="5.94544">
        <ele>718</ele>
        <time>2012-03-04T09:04:46Z</time>
      </trkpt>
      <trkpt lat="44.41724" lon="5.94539">
        <ele>715.6</ele>
        <time>2012-03-04T09:04:49Z</time>
      </trkpt>
      <trkpt lat="44.41727" lon="5.94535">
        <ele>715.8</ele>
        <time>2012-03-04T09:04:52Z</time>
      </trkpt>
      <trkpt lat="44.41731" lon="5.9453">
        <ele>718.9</ele>
        <time>2012-03-04T09:04:55Z</time>
      </trkpt>
      <trkpt lat="44.41734" lon="5.94524">
        <ele>718</ele>
        <time>2012-03-04T09:04:58Z</time>
      </trkpt>
      <trkpt lat="44.41739" lon="5.9452">
        <ele>718.9</ele>
        <time>2012-03-04T09:05:01Z</time>
      </trkpt>
      <trkpt lat="44.41744" lon="5.94517">
        <ele>719.7</ele>
        <time>2012-03-04T09:05:04Z</time>
      </trkpt>
      <trkpt lat="44.41748" lon="5.94515">
        <ele>721.4</ele>
        <time>2012-03-04T09:05:07Z</time>
      </trkpt>
      <trkpt lat="44.41753" lon="5.94514">
        <ele>722.3</ele>
        <time>2012-03-04T09:05:10Z</time>
      </trkpt>
      <trkpt lat="44.41758" lon="5.94514">
        <ele>723.1</ele>
        <time>2012-03-04T09:05:13Z</time>
      </trkpt>
      <trkpt lat="44.41762" lon="5.94514">
        <ele>724</ele>
        <time>2012-03-04T09:05:16Z</time>
      </trkpt>
      <trkpt lat="44.41768" lon="5.94512">
        <ele>724.8</ele>
        <time>2012-03-04T09:05:19Z</time>
      </trkpt>
      <trkpt lat="44.41773" lon="5.94512">
        <ele>725.4</ele>
        <time>2012-03-04T09:05:22Z</time>
      </trkpt>
      <trkpt lat="44.41778" lon="5.94512">
        <ele>726.2</ele>
        <time>2012-03-04T09:05:25Z</time>
      </trkpt>
      <trkpt lat="44.41783" lon="5.94511">
        <ele>727.4</ele>
        <time>2012-03-04T09:05:28Z</time>
      </trkpt>
      <trkpt lat="44.41788" lon="5.94511">
        <ele>727.7</ele>
        <time>2012-03-04T09:05:31Z</time>
      </trkpt>
      <trkpt lat="44.41793" lon="5.94511">
        <ele>728.5</ele>
        <time>2012-03-04T09:05:34Z</time>
      </trkpt>
      <trkpt lat="44.41799" lon="5.94511">
        <ele>728.5</ele>
        <time>2012-03-04T09:05:37Z</time>
      </trkpt>
      <trkpt lat="44.41804" lon="5.9451">
        <ele>728.9</ele>
        <time>2012-03-04T09:05:40Z</time>
      </trkpt>
      <trkpt lat="44.4181" lon="5.9451">
        <ele>728.8</ele>
        <time>2012-03-04T09:05:43Z</time>
      </trkpt>
      <trkpt lat="44.41814" lon="5.9451">
        <ele>730.1</ele>
        <time>2012-03-04T09:05:46Z</time>
      </trkpt>
      <trkpt lat="44.41819" lon="5.94511">
        <ele>730.4</ele>
        <time>2012-03-04T09:05:49Z</time>
      </trkpt>
      <trkpt lat="44.41825" lon="5.94511">
        <ele>730.5</ele>
        <time>2012-03-04T09:05:53Z</time>
      </trkpt>
      <trkpt lat="44.4183" lon="5.94508">
        <ele>730.8</ele>
        <time>2012-03-04T09:05:56Z</time>
      </trkpt>
      <trkpt lat="44.41834" lon="5.94505">
        <ele>731.2</ele>
        <time>2012-03-04T09:05:59Z</time>
      </trkpt>
      <trkpt lat="44.41838" lon="5.94501">
        <ele>731.2</ele>
        <time>2012-03-04T09:06:02Z</time>
      </trkpt>
      <trkpt lat="44.41843" lon="5.94497">
        <ele>732.2</ele>
        <time>2012-03-04T09:06:05Z</time>
      </trkpt>
      <trkpt lat="44.41846" lon="5.94493">
        <ele>732.2</ele>
        <time>2012-03-04T09:06:08Z</time>
      </trkpt>
      <trkpt lat="44.4185" lon="5.94489">
        <ele>731.7</ele>
        <time>2012-03-04T09:06:11Z</time>
      </trkpt>
      <trkpt lat="44.41854" lon="5.94484">
        <ele>732.5</ele>
        <time>2012-03-04T09:06:14Z</time>
      </trkpt>
      <trkpt lat="44.41857" lon="5.94478">
        <ele>731.8</ele>
        <time>2012-03-04T09:06:17Z</time>
      </trkpt>
      <trkpt lat="44.4186" lon="5.94472">
        <ele>731.4</ele>
        <time>2012-03-04T09:06:20Z</time>
      </trkpt>
      <trkpt lat="44.41865" lon="5.94467">
        <ele>731.1</ele>
        <time>2012-03-04T09:06:23Z</time>
      </trkpt>
      <trkpt lat="44.4187" lon="5.94462">
        <ele>731.5</ele>
        <time>2012-03-04T09:06:26Z</time>
      </trkpt>
      <trkpt lat="44.41876" lon="5.94458">
        <ele>731.8</ele>
        <time>2012-03-04T09:06:29Z</time>
      </trkpt>
      <trkpt lat="44.41881" lon="5.94457">
        <ele>731.7</ele>
        <time>2012-03-04T09:06:32Z</time>
      </trkpt>
      <trkpt lat="44.41887" lon="5.94458">
        <ele>731.3</ele>
        <time>2012-03-04T09:06:35Z</time>
      </trkpt>
      <trkpt lat="44.41891" lon="5.94461">
        <ele>732</ele>
        <time>2012-03-04T09:06:38Z</time>
      </trkpt>
      <trkpt lat="44.41895" lon="5.94465">
        <ele>732.8</ele>
        <time>2012-03-04T09:06:41Z</time>
      </trkpt>
      <trkpt lat="44.419" lon="5.94468">
        <ele>733.1</ele>
        <time>2012-03-04T09:06:44Z</time>
      </trkpt>
      <trkpt lat="44.41904" lon="5.9447">
        <ele>734.8</ele>
        <time>2012-03-04T09:06:47Z</time>
      </trkpt>
      <trkpt lat="44.4191" lon="5.94469">
        <ele>736.7</ele>
        <time>2012-03-04T09:06:51Z</time>
      </trkpt>
      <trkpt lat="44.41914" lon="5.94465">
        <ele>738.1</ele>
        <time>2012-03-04T09:06:54Z</time>
      </trkpt>
      <trkpt lat="44.41917" lon="5.9446">
        <ele>737.9</ele>
        <time>2012-03-04T09:06:57Z</time>
      </trkpt>
      <trkpt lat="44.4192" lon="5.94455">
        <ele>738.5</ele>
        <time>2012-03-04T09:07:00Z</time>
      </trkpt>
      <trkpt lat="44.41924" lon="5.94448">
        <ele>738</ele>
        <time>2012-03-04T09:07:04Z</time>
      </trkpt>
      <trkpt lat="44.41926" lon="5.94441">
        <ele>737.2</ele>
        <time>2012-03-04T09:07:08Z</time>
      </trkpt>
      <trkpt lat="44.41929" lon="5.94435">
        <ele>736.4</ele>
        <time>2012-03-04T09:07:11Z</time>
      </trkpt>
      <trkpt lat="44.41932" lon="5.9443">
        <ele>735.8</ele>
        <time>2012-03-04T09:07:14Z</time>
      </trkpt>
      <trkpt lat="44.41934" lon="5.94424">
        <ele>736.3</ele>
        <time>2012-03-04T09:07:17Z</time>
      </trkpt>
      <trkpt lat="44.41935" lon="5.94417">
        <ele>736.5</ele>
        <time>2012-03-04T09:07:20Z</time>
      </trkpt>
      <trkpt lat="44.41936" lon="5.9441">
        <ele>737.2</ele>
        <time>2012-03-04T09:07:23Z</time>
      </trkpt>
      <trkpt lat="44.41937" lon="5.94402">
        <ele>737.1</ele>
        <time>2012-03-04T09:07:26Z</time>
      </trkpt>
      <trkpt lat="44.41938" lon="5.94395">
        <ele>737.2</ele>
        <time>2012-03-04T09:07:29Z</time>
      </trkpt>
      <trkpt lat="44.41939" lon="5.94388">
        <ele>737.1</ele>
        <time>2012-03-04T09:07:32Z</time>
      </trkpt>
      <trkpt lat="44.4194" lon="5.94381">
        <ele>736.5</ele>
        <time>2012-03-04T09:07:35Z</time>
      </trkpt>
      <trkpt lat="44.41941" lon="5.94374">
        <ele>736.4</ele>
        <time>2012-03-04T09:07:38Z</time>
      </trkpt>
      <trkpt lat="44.41942" lon="5.94367">
        <ele>737.3</ele>
        <time>2012-03-04T09:07:41Z</time>
      </trkpt>
      <trkpt lat="44.41943" lon="5.94361">
        <ele>736.5</ele>
        <time>2012-03-04T09:07:44Z</time>
      </trkpt>
      <trkpt lat="44.41944" lon="5.94354">
        <ele>736.5</ele>
        <time>2012-03-04T09:07:47Z</time>
      </trkpt>
      <trkpt lat="44.41945" lon="5.94348">
        <ele>736.7</ele>
        <time>2012-03-04T09:07:50Z</time>
      </trkpt>
      <trkpt lat="44.41946" lon="5.94341">
        <ele>737</ele>
        <time>2012-03-04T09:07:53Z</time>
      </trkpt>
      <trkpt lat="44.41947" lon="5.94334">
        <ele>738.1</ele>
        <time>2012-03-04T09:07:56Z</time>
      </trkpt>
      <trkpt lat="44.41948" lon="5.94327">
        <ele>737.9</ele>
        <time>2012-03-04T09:07:59Z</time>
      </trkpt>
      <trkpt lat="44.41949" lon="5.94319">
        <ele>737.7</ele>
        <time>2012-03-04T09:08:02Z</time>
      </trkpt>
      <trkpt lat="44.41952" lon="5.94311">
        <ele>737.1</ele>
        <time>2012-03-04T09:08:05Z</time>
      </trkpt>
      <trkpt lat="44.41956" lon="5.94305">
        <ele>739.5</ele>
        <time>2012-03-04T09:08:08Z</time>
      </trkpt>
      <trkpt lat="44.41961" lon="5.943">
        <ele>740.5</ele>
        <time>2012-03-04T09:08:11Z</time>
      </trkpt>
      <trkpt lat="44.41967" lon="5.94297">
        <ele>740.4</ele>
        <time>2012-03-04T09:08:14Z</time>
      </trkpt>
      <trkpt lat="44.41972" lon="5.94296">
        <ele>739.1</ele>
        <time>2012-03-04T09:08:17Z</time>
      </trkpt>
      <trkpt lat="44.41977" lon="5.94298">
        <ele>739.8</ele>
        <time>2012-03-04T09:08:20Z</time>
      </trkpt>
      <trkpt lat="44.41982" lon="5.94299">
        <ele>741.2</ele>
        <time>2012-03-04T09:08:23Z</time>
      </trkpt>
      <trkpt lat="44.41986" lon="5.94299">
        <ele>742.5</ele>
        <time>2012-03-04T09:08:26Z</time>
      </trkpt>
      <trkpt lat="44.41991" lon="5.94297">
        <ele>743.4</ele>
        <time>2012-03-04T09:08:29Z</time>
      </trkpt>
      <trkpt lat="44.41995" lon="5.94296">
        <ele>745.6</ele>
        <time>2012-03-04T09:08:32Z</time>
      </trkpt>
      <trkpt lat="44.42" lon="5.94293">
        <ele>743.5</ele>
        <time>2012-03-04T09:08:35Z</time>
      </trkpt>
      <trkpt lat="44.42003" lon="5.94288">
        <ele>745</ele>
        <time>2012-03-04T09:08:38Z</time>
      </trkpt>
      <trkpt lat="44.42007" lon="5.94282">
        <ele>745.3</ele>
        <time>2012-03-04T09:08:42Z</time>
      </trkpt>
      <trkpt lat="44.4201" lon="5.94275">
        <ele>745.9</ele>
        <time>2012-03-04T09:08:46Z</time>
      </trkpt>
      <trkpt lat="44.42013" lon="5.9427">
        <ele>745.7</ele>
        <time>2012-03-04T09:08:49Z</time>
      </trkpt>
      <trkpt lat="44.42015" lon="5.94262">
        <ele>747.2</ele>
        <time>2012-03-04T09:08:52Z</time>
      </trkpt>
      <trkpt lat="44.42018" lon="5.94255">
        <ele>748.2</ele>
        <time>2012-03-04T09:08:55Z</time>
      </trkpt>
      <trkpt lat="44.42022" lon="5.9425">
        <ele>749.4</ele>
        <time>2012-03-04T09:08:58Z</time>
      </trkpt>
      <trkpt lat="44.42027" lon="5.94246">
        <ele>748.4</ele>
        <time>2012-03-04T09:09:01Z</time>
      </trkpt>
      <trkpt lat="44.42032" lon="5.94243">
        <ele>751.4</ele>
        <time>2012-03-04T09:09:04Z</time>
      </trkpt>
      <trkpt lat="44.42036" lon="5.9424">
        <ele>752.5</ele>
        <time>2012-03-04T09:09:07Z</time>
      </trkpt>
      <trkpt lat="44.42041" lon="5.94238">
        <ele>752.7</ele>
        <time>2012-03-04T09:09:10Z</time>
      </trkpt>
      <trkpt lat="44.42045" lon="5.94234">
        <ele>751.8</ele>
        <time>2012-03-04T09:09:13Z</time>
      </trkpt>
      <trkpt lat="44.4205" lon="5.94232">
        <ele>751.7</ele>
        <time>2012-03-04T09:09:16Z</time>
      </trkpt>
      <trkpt lat="44.42055" lon="5.94229">
        <ele>751.6</ele>
        <time>2012-03-04T09:09:19Z</time>
      </trkpt>
      <trkpt lat="44.42061" lon="5.94226">
        <ele>751.8</ele>
        <time>2012-03-04T09:09:22Z</time>
      </trkpt>
      <trkpt lat="44.42065" lon="5.94222">
        <ele>751.8</ele>
        <time>2012-03-04T09:09:25Z</time>
      </trkpt>
      <trkpt lat="44.42069" lon="5.94217">
        <ele>753</ele>
        <time>2012-03-04T09:09:28Z</time>
      </trkpt>
      <trkpt lat="44.42072" lon="5.94212">
        <ele>752</ele>
        <time>2012-03-04T09:09:31Z</time>
      </trkpt>
      <trkpt lat="44.42075" lon="5.94207">
        <ele>753</ele>
        <time>2012-03-04T09:09:34Z</time>
      </trkpt>
      <trkpt lat="44.42078" lon="5.94202">
        <ele>752.7</ele>
        <time>2012-03-04T09:09:37Z</time>
      </trkpt>
      <trkpt lat="44.42081" lon="5.94196">
        <ele>752.6</ele>
        <time>2012-03-04T09:09:40Z</time>
      </trkpt>
      <trkpt lat="44.42084" lon="5.94189">
        <ele>752.1</ele>
        <time>2012-03-04T09:09:43Z</time>
      </trkpt>
      <trkpt lat="44.42086" lon="5.94183">
        <ele>752.2</ele>
        <time>2012-03-04T09:09:46Z</time>
      </trkpt>
      <trkpt lat="44.42089" lon="5.94176">
        <ele>752.3</ele>
        <time>2012-03-04T09:09:49Z</time>
      </trkpt>
      <trkpt lat="44.42091" lon="5.9417">
        <ele>752</ele>
        <time>2012-03-04T09:09:52Z</time>
      </trkpt>
      <trkpt lat="44.42093" lon="5.94163">
        <ele>751.7</ele>
        <time>2012-03-04T09:09:55Z</time>
      </trkpt>
      <trkpt lat="44.42096" lon="5.94156">
        <ele>751.2</ele>
        <time>2012-03-04T09:09:58Z</time>
      </trkpt>
      <trkpt lat="44.42097" lon="5.94148">
        <ele>751.8</ele>
        <time>2012-03-04T09:10:01Z</time>
      </trkpt>
      <trkpt lat="44.42098" lon="5.9414">
        <ele>752.5</ele>
        <time>2012-03-04T09:10:04Z</time>
      </trkpt>
      <trkpt lat="44.42099" lon="5.94132">
        <ele>752</ele>
        <time>2012-03-04T09:10:07Z</time>
      </trkpt>
      <trkpt lat="44.421" lon="5.94125">
        <ele>753.7</ele>
        <time>2012-03-04T09:10:10Z</time>
      </trkpt>
      <trkpt lat="44.42103" lon="5.94117">
        <ele>755.1</ele>
        <time>2012-03-04T09:10:13Z</time>
      </trkpt>
      <trkpt lat="44.42104" lon="5.94111">
        <ele>755.2</ele>
        <time>2012-03-04T09:10:15Z</time>
      </trkpt>
      <trkpt lat="44.42104" lon="5.94102">
        <ele>755.1</ele>
        <time>2012-03-04T09:10:18Z</time>
      </trkpt>
      <trkpt lat="44.42105" lon="5.94093">
        <ele>754</ele>
        <time>2012-03-04T09:10:21Z</time>
      </trkpt>
      <trkpt lat="44.42106" lon="5.94085">
        <ele>753.9</ele>
        <time>2012-03-04T09:10:24Z</time>
      </trkpt>
      <trkpt lat="44.42107" lon="5.94078">
        <ele>754.5</ele>
        <time>2012-03-04T09:10:26Z</time>
      </trkpt>
      <trkpt lat="44.42108" lon="5.94072">
        <ele>755.2</ele>
        <time>2012-03-04T09:10:28Z</time>
      </trkpt>
      <trkpt lat="44.42109" lon="5.94066">
        <ele>754</ele>
        <time>2012-03-04T09:10:30Z</time>
      </trkpt>
      <trkpt lat="44.4211" lon="5.94059">
        <ele>753.9</ele>
        <time>2012-03-04T09:10:32Z</time>
      </trkpt>
      <trkpt lat="44.42111" lon="5.94053">
        <ele>753.3</ele>
        <time>2012-03-04T09:10:34Z</time>
      </trkpt>
      <trkpt lat="44.42112" lon="5.94044">
        <ele>752.5</ele>
        <time>2012-03-04T09:10:37Z</time>
      </trkpt>
      <trkpt lat="44.42113" lon="5.94035">
        <ele>753.8</ele>
        <time>2012-03-04T09:10:40Z</time>
      </trkpt>
      <trkpt lat="44.42114" lon="5.94027">
        <ele>754.3</ele>
        <time>2012-03-04T09:10:43Z</time>
      </trkpt>
      <trkpt lat="44.42116" lon="5.94018">
        <ele>753.5</ele>
        <time>2012-03-04T09:10:46Z</time>
      </trkpt>
      <trkpt lat="44.42117" lon="5.9401">
        <ele>755.2</ele>
        <time>2012-03-04T09:10:49Z</time>
      </trkpt>
      <trkpt lat="44.42118" lon="5.94002">
        <ele>756.3</ele>
        <time>2012-03-04T09:10:52Z</time>
      </trkpt>
      <trkpt lat="44.42121" lon="5.93993">
        <ele>756.7</ele>
        <time>2012-03-04T09:10:55Z</time>
      </trkpt>
      <trkpt lat="44.42122" lon="5.93987">
        <ele>756.3</ele>
        <time>2012-03-04T09:10:57Z</time>
      </trkpt>
      <trkpt lat="44.42122" lon="5.93981">
        <ele>756.2</ele>
        <time>2012-03-04T09:10:59Z</time>
      </trkpt>
      <trkpt lat="44.42124" lon="5.93974">
        <ele>756.2</ele>
        <time>2012-03-04T09:11:01Z</time>
      </trkpt>
      <trkpt lat="44.42125" lon="5.93968">
        <ele>756.1</ele>
        <time>2012-03-04T09:11:03Z</time>
      </trkpt>
      <trkpt lat="44.42126" lon="5.93962">
        <ele>756.4</ele>
        <time>2012-03-04T09:11:05Z</time>
      </trkpt>
      <trkpt lat="44.42127" lon="5.93955">
        <ele>756.7</ele>
        <time>2012-03-04T09:11:07Z</time>
      </trkpt>
      <trkpt lat="44.42128" lon="5.93946">
        <ele>757.8</ele>
        <time>2012-03-04T09:11:10Z</time>
      </trkpt>
      <trkpt lat="44.42129" lon="5.9394">
        <ele>757.7</ele>
        <time>2012-03-04T09:11:12Z</time>
      </trkpt>
      <trkpt lat="44.42131" lon="5.93931">
        <ele>758.6</ele>
        <time>2012-03-04T09:11:15Z</time>
      </trkpt>
      <trkpt lat="44.42132" lon="5.93925">
        <ele>759.2</ele>
        <time>2012-03-04T09:11:17Z</time>
      </trkpt>
      <trkpt lat="44.42134" lon="5.93918">
        <ele>759.6</ele>
        <time>2012-03-04T09:11:19Z</time>
      </trkpt>
      <trkpt lat="44.42135" lon="5.93912">
        <ele>759.2</ele>
        <time>2012-03-04T09:11:21Z</time>
      </trkpt>
      <trkpt lat="44.42137" lon="5.93906">
        <ele>760</ele>
        <time>2012-03-04T09:11:23Z</time>
      </trkpt>
      <trkpt lat="44.4214" lon="5.93898">
        <ele>759.4</ele>
        <time>2012-03-04T09:11:26Z</time>
      </trkpt>
      <trkpt lat="44.42142" lon="5.93892">
        <ele>759.6</ele>
        <time>2012-03-04T09:11:28Z</time>
      </trkpt>
      <trkpt lat="44.42144" lon="5.93886">
        <ele>760.1</ele>
        <time>2012-03-04T09:11:30Z</time>
      </trkpt>
      <trkpt lat="44.42145" lon="5.93881">
        <ele>759.9</ele>
        <time>2012-03-04T09:11:32Z</time>
      </trkpt>
      <trkpt lat="44.42148" lon="5.93872">
        <ele>759.6</ele>
        <time>2012-03-04T09:11:35Z</time>
      </trkpt>
      <trkpt lat="44.4215" lon="5.93863">
        <ele>759.4</ele>
        <time>2012-03-04T09:11:38Z</time>
      </trkpt>
      <trkpt lat="44.42152" lon="5.93857">
        <ele>759.6</ele>
        <time>2012-03-04T09:11:40Z</time>
      </trkpt>
      <trkpt lat="44.42154" lon="5.93849">
        <ele>761.7</ele>
        <time>2012-03-04T09:11:43Z</time>
      </trkpt>
      <trkpt lat="44.42156" lon="5.9384">
        <ele>763.1</ele>
        <time>2012-03-04T09:11:46Z</time>
      </trkpt>
      <trkpt lat="44.42157" lon="5.93834">
        <ele>762.7</ele>
        <time>2012-03-04T09:11:48Z</time>
      </trkpt>
      <trkpt lat="44.42158" lon="5.93827">
        <ele>763.2</ele>
        <time>2012-03-04T09:11:50Z</time>
      </trkpt>
      <trkpt lat="44.42159" lon="5.93821">
        <ele>764.8</ele>
        <time>2012-03-04T09:11:52Z</time>
      </trkpt>
      <trkpt lat="44.42161" lon="5.93814">
        <ele>765.2</ele>
        <time>2012-03-04T09:11:54Z</time>
      </trkpt>
      <trkpt lat="44.42162" lon="5.93808">
        <ele>766</ele>
        <time>2012-03-04T09:11:56Z</time>
      </trkpt>
      <trkpt lat="44.42164" lon="5.93801">
        <ele>767.4</ele>
        <time>2012-03-04T09:11:58Z</time>
      </trkpt>
      <trkpt lat="44.42166" lon="5.93795">
        <ele>767.8</ele>
        <time>2012-03-04T09:12:00Z</time>
      </trkpt>
      <trkpt lat="44.42168" lon="5.93789">
        <ele>768.1</ele>
        <time>2012-03-04T09:12:02Z</time>
      </trkpt>
      <trkpt lat="44.42169" lon="5.93783">
        <ele>768.8</ele>
        <time>2012-03-04T09:12:04Z</time>
      </trkpt>
      <trkpt lat="44.42172" lon="5.93774">
        <ele>766.4</ele>
        <time>2012-03-04T09:12:07Z</time>
      </trkpt>
      <trkpt lat="44.42174" lon="5.93768">
        <ele>765.2</ele>
        <time>2012-03-04T09:12:10Z</time>
      </trkpt>
      <trkpt lat="44.42176" lon="5.9376">
        <ele>767.3</ele>
        <time>2012-03-04T09:12:13Z</time>
      </trkpt>
      <trkpt lat="44.42179" lon="5.93751">
        <ele>766.5</ele>
        <time>2012-03-04T09:12:16Z</time>
      </trkpt>
      <trkpt lat="44.42181" lon="5.93742">
        <ele>768.3</ele>
        <time>2012-03-04T09:12:19Z</time>
      </trkpt>
      <trkpt lat="44.42184" lon="5.93734">
        <ele>767.7</ele>
        <time>2012-03-04T09:12:22Z</time>
      </trkpt>
      <trkpt lat="44.42186" lon="5.93726">
        <ele>767.2</ele>
        <time>2012-03-04T09:12:25Z</time>
      </trkpt>
      <trkpt lat="44.42189" lon="5.93719">
        <ele>767.2</ele>
        <time>2012-03-04T09:12:28Z</time>
      </trkpt>
      <trkpt lat="44.42192" lon="5.93711">
        <ele>767.2</ele>
        <time>2012-03-04T09:12:31Z</time>
      </trkpt>
      <trkpt lat="44.42194" lon="5.93703">
        <ele>767.3</ele>
        <time>2012-03-04T09:12:34Z</time>
      </trkpt>
      <trkpt lat="44.42197" lon="5.93695">
        <ele>767.5</ele>
        <time>2012-03-04T09:12:37Z</time>
      </trkpt>
      <trkpt lat="44.42199" lon="5.93687">
        <ele>767.9</ele>
        <time>2012-03-04T09:12:40Z</time>
      </trkpt>
      <trkpt lat="44.42201" lon="5.93678">
        <ele>767.3</ele>
        <time>2012-03-04T09:12:43Z</time>
      </trkpt>
      <trkpt lat="44.42203" lon="5.9367">
        <ele>767.7</ele>
        <time>2012-03-04T09:12:46Z</time>
      </trkpt>
      <trkpt lat="44.42205" lon="5.93662">
        <ele>767.5</ele>
        <time>2012-03-04T09:12:49Z</time>
      </trkpt>
      <trkpt lat="44.42207" lon="5.93653">
        <ele>767.8</ele>
        <time>2012-03-04T09:12:52Z</time>
      </trkpt>
      <trkpt lat="44.42209" lon="5.93647">
        <ele>767.7</ele>
        <time>2012-03-04T09:12:54Z</time>
      </trkpt>
      <trkpt lat="44.42211" lon="5.93641">
        <ele>767.7</ele>
        <time>2012-03-04T09:12:56Z</time>
      </trkpt>
      <trkpt lat="44.42213" lon="5.93635">
        <ele>768.2</ele>
        <time>2012-03-04T09:12:58Z</time>
      </trkpt>
      <trkpt lat="44.42215" lon="5.9363">
        <ele>768.2</ele>
        <time>2012-03-04T09:13:00Z</time>
      </trkpt>
      <trkpt lat="44.42217" lon="5.93624">
        <ele>767.6</ele>
        <time>2012-03-04T09:13:02Z</time>
      </trkpt>
      <trkpt lat="44.42219" lon="5.93618">
        <ele>767.3</ele>
        <time>2012-03-04T09:13:04Z</time>
      </trkpt>
      <trkpt lat="44.4222" lon="5.93609">
        <ele>766.1</ele>
        <time>2012-03-04T09:13:07Z</time>
      </trkpt>
      <trkpt lat="44.4222" lon="5.936">
        <ele>766.4</ele>
        <time>2012-03-04T09:13:10Z</time>
      </trkpt>
      <trkpt lat="44.4222" lon="5.93593">
        <ele>765.6</ele>
        <time>2012-03-04T09:13:12Z</time>
      </trkpt>
      <trkpt lat="44.4222" lon="5.93586">
        <ele>766.6</ele>
        <time>2012-03-04T09:13:14Z</time>
      </trkpt>
      <trkpt lat="44.4222" lon="5.93579">
        <ele>766.9</ele>
        <time>2012-03-04T09:13:16Z</time>
      </trkpt>
      <trkpt lat="44.42219" lon="5.93572">
        <ele>768.1</ele>
        <time>2012-03-04T09:13:18Z</time>
      </trkpt>
      <trkpt lat="44.42218" lon="5.93565">
        <ele>768.3</ele>
        <time>2012-03-04T09:13:20Z</time>
      </trkpt>
      <trkpt lat="44.42217" lon="5.93558">
        <ele>769.5</ele>
        <time>2012-03-04T09:13:22Z</time>
      </trkpt>
      <trkpt lat="44.42216" lon="5.93552">
        <ele>769.4</ele>
        <time>2012-03-04T09:13:24Z</time>
      </trkpt>
      <trkpt lat="44.42216" lon="5.93544">
        <ele>769.1</ele>
        <time>2012-03-04T09:13:26Z</time>
      </trkpt>
      <trkpt lat="44.42216" lon="5.93537">
        <ele>769.2</ele>
        <time>2012-03-04T09:13:28Z</time>
      </trkpt>
      <trkpt lat="44.42215" lon="5.9353">
        <ele>769.2</ele>
        <time>2012-03-04T09:13:30Z</time>
      </trkpt>
      <trkpt lat="44.42215" lon="5.93523">
        <ele>768.8</ele>
        <time>2012-03-04T09:13:32Z</time>
      </trkpt>
      <trkpt lat="44.42215" lon="5.93516">
        <ele>767.4</ele>
        <time>2012-03-04T09:13:34Z</time>
      </trkpt>
      <trkpt lat="44.42215" lon="5.93508">
        <ele>766.4</ele>
        <time>2012-03-04T09:13:36Z</time>
      </trkpt>
      <trkpt lat="44.42216" lon="5.93501">
        <ele>766.3</ele>
        <time>2012-03-04T09:13:38Z</time>
      </trkpt>
      <trkpt lat="44.42218" lon="5.93494">
        <ele>766.1</ele>
        <time>2012-03-04T09:13:40Z</time>
      </trkpt>
      <trkpt lat="44.42222" lon="5.93488">
        <ele>766.3</ele>
        <time>2012-03-04T09:13:42Z</time>
      </trkpt>
      <trkpt lat="44.42226" lon="5.93484">
        <ele>766.2</ele>
        <time>2012-03-04T09:13:44Z</time>
      </trkpt>
      <trkpt lat="44.42232" lon="5.93482">
        <ele>765.3</ele>
        <time>2012-03-04T09:13:46Z</time>
      </trkpt>
      <trkpt lat="44.42237" lon="5.93482">
        <ele>765.3</ele>
        <time>2012-03-04T09:13:48Z</time>
      </trkpt>
      <trkpt lat="44.42242" lon="5.93484">
        <ele>765.5</ele>
        <time>2012-03-04T09:13:50Z</time>
      </trkpt>
      <trkpt lat="44.42248" lon="5.93487">
        <ele>766.5</ele>
        <time>2012-03-04T09:13:52Z</time>
      </trkpt>
      <trkpt lat="44.42253" lon="5.93489">
        <ele>767</ele>
        <time>2012-03-04T09:13:54Z</time>
      </trkpt>
      <trkpt lat="44.42258" lon="5.9349">
        <ele>767.4</ele>
        <time>2012-03-04T09:13:56Z</time>
      </trkpt>
      <trkpt lat="44.42262" lon="5.93491">
        <ele>768.5</ele>
        <time>2012-03-04T09:13:58Z</time>
      </trkpt>
      <trkpt lat="44.42267" lon="5.93492">
        <ele>770.3</ele>
        <time>2012-03-04T09:14:00Z</time>
      </trkpt>
      <trkpt lat="44.42271" lon="5.93492">
        <ele>771.3</ele>
        <time>2012-03-04T09:14:02Z</time>
      </trkpt>
      <trkpt lat="44.42276" lon="5.9349">
        <ele>772.1</ele>
        <time>2012-03-04T09:14:04Z</time>
      </trkpt>
      <trkpt lat="44.4228" lon="5.93487">
        <ele>771.9</ele>
        <time>2012-03-04T09:14:06Z</time>
      </trkpt>
      <trkpt lat="44.42284" lon="5.93484">
        <ele>771.4</ele>
        <time>2012-03-04T09:14:08Z</time>
      </trkpt>
      <trkpt lat="44.42287" lon="5.93479">
        <ele>772.1</ele>
        <time>2012-03-04T09:14:10Z</time>
      </trkpt>
      <trkpt lat="44.4229" lon="5.93472">
        <ele>772.2</ele>
        <time>2012-03-04T09:14:12Z</time>
      </trkpt>
      <trkpt lat="44.42292" lon="5.93466">
        <ele>771.2</ele>
        <time>2012-03-04T09:14:14Z</time>
      </trkpt>
      <trkpt lat="44.42294" lon="5.93459">
        <ele>771.3</ele>
        <time>2012-03-04T09:14:16Z</time>
      </trkpt>
      <trkpt lat="44.42295" lon="5.93452">
        <ele>771.2</ele>
        <time>2012-03-04T09:14:18Z</time>
      </trkpt>
      <trkpt lat="44.42296" lon="5.93444">
        <ele>770.6</ele>
        <time>2012-03-04T09:14:20Z</time>
      </trkpt>
      <trkpt lat="44.42298" lon="5.93437">
        <ele>769.9</ele>
        <time>2012-03-04T09:14:22Z</time>
      </trkpt>
      <trkpt lat="44.42301" lon="5.93432">
        <ele>770.3</ele>
        <time>2012-03-04T09:14:24Z</time>
      </trkpt>
      <trkpt lat="44.42306" lon="5.93427">
        <ele>770.5</ele>
        <time>2012-03-04T09:14:26Z</time>
      </trkpt>
      <trkpt lat="44.42311" lon="5.93424">
        <ele>770.5</ele>
        <time>2012-03-04T09:14:28Z</time>
      </trkpt>
      <trkpt lat="44.42317" lon="5.93422">
        <ele>771</ele>
        <time>2012-03-04T09:14:30Z</time>
      </trkpt>
      <trkpt lat="44.42323" lon="5.9342">
        <ele>771.5</ele>
        <time>2012-03-04T09:14:32Z</time>
      </trkpt>
      <trkpt lat="44.42329" lon="5.93421">
        <ele>771.7</ele>
        <time>2012-03-04T09:14:34Z</time>
      </trkpt>
      <trkpt lat="44.42335" lon="5.93423">
        <ele>772.2</ele>
        <time>2012-03-04T09:14:36Z</time>
      </trkpt>
      <trkpt lat="44.4234" lon="5.93427">
        <ele>771.9</ele>
        <time>2012-03-04T09:14:38Z</time>
      </trkpt>
      <trkpt lat="44.42345" lon="5.93432">
        <ele>769.2</ele>
        <time>2012-03-04T09:14:40Z</time>
      </trkpt>
      <trkpt lat="44.4235" lon="5.93437">
        <ele>768.1</ele>
        <time>2012-03-04T09:14:42Z</time>
      </trkpt>
      <trkpt lat="44.42354" lon="5.93443">
        <ele>767.6</ele>
        <time>2012-03-04T09:14:44Z</time>
      </trkpt>
      <trkpt lat="44.42356" lon="5.9345">
        <ele>766.4</ele>
        <time>2012-03-04T09:14:46Z</time>
      </trkpt>
      <trkpt lat="44.42358" lon="5.93457">
        <ele>765.9</ele>
        <time>2012-03-04T09:14:48Z</time>
      </trkpt>
      <trkpt lat="44.42359" lon="5.93463">
        <ele>767.2</ele>
        <time>2012-03-04T09:14:50Z</time>
      </trkpt>
      <trkpt lat="44.4236" lon="5.93472">
        <ele>767.4</ele>
        <time>2012-03-04T09:14:53Z</time>
      </trkpt>
      <trkpt lat="44.42362" lon="5.93479">
        <ele>768.4</ele>
        <time>2012-03-04T09:14:56Z</time>
      </trkpt>
      <trkpt lat="44.42366" lon="5.93485">
        <ele>769.3</ele>
        <time>2012-03-04T09:14:59Z</time>
      </trkpt>
      <trkpt lat="44.42371" lon="5.9349">
        <ele>770.9</ele>
        <time>2012-03-04T09:15:02Z</time>
      </trkpt>
      <trkpt lat="44.42377" lon="5.93492">
        <ele>772.2</ele>
        <time>2012-03-04T09:15:05Z</time>
      </trkpt>
      <trkpt lat="44.42383" lon="5.93494">
        <ele>775</ele>
        <time>2012-03-04T09:15:08Z</time>
      </trkpt>
      <trkpt lat="44.4239" lon="5.93494">
        <ele>775.9</ele>
        <time>2012-03-04T09:15:11Z</time>
      </trkpt>
      <trkpt lat="44.42394" lon="5.93493">
        <ele>776.2</ele>
        <time>2012-03-04T09:15:13Z</time>
      </trkpt>
      <trkpt lat="44.42399" lon="5.93491">
        <ele>776.8</ele>
        <time>2012-03-04T09:15:15Z</time>
      </trkpt>
      <trkpt lat="44.42404" lon="5.93489">
        <ele>776.9</ele>
        <time>2012-03-04T09:15:17Z</time>
      </trkpt>
      <trkpt lat="44.42408" lon="5.93486">
        <ele>776.9</ele>
        <time>2012-03-04T09:15:19Z</time>
      </trkpt>
      <trkpt lat="44.42414" lon="5.93482">
        <ele>777.9</ele>
        <time>2012-03-04T09:15:22Z</time>
      </trkpt>
      <trkpt lat="44.42419" lon="5.93478">
        <ele>780.3</ele>
        <time>2012-03-04T09:15:25Z</time>
      </trkpt>
      <trkpt lat="44.42424" lon="5.93474">
        <ele>780.4</ele>
        <time>2012-03-04T09:15:28Z</time>
      </trkpt>
      <trkpt lat="44.4243" lon="5.93471">
        <ele>780.3</ele>
        <time>2012-03-04T09:15:31Z</time>
      </trkpt>
      <trkpt lat="44.42435" lon="5.93468">
        <ele>780.3</ele>
        <time>2012-03-04T09:15:34Z</time>
      </trkpt>
      <trkpt lat="44.4244" lon="5.93465">
        <ele>781.3</ele>
        <time>2012-03-04T09:15:37Z</time>
      </trkpt>
      <trkpt lat="44.42445" lon="5.93462">
        <ele>781.7</ele>
        <time>2012-03-04T09:15:40Z</time>
      </trkpt>
      <trkpt lat="44.4245" lon="5.93459">
        <ele>781.5</ele>
        <time>2012-03-04T09:15:43Z</time>
      </trkpt>
      <trkpt lat="44.42454" lon="5.93455">
        <ele>783.3</ele>
        <time>2012-03-04T09:15:46Z</time>
      </trkpt>
      <trkpt lat="44.42459" lon="5.93452">
        <ele>785</ele>
        <time>2012-03-04T09:15:49Z</time>
      </trkpt>
      <trkpt lat="44.42463" lon="5.93449">
        <ele>788.1</ele>
        <time>2012-03-04T09:15:52Z</time>
      </trkpt>
      <trkpt lat="44.42468" lon="5.93446">
        <ele>787.7</ele>
        <time>2012-03-04T09:15:55Z</time>
      </trkpt>
      <trkpt lat="44.42474" lon="5.93444">
        <ele>787.4</ele>
        <time>2012-03-04T09:15:58Z</time>
      </trkpt>
      <trkpt lat="44.42479" lon="5.93444">
        <ele>786.4</ele>
        <time>2012-03-04T09:16:01Z</time>
      </trkpt>
      <trkpt lat="44.42484" lon="5.93443">
        <ele>787.5</ele>
        <time>2012-03-04T09:16:04Z</time>
      </trkpt>
      <trkpt lat="44.4249" lon="5.9344">
        <ele>788.4</ele>
        <time>2012-03-04T09:16:07Z</time>
      </trkpt>
      <trkpt lat="44.42494" lon="5.93437">
        <ele>787.9</ele>
        <time>2012-03-04T09:16:10Z</time>
      </trkpt>
      <trkpt lat="44.42498" lon="5.93433">
        <ele>788.6</ele>
        <time>2012-03-04T09:16:13Z</time>
      </trkpt>
      <trkpt lat="44.42503" lon="5.93428">
        <ele>789</ele>
        <time>2012-03-04T09:16:16Z</time>
      </trkpt>
      <trkpt lat="44.42506" lon="5.93423">
        <ele>787.6</ele>
        <time>2012-03-04T09:16:19Z</time>
      </trkpt>
      <trkpt lat="44.4251" lon="5.93417">
        <ele>786</ele>
        <time>2012-03-04T09:16:22Z</time>
      </trkpt>
      <trkpt lat="44.42512" lon="5.93411">
        <ele>786.2</ele>
        <time>2012-03-04T09:16:25Z</time>
      </trkpt>
      <trkpt lat="44.42513" lon="5.93405">
        <ele>786.9</ele>
        <time>2012-03-04T09:16:28Z</time>
      </trkpt>
      <trkpt lat="44.42514" lon="5.93396">
        <ele>786.3</ele>
        <time>2012-03-04T09:16:32Z</time>
      </trkpt>
      <trkpt lat="44.42514" lon="5.93389">
        <ele>787.7</ele>
        <time>2012-03-04T09:16:35Z</time>
      </trkpt>
      <trkpt lat="44.42513" lon="5.93381">
        <ele>786.6</ele>
        <time>2012-03-04T09:16:38Z</time>
      </trkpt>
      <trkpt lat="44.42514" lon="5.93374">
        <ele>787.5</ele>
        <time>2012-03-04T09:16:41Z</time>
      </trkpt>
      <trkpt lat="44.42515" lon="5.93366">
        <ele>788.8</ele>
        <time>2012-03-04T09:16:44Z</time>
      </trkpt>
      <trkpt lat="44.42515" lon="5.93358">
        <ele>786.7</ele>
        <time>2012-03-04T09:16:47Z</time>
      </trkpt>
      <trkpt lat="44.42514" lon="5.9335">
        <ele>786.9</ele>
        <time>2012-03-04T09:16:50Z</time>
      </trkpt>
      <trkpt lat="44.42512" lon="5.93343">
        <ele>789</ele>
        <time>2012-03-04T09:16:54Z</time>
      </trkpt>
      <trkpt lat="44.4251" lon="5.93336">
        <ele>791.9</ele>
        <time>2012-03-04T09:16:59Z</time>
      </trkpt>
      <trkpt lat="44.42512" lon="5.9333">
        <ele>794.4</ele>
        <time>2012-03-04T09:17:03Z</time>
      </trkpt>
      <trkpt lat="44.42512" lon="5.93323">
        <ele>795.2</ele>
        <time>2012-03-04T09:17:06Z</time>
      </trkpt>
      <trkpt lat="44.42513" lon="5.93315">
        <ele>795.4</ele>
        <time>2012-03-04T09:17:09Z</time>
      </trkpt>
      <trkpt lat="44.42514" lon="5.93308">
        <ele>796.5</ele>
        <time>2012-03-04T09:17:12Z</time>
      </trkpt>
      <trkpt lat="44.42515" lon="5.93301">
        <ele>796.1</ele>
        <time>2012-03-04T09:17:15Z</time>
      </trkpt>
      <trkpt lat="44.42517" lon="5.93294">
        <ele>796.6</ele>
        <time>2012-03-04T09:17:18Z</time>
      </trkpt>
      <trkpt lat="44.42519" lon="5.93287">
        <ele>795.9</ele>
        <time>2012-03-04T09:17:21Z</time>
      </trkpt>
      <trkpt lat="44.4252" lon="5.9328">
        <ele>796.6</ele>
        <time>2012-03-04T09:17:24Z</time>
      </trkpt>
      <trkpt lat="44.42522" lon="5.93273">
        <ele>798.1</ele>
        <time>2012-03-04T09:17:27Z</time>
      </trkpt>
      <trkpt lat="44.42524" lon="5.93266">
        <ele>797</ele>
        <time>2012-03-04T09:17:30Z</time>
      </trkpt>
      <trkpt lat="44.42526" lon="5.9326">
        <ele>796.9</ele>
        <time>2012-03-04T09:17:33Z</time>
      </trkpt>
      <trkpt lat="44.42527" lon="5.93254">
        <ele>799.1</ele>
        <time>2012-03-04T09:17:36Z</time>
      </trkpt>
      <trkpt lat="44.42529" lon="5.93248">
        <ele>800.3</ele>
        <time>2012-03-04T09:17:40Z</time>
      </trkpt>
      <trkpt lat="44.42531" lon="5.9324">
        <ele>800.1</ele>
        <time>2012-03-04T09:17:43Z</time>
      </trkpt>
      <trkpt lat="44.42533" lon="5.93233">
        <ele>799.8</ele>
        <time>2012-03-04T09:17:46Z</time>
      </trkpt>
      <trkpt lat="44.42534" lon="5.93226">
        <ele>800.7</ele>
        <time>2012-03-04T09:17:49Z</time>
      </trkpt>
      <trkpt lat="44.42534" lon="5.93219">
        <ele>802.5</ele>
        <time>2012-03-04T09:17:52Z</time>
      </trkpt>
      <trkpt lat="44.42533" lon="5.93213">
        <ele>803.3</ele>
        <time>2012-03-04T09:17:55Z</time>
      </trkpt>
      <trkpt lat="44.42533" lon="5.93206">
        <ele>801.9</ele>
        <time>2012-03-04T09:17:58Z</time>
      </trkpt>
      <trkpt lat="44.42532" lon="5.93199">
        <ele>804.1</ele>
        <time>2012-03-04T09:18:01Z</time>
      </trkpt>
      <trkpt lat="44.42532" lon="5.93192">
        <ele>806.3</ele>
        <time>2012-03-04T09:18:05Z</time>
      </trkpt>
      <trkpt lat="44.42533" lon="5.93184">
        <ele>809.8</ele>
        <time>2012-03-04T09:18:09Z</time>
      </trkpt>
      <trkpt lat="44.42534" lon="5.93177">
        <ele>809.7</ele>
        <time>2012-03-04T09:18:12Z</time>
      </trkpt>
      <trkpt lat="44.42534" lon="5.93169">
        <ele>808.8</ele>
        <time>2012-03-04T09:18:15Z</time>
      </trkpt>
      <trkpt lat="44.42535" lon="5.9316">
        <ele>808.8</ele>
        <time>2012-03-04T09:18:18Z</time>
      </trkpt>
      <trkpt lat="44.42536" lon="5.93152">
        <ele>809</ele>
        <time>2012-03-04T09:18:21Z</time>
      </trkpt>
      <trkpt lat="44.42538" lon="5.93145">
        <ele>808.3</ele>
        <time>2012-03-04T09:18:24Z</time>
      </trkpt>
      <trkpt lat="44.4254" lon="5.93137">
        <ele>809.6</ele>
        <time>2012-03-04T09:18:27Z</time>
      </trkpt>
      <trkpt lat="44.42542" lon="5.93129">
        <ele>809.9</ele>
        <time>2012-03-04T09:18:30Z</time>
      </trkpt>
      <trkpt lat="44.42544" lon="5.93123">
        <ele>809.4</ele>
        <time>2012-03-04T09:18:33Z</time>
      </trkpt>
      <trkpt lat="44.42546" lon="5.93116">
        <ele>809.3</ele>
        <time>2012-03-04T09:18:36Z</time>
      </trkpt>
      <trkpt lat="44.42548" lon="5.93109">
        <ele>808.4</ele>
        <time>2012-03-04T09:18:39Z</time>
      </trkpt>
      <trkpt lat="44.4255" lon="5.93102">
        <ele>808.9</ele>
        <time>2012-03-04T09:18:42Z</time>
      </trkpt>
      <trkpt lat="44.42552" lon="5.93096">
        <ele>809.1</ele>
        <time>2012-03-04T09:18:45Z</time>
      </trkpt>
      <trkpt lat="44.42554" lon="5.93089">
        <ele>809.3</ele>
        <time>2012-03-04T09:18:48Z</time>
      </trkpt>
      <trkpt lat="44.42557" lon="5.93083">
        <ele>809.3</ele>
        <time>2012-03-04T09:18:51Z</time>
      </trkpt>
      <trkpt lat="44.42559" lon="5.93077">
        <ele>807.8</ele>
        <time>2012-03-04T09:18:54Z</time>
      </trkpt>
      <trkpt lat="44.42561" lon="5.93071">
        <ele>809</ele>
        <time>2012-03-04T09:18:57Z</time>
      </trkpt>
      <trkpt lat="44.42564" lon="5.93065">
        <ele>808.8</ele>
        <time>2012-03-04T09:19:00Z</time>
      </trkpt>
      <trkpt lat="44.42566" lon="5.93059">
        <ele>809.4</ele>
        <time>2012-03-04T09:19:03Z</time>
      </trkpt>
      <trkpt lat="44.42568" lon="5.93052">
        <ele>808.8</ele>
        <time>2012-03-04T09:19:06Z</time>
      </trkpt>
      <trkpt lat="44.4257" lon="5.93046">
        <ele>808.7</ele>
        <time>2012-03-04T09:19:09Z</time>
      </trkpt>
      <trkpt lat="44.42572" lon="5.93039">
        <ele>810.5</ele>
        <time>2012-03-04T09:19:12Z</time>
      </trkpt>
      <trkpt lat="44.42574" lon="5.93032">
        <ele>811.3</ele>
        <time>2012-03-04T09:19:15Z</time>
      </trkpt>
      <trkpt lat="44.42577" lon="5.93025">
        <ele>811.2</ele>
        <time>2012-03-04T09:19:18Z</time>
      </trkpt>
      <trkpt lat="44.4258" lon="5.93018">
        <ele>811.4</ele>
        <time>2012-03-04T09:19:21Z</time>
      </trkpt>
      <trkpt lat="44.42582" lon="5.9301">
        <ele>812.7</ele>
        <time>2012-03-04T09:19:24Z</time>
      </trkpt>
      <trkpt lat="44.42584" lon="5.93004">
        <ele>813.8</ele>
        <time>2012-03-04T09:19:27Z</time>
      </trkpt>
      <trkpt lat="44.42586" lon="5.92996">
        <ele>814.1</ele>
        <time>2012-03-04T09:19:30Z</time>
      </trkpt>
      <trkpt lat="44.42588" lon="5.92989">
        <ele>813.5</ele>
        <time>2012-03-04T09:19:33Z</time>
      </trkpt>
      <trkpt lat="44.42589" lon="5.92982">
        <ele>813.2</ele>
        <time>2012-03-04T09:19:36Z</time>
      </trkpt>
      <trkpt lat="44.42591" lon="5.92974">
        <ele>812.9</ele>
        <time>2012-03-04T09:19:39Z</time>
      </trkpt>
      <trkpt lat="44.42592" lon="5.92966">
        <ele>812.7</ele>
        <time>2012-03-04T09:19:42Z</time>
      </trkpt>
      <trkpt lat="44.42593" lon="5.92959">
        <ele>812.6</ele>
        <time>2012-03-04T09:19:45Z</time>
      </trkpt>
      <trkpt lat="44.42594" lon="5.92952">
        <ele>813.4</ele>
        <time>2012-03-04T09:19:48Z</time>
      </trkpt>
      <trkpt lat="44.42596" lon="5.92945">
        <ele>813.4</ele>
        <time>2012-03-04T09:19:51Z</time>
      </trkpt>
      <trkpt lat="44.42596" lon="5.92938">
        <ele>813.2</ele>
        <time>2012-03-04T09:19:54Z</time>
      </trkpt>
      <trkpt lat="44.42596" lon="5.92931">
        <ele>813.6</ele>
        <time>2012-03-04T09:19:57Z</time>
      </trkpt>
      <trkpt lat="44.42596" lon="5.92924">
        <ele>814.9</ele>
        <time>2012-03-04T09:20:00Z</time>
      </trkpt>
      <trkpt lat="44.42598" lon="5.92918">
        <ele>815.3</ele>
        <time>2012-03-04T09:20:03Z</time>
      </trkpt>
      <trkpt lat="44.42599" lon="5.92911">
        <ele>816.1</ele>
        <time>2012-03-04T09:20:06Z</time>
      </trkpt>
      <trkpt lat="44.42601" lon="5.92904">
        <ele>817</ele>
        <time>2012-03-04T09:20:09Z</time>
      </trkpt>
      <trkpt lat="44.42602" lon="5.92896">
        <ele>817.1</ele>
        <time>2012-03-04T09:20:12Z</time>
      </trkpt>
      <trkpt lat="44.42602" lon="5.92888">
        <ele>817.8</ele>
        <time>2012-03-04T09:20:15Z</time>
      </trkpt>
      <trkpt lat="44.42604" lon="5.9288">
        <ele>818.4</ele>
        <time>2012-03-04T09:20:18Z</time>
      </trkpt>
      <trkpt lat="44.42605" lon="5.92872">
        <ele>819.8</ele>
        <time>2012-03-04T09:20:21Z</time>
      </trkpt>
      <trkpt lat="44.42607" lon="5.92864">
        <ele>819.5</ele>
        <time>2012-03-04T09:20:24Z</time>
      </trkpt>
      <trkpt lat="44.42608" lon="5.92856">
        <ele>820.4</ele>
        <time>2012-03-04T09:20:27Z</time>
      </trkpt>
      <trkpt lat="44.42609" lon="5.92848">
        <ele>822.3</ele>
        <time>2012-03-04T09:20:30Z</time>
      </trkpt>
      <trkpt lat="44.42611" lon="5.92841">
        <ele>820.9</ele>
        <time>2012-03-04T09:20:33Z</time>
      </trkpt>
      <trkpt lat="44.42612" lon="5.92834">
        <ele>821.3</ele>
        <time>2012-03-04T09:20:36Z</time>
      </trkpt>
      <trkpt lat="44.42613" lon="5.92826">
        <ele>821.3</ele>
        <time>2012-03-04T09:20:39Z</time>
      </trkpt>
      <trkpt lat="44.42614" lon="5.92819">
        <ele>821.8</ele>
        <time>2012-03-04T09:20:42Z</time>
      </trkpt>
      <trkpt lat="44.42616" lon="5.92812">
        <ele>821.5</ele>
        <time>2012-03-04T09:20:45Z</time>
      </trkpt>
      <trkpt lat="44.42615" lon="5.92806">
        <ele>820.8</ele>
        <time>2012-03-04T09:22:20Z</time>
      </trkpt>
      <trkpt lat="44.42616" lon="5.92798">
        <ele>821</ele>
        <time>2012-03-04T09:22:23Z</time>
      </trkpt>
      <trkpt lat="44.42616" lon="5.9279">
        <ele>821.1</ele>
        <time>2012-03-04T09:22:26Z</time>
      </trkpt>
      <trkpt lat="44.42617" lon="5.92783">
        <ele>821.2</ele>
        <time>2012-03-04T09:22:29Z</time>
      </trkpt>
      <trkpt lat="44.42618" lon="5.92776">
        <ele>820.7</ele>
        <time>2012-03-04T09:22:32Z</time>
      </trkpt>
      <trkpt lat="44.42619" lon="5.92769">
        <ele>821.2</ele>
        <time>2012-03-04T09:22:35Z</time>
      </trkpt>
      <trkpt lat="44.4262" lon="5.92762">
        <ele>821.7</ele>
        <time>2012-03-04T09:22:38Z</time>
      </trkpt>
      <trkpt lat="44.4262" lon="5.92755">
        <ele>822.3</ele>
        <time>2012-03-04T09:22:41Z</time>
      </trkpt>
      <trkpt lat="44.42621" lon="5.92748">
        <ele>822.9</ele>
        <time>2012-03-04T09:22:44Z</time>
      </trkpt>
      <trkpt lat="44.42621" lon="5.9274">
        <ele>824.8</ele>
        <time>2012-03-04T09:22:48Z</time>
      </trkpt>
      <trkpt lat="44.4262" lon="5.92732">
        <ele>826.1</ele>
        <time>2012-03-04T09:22:52Z</time>
      </trkpt>
      <trkpt lat="44.4262" lon="5.92726">
        <ele>826</ele>
        <time>2012-03-04T09:22:56Z</time>
      </trkpt>
      <trkpt lat="44.4262" lon="5.92719">
        <ele>826.6</ele>
        <time>2012-03-04T09:23:00Z</time>
      </trkpt>
      <trkpt lat="44.42622" lon="5.92712">
        <ele>828</ele>
        <time>2012-03-04T09:23:04Z</time>
      </trkpt>
      <trkpt lat="44.42624" lon="5.92705">
        <ele>826.7</ele>
        <time>2012-03-04T09:23:09Z</time>
      </trkpt>
      <trkpt lat="44.42624" lon="5.92698">
        <ele>827.4</ele>
        <time>2012-03-04T09:23:13Z</time>
      </trkpt>
      <trkpt lat="44.42625" lon="5.9269">
        <ele>828</ele>
        <time>2012-03-04T09:23:17Z</time>
      </trkpt>
      <trkpt lat="44.42625" lon="5.92682">
        <ele>827.8</ele>
        <time>2012-03-04T09:23:21Z</time>
      </trkpt>
      <trkpt lat="44.42625" lon="5.92674">
        <ele>828.2</ele>
        <time>2012-03-04T09:23:25Z</time>
      </trkpt>
      <trkpt lat="44.42626" lon="5.92667">
        <ele>828.8</ele>
        <time>2012-03-04T09:23:29Z</time>
      </trkpt>
      <trkpt lat="44.42626" lon="5.9266">
        <ele>829.1</ele>
        <time>2012-03-04T09:23:33Z</time>
      </trkpt>
      <trkpt lat="44.42627" lon="5.92653">
        <ele>829.6</ele>
        <time>2012-03-04T09:23:37Z</time>
      </trkpt>
      <trkpt lat="44.42626" lon="5.92646">
        <ele>830.5</ele>
        <time>2012-03-04T09:23:41Z</time>
      </trkpt>
      <trkpt lat="44.42626" lon="5.9264">
        <ele>831.9</ele>
        <time>2012-03-04T09:23:45Z</time>
      </trkpt>
      <trkpt lat="44.42627" lon="5.92633">
        <ele>834.3</ele>
        <time>2012-03-04T09:23:49Z</time>
      </trkpt>
      <trkpt lat="44.42626" lon="5.92626">
        <ele>836.6</ele>
        <time>2012-03-04T09:23:53Z</time>
      </trkpt>
      <trkpt lat="44.42626" lon="5.92618">
        <ele>837.3</ele>
        <time>2012-03-04T09:23:58Z</time>
      </trkpt>
      <trkpt lat="44.42626" lon="5.92611">
        <ele>840.3</ele>
        <time>2012-03-04T09:24:02Z</time>
      </trkpt>
      <trkpt lat="44.42623" lon="5.92605">
        <ele>842.1</ele>
        <time>2012-03-04T09:24:06Z</time>
      </trkpt>
      <trkpt lat="44.42622" lon="5.92598">
        <ele>842.3</ele>
        <time>2012-03-04T09:24:11Z</time>
      </trkpt>
      <trkpt lat="44.42621" lon="5.92591">
        <ele>843.3</ele>
        <time>2012-03-04T09:24:16Z</time>
      </trkpt>
      <trkpt lat="44.42622" lon="5.92584">
        <ele>844.9</ele>
        <time>2012-03-04T09:24:21Z</time>
      </trkpt>
      <trkpt lat="44.42622" lon="5.92577">
        <ele>846.1</ele>
        <time>2012-03-04T09:24:26Z</time>
      </trkpt>
      <trkpt lat="44.42621" lon="5.9257">
        <ele>847.4</ele>
        <time>2012-03-04T09:24:31Z</time>
      </trkpt>
      <trkpt lat="44.42621" lon="5.92562">
        <ele>848.1</ele>
        <time>2012-03-04T09:24:36Z</time>
      </trkpt>
      <trkpt lat="44.4262" lon="5.92556">
        <ele>848.5</ele>
        <time>2012-03-04T09:24:40Z</time>
      </trkpt>
      <trkpt lat="44.42621" lon="5.92549">
        <ele>850.6</ele>
        <time>2012-03-04T09:24:44Z</time>
      </trkpt>
      <trkpt lat="44.42622" lon="5.92543">
        <ele>850.1</ele>
        <time>2012-03-04T09:24:48Z</time>
      </trkpt>
      <trkpt lat="44.42623" lon="5.92536">
        <ele>849.9</ele>
        <time>2012-03-04T09:24:52Z</time>
      </trkpt>
      <trkpt lat="44.42623" lon="5.9253">
        <ele>851.3</ele>
        <time>2012-03-04T09:24:56Z</time>
      </trkpt>
      <trkpt lat="44.42623" lon="5.92523">
        <ele>851.9</ele>
        <time>2012-03-04T09:25:00Z</time>
      </trkpt>
      <trkpt lat="44.42623" lon="5.92516">
        <ele>852.1</ele>
        <time>2012-03-04T09:25:04Z</time>
      </trkpt>
      <trkpt lat="44.42623" lon="5.92509">
        <ele>852.6</ele>
        <time>2012-03-04T09:25:08Z</time>
      </trkpt>
      <trkpt lat="44.42624" lon="5.92503">
        <ele>854</ele>
        <time>2012-03-04T09:25:20Z</time>
      </trkpt>
      <trkpt lat="44.42624" lon="5.92496">
        <ele>854.3</ele>
        <time>2012-03-04T09:25:28Z</time>
      </trkpt>
      <trkpt lat="44.42625" lon="5.92489">
        <ele>854</ele>
        <time>2012-03-04T09:25:32Z</time>
      </trkpt>
      <trkpt lat="44.42626" lon="5.92482">
        <ele>854.2</ele>
        <time>2012-03-04T09:25:36Z</time>
      </trkpt>
      <trkpt lat="44.42629" lon="5.92476">
        <ele>854.1</ele>
        <time>2012-03-04T09:25:40Z</time>
      </trkpt>
      <trkpt lat="44.42632" lon="5.9247">
        <ele>854.1</ele>
        <time>2012-03-04T09:25:44Z</time>
      </trkpt>
      <trkpt lat="44.42634" lon="5.92463">
        <ele>852.9</ele>
        <time>2012-03-04T09:25:48Z</time>
      </trkpt>
      <trkpt lat="44.42637" lon="5.92456">
        <ele>852.9</ele>
        <time>2012-03-04T09:25:52Z</time>
      </trkpt>
      <trkpt lat="44.42639" lon="5.92449">
        <ele>853.2</ele>
        <time>2012-03-04T09:25:56Z</time>
      </trkpt>
      <trkpt lat="44.42641" lon="5.92443">
        <ele>851.7</ele>
        <time>2012-03-04T09:25:59Z</time>
      </trkpt>
      <trkpt lat="44.42643" lon="5.92436">
        <ele>851.6</ele>
        <time>2012-03-04T09:26:03Z</time>
      </trkpt>
      <trkpt lat="44.42646" lon="5.9243">
        <ele>851.8</ele>
        <time>2012-03-04T09:26:06Z</time>
      </trkpt>
      <trkpt lat="44.42648" lon="5.92423">
        <ele>852.9</ele>
        <time>2012-03-04T09:26:10Z</time>
      </trkpt>
      <trkpt lat="44.42651" lon="5.92416">
        <ele>852.8</ele>
        <time>2012-03-04T09:26:14Z</time>
      </trkpt>
      <trkpt lat="44.42652" lon="5.92409">
        <ele>853.8</ele>
        <time>2012-03-04T09:26:18Z</time>
      </trkpt>
      <trkpt lat="44.42654" lon="5.92402">
        <ele>854.8</ele>
        <time>2012-03-04T09:26:22Z</time>
      </trkpt>
      <trkpt lat="44.42656" lon="5.92396">
        <ele>856.8</ele>
        <time>2012-03-04T09:26:26Z</time>
      </trkpt>
      <trkpt lat="44.42658" lon="5.9239">
        <ele>858.5</ele>
        <time>2012-03-04T09:26:31Z</time>
      </trkpt>
      <trkpt lat="44.4266" lon="5.92383">
        <ele>859.5</ele>
        <time>2012-03-04T09:26:36Z</time>
      </trkpt>
      <trkpt lat="44.42662" lon="5.92377">
        <ele>859.2</ele>
        <time>2012-03-04T09:26:40Z</time>
      </trkpt>
      <trkpt lat="44.42663" lon="5.92371">
        <ele>859.4</ele>
        <time>2012-03-04T09:26:44Z</time>
      </trkpt>
      <trkpt lat="44.42665" lon="5.92364">
        <ele>860.4</ele>
        <time>2012-03-04T09:26:49Z</time>
      </trkpt>
      <trkpt lat="44.42666" lon="5.92357">
        <ele>860.1</ele>
        <time>2012-03-04T09:26:53Z</time>
      </trkpt>
      <trkpt lat="44.42667" lon="5.92351">
        <ele>860.6</ele>
        <time>2012-03-04T09:26:57Z</time>
      </trkpt>
      <trkpt lat="44.42668" lon="5.92344">
        <ele>859.4</ele>
        <time>2012-03-04T09:27:01Z</time>
      </trkpt>
      <trkpt lat="44.42671" lon="5.92338">
        <ele>859</ele>
        <time>2012-03-04T09:27:06Z</time>
      </trkpt>
      <trkpt lat="44.42672" lon="5.92331">
        <ele>859</ele>
        <time>2012-03-04T09:27:10Z</time>
      </trkpt>
      <trkpt lat="44.42674" lon="5.92324">
        <ele>861.2</ele>
        <time>2012-03-04T09:27:14Z</time>
      </trkpt>
      <trkpt lat="44.42676" lon="5.92318">
        <ele>861.6</ele>
        <time>2012-03-04T09:27:18Z</time>
      </trkpt>
      <trkpt lat="44.42678" lon="5.9231">
        <ele>862</ele>
        <time>2012-03-04T09:27:23Z</time>
      </trkpt>
      <trkpt lat="44.42681" lon="5.92304">
        <ele>864.9</ele>
        <time>2012-03-04T09:27:28Z</time>
      </trkpt>
      <trkpt lat="44.42683" lon="5.92297">
        <ele>865.7</ele>
        <time>2012-03-04T09:27:33Z</time>
      </trkpt>
      <trkpt lat="44.42684" lon="5.92289">
        <ele>864.5</ele>
        <time>2012-03-04T09:27:38Z</time>
      </trkpt>
      <trkpt lat="44.42685" lon="5.92283">
        <ele>865.5</ele>
        <time>2012-03-04T09:27:42Z</time>
      </trkpt>
      <trkpt lat="44.42688" lon="5.92276">
        <ele>865.4</ele>
        <time>2012-03-04T09:27:46Z</time>
      </trkpt>
      <trkpt lat="44.4269" lon="5.92271">
        <ele>867.8</ele>
        <time>2012-03-04T09:27:50Z</time>
      </trkpt>
      <trkpt lat="44.42694" lon="5.92266">
        <ele>868.4</ele>
        <time>2012-03-04T09:27:54Z</time>
      </trkpt>
      <trkpt lat="44.42696" lon="5.9226">
        <ele>869.7</ele>
        <time>2012-03-04T09:27:58Z</time>
      </trkpt>
      <trkpt lat="44.42698" lon="5.92254">
        <ele>870.8</ele>
        <time>2012-03-04T09:28:02Z</time>
      </trkpt>
      <trkpt lat="44.427" lon="5.92248">
        <ele>871</ele>
        <time>2012-03-04T09:28:06Z</time>
      </trkpt>
      <trkpt lat="44.42702" lon="5.92241">
        <ele>871.4</ele>
        <time>2012-03-04T09:28:11Z</time>
      </trkpt>
      <trkpt lat="44.42712" lon="5.92217">
        <ele>879.7</ele>
        <time>2012-03-04T09:28:26Z</time>
      </trkpt>
      <trkpt lat="44.42712" lon="5.9221">
        <ele>881.1</ele>
        <time>2012-03-04T09:28:29Z</time>
      </trkpt>
      <trkpt lat="44.42712" lon="5.92202">
        <ele>883.3</ele>
        <time>2012-03-04T09:28:33Z</time>
      </trkpt>
      <trkpt lat="44.42714" lon="5.92196">
        <ele>885</ele>
        <time>2012-03-04T09:28:38Z</time>
      </trkpt>
      <trkpt lat="44.42718" lon="5.92191">
        <ele>885.3</ele>
        <time>2012-03-04T09:28:43Z</time>
      </trkpt>
      <trkpt lat="44.4272" lon="5.92185">
        <ele>887.6</ele>
        <time>2012-03-04T09:28:47Z</time>
      </trkpt>
      <trkpt lat="44.42722" lon="5.92178">
        <ele>889.5</ele>
        <time>2012-03-04T09:28:52Z</time>
      </trkpt>
      <trkpt lat="44.42724" lon="5.92172">
        <ele>891.5</ele>
        <time>2012-03-04T09:28:56Z</time>
      </trkpt>
      <trkpt lat="44.42726" lon="5.92167">
        <ele>892</ele>
        <time>2012-03-04T09:29:00Z</time>
      </trkpt>
      <trkpt lat="44.42729" lon="5.92161">
        <ele>893.8</ele>
        <time>2012-03-04T09:29:04Z</time>
      </trkpt>
      <trkpt lat="44.42732" lon="5.92156">
        <ele>894.4</ele>
        <time>2012-03-04T09:29:08Z</time>
      </trkpt>
      <trkpt lat="44.42735" lon="5.9215">
        <ele>894.8</ele>
        <time>2012-03-04T09:29:12Z</time>
      </trkpt>
      <trkpt lat="44.42738" lon="5.92144">
        <ele>893.8</ele>
        <time>2012-03-04T09:29:17Z</time>
      </trkpt>
      <trkpt lat="44.42741" lon="5.92138">
        <ele>894.1</ele>
        <time>2012-03-04T09:29:21Z</time>
      </trkpt>
      <trkpt lat="44.42743" lon="5.92132">
        <ele>895.1</ele>
        <time>2012-03-04T09:29:25Z</time>
      </trkpt>
      <trkpt lat="44.42745" lon="5.92125">
        <ele>893.6</ele>
        <time>2012-03-04T09:29:29Z</time>
      </trkpt>
      <trkpt lat="44.42747" lon="5.92119">
        <ele>893.9</ele>
        <time>2012-03-04T09:29:33Z</time>
      </trkpt>
      <trkpt lat="44.4275" lon="5.92113">
        <ele>895.1</ele>
        <time>2012-03-04T09:29:37Z</time>
      </trkpt>
      <trkpt lat="44.42751" lon="5.92107">
        <ele>896.8</ele>
        <time>2012-03-04T09:29:41Z</time>
      </trkpt>
      <trkpt lat="44.42752" lon="5.92101">
        <ele>897.3</ele>
        <time>2012-03-04T09:29:45Z</time>
      </trkpt>
      <trkpt lat="44.42755" lon="5.92094">
        <ele>896</ele>
        <time>2012-03-04T09:29:49Z</time>
      </trkpt>
      <trkpt lat="44.42756" lon="5.92088">
        <ele>895.8</ele>
        <time>2012-03-04T09:29:53Z</time>
      </trkpt>
      <trkpt lat="44.42757" lon="5.92081">
        <ele>896.1</ele>
        <time>2012-03-04T09:29:57Z</time>
      </trkpt>
      <trkpt lat="44.42759" lon="5.92075">
        <ele>895.5</ele>
        <time>2012-03-04T09:30:02Z</time>
      </trkpt>
      <trkpt lat="44.42762" lon="5.92069">
        <ele>896.4</ele>
        <time>2012-03-04T09:30:06Z</time>
      </trkpt>
      <trkpt lat="44.42766" lon="5.92065">
        <ele>896.8</ele>
        <time>2012-03-04T09:30:09Z</time>
      </trkpt>
      <trkpt lat="44.4277" lon="5.92062">
        <ele>898</ele>
        <time>2012-03-04T09:30:13Z</time>
      </trkpt>
      <trkpt lat="44.42775" lon="5.92058">
        <ele>899.9</ele>
        <time>2012-03-04T09:30:17Z</time>
      </trkpt>
      <trkpt lat="44.42779" lon="5.92053">
        <ele>900.4</ele>
        <time>2012-03-04T09:30:20Z</time>
      </trkpt>
      <trkpt lat="44.42781" lon="5.92048">
        <ele>901.7</ele>
        <time>2012-03-04T09:30:23Z</time>
      </trkpt>
      <trkpt lat="44.42784" lon="5.92042">
        <ele>902.6</ele>
        <time>2012-03-04T09:30:26Z</time>
      </trkpt>
      <trkpt lat="44.42787" lon="5.92036">
        <ele>903.7</ele>
        <time>2012-03-04T09:30:30Z</time>
      </trkpt>
      <trkpt lat="44.4279" lon="5.9203">
        <ele>902.4</ele>
        <time>2012-03-04T09:30:34Z</time>
      </trkpt>
      <trkpt lat="44.42793" lon="5.92023">
        <ele>904.6</ele>
        <time>2012-03-04T09:30:38Z</time>
      </trkpt>
      <trkpt lat="44.42796" lon="5.92016">
        <ele>903.3</ele>
        <time>2012-03-04T09:30:42Z</time>
      </trkpt>
      <trkpt lat="44.42797" lon="5.92009">
        <ele>902.9</ele>
        <time>2012-03-04T09:30:46Z</time>
      </trkpt>
      <trkpt lat="44.428" lon="5.92003">
        <ele>902.9</ele>
        <time>2012-03-04T09:30:50Z</time>
      </trkpt>
      <trkpt lat="44.42802" lon="5.91996">
        <ele>904.3</ele>
        <time>2012-03-04T09:30:54Z</time>
      </trkpt>
      <trkpt lat="44.42804" lon="5.91989">
        <ele>905.3</ele>
        <time>2012-03-04T09:30:58Z</time>
      </trkpt>
      <trkpt lat="44.42807" lon="5.91982">
        <ele>907</ele>
        <time>2012-03-04T09:31:02Z</time>
      </trkpt>
      <trkpt lat="44.42811" lon="5.91976">
        <ele>907.8</ele>
        <time>2012-03-04T09:31:06Z</time>
      </trkpt>
      <trkpt lat="44.42816" lon="5.91972">
        <ele>908</ele>
        <time>2012-03-04T09:31:10Z</time>
      </trkpt>
      <trkpt lat="44.4282" lon="5.91966">
        <ele>907.5</ele>
        <time>2012-03-04T09:31:14Z</time>
      </trkpt>
      <trkpt lat="44.42821" lon="5.91959">
        <ele>908.4</ele>
        <time>2012-03-04T09:31:18Z</time>
      </trkpt>
      <trkpt lat="44.42817" lon="5.91953">
        <ele>909.5</ele>
        <time>2012-03-04T09:31:22Z</time>
      </trkpt>
      <trkpt lat="44.42812" lon="5.91951">
        <ele>910.8</ele>
        <time>2012-03-04T09:31:26Z</time>
      </trkpt>
      <trkpt lat="44.42807" lon="5.91953">
        <ele>909.8</ele>
        <time>2012-03-04T09:31:29Z</time>
      </trkpt>
      <trkpt lat="44.42802" lon="5.91958">
        <ele>911</ele>
        <time>2012-03-04T09:31:33Z</time>
      </trkpt>
      <trkpt lat="44.428" lon="5.91963">
        <ele>912</ele>
        <time>2012-03-04T09:31:36Z</time>
      </trkpt>
      <trkpt lat="44.42797" lon="5.91968">
        <ele>912.9</ele>
        <time>2012-03-04T09:31:39Z</time>
      </trkpt>
      <trkpt lat="44.42793" lon="5.91973">
        <ele>915.5</ele>
        <time>2012-03-04T09:31:43Z</time>
      </trkpt>
      <trkpt lat="44.42789" lon="5.91977">
        <ele>916.9</ele>
        <time>2012-03-04T09:31:47Z</time>
      </trkpt>
      <trkpt lat="44.42786" lon="5.91982">
        <ele>914.9</ele>
        <time>2012-03-04T09:31:50Z</time>
      </trkpt>
      <trkpt lat="44.42782" lon="5.91988">
        <ele>915.2</ele>
        <time>2012-03-04T09:31:54Z</time>
      </trkpt>
      <trkpt lat="44.42778" lon="5.91994">
        <ele>914.9</ele>
        <time>2012-03-04T09:31:58Z</time>
      </trkpt>
      <trkpt lat="44.42773" lon="5.91999">
        <ele>916.4</ele>
        <time>2012-03-04T09:32:02Z</time>
      </trkpt>
      <trkpt lat="44.42768" lon="5.92004">
        <ele>917.2</ele>
        <time>2012-03-04T09:32:06Z</time>
      </trkpt>
      <trkpt lat="44.42765" lon="5.9201">
        <ele>916.5</ele>
        <time>2012-03-04T09:32:09Z</time>
      </trkpt>
      <trkpt lat="44.42762" lon="5.92016">
        <ele>916.4</ele>
        <time>2012-03-04T09:32:12Z</time>
      </trkpt>
      <trkpt lat="44.42756" lon="5.9202">
        <ele>919.2</ele>
        <time>2012-03-04T09:32:15Z</time>
      </trkpt>
      <trkpt lat="44.42752" lon="5.92022">
        <ele>919.6</ele>
        <time>2012-03-04T09:32:18Z</time>
      </trkpt>
      <trkpt lat="44.42747" lon="5.92024">
        <ele>920.8</ele>
        <time>2012-03-04T09:32:21Z</time>
      </trkpt>
      <trkpt lat="44.42743" lon="5.92028">
        <ele>919.5</ele>
        <time>2012-03-04T09:32:24Z</time>
      </trkpt>
      <trkpt lat="44.42739" lon="5.92032">
        <ele>921.2</ele>
        <time>2012-03-04T09:32:27Z</time>
      </trkpt>
      <trkpt lat="44.42734" lon="5.92034">
        <ele>920.6</ele>
        <time>2012-03-04T09:32:31Z</time>
      </trkpt>
      <trkpt lat="44.42729" lon="5.92037">
        <ele>920.4</ele>
        <time>2012-03-04T09:32:35Z</time>
      </trkpt>
      <trkpt lat="44.42725" lon="5.92042">
        <ele>924.7</ele>
        <time>2012-03-04T09:32:38Z</time>
      </trkpt>
      <trkpt lat="44.4272" lon="5.92046">
        <ele>923.9</ele>
        <time>2012-03-04T09:32:42Z</time>
      </trkpt>
      <trkpt lat="44.42716" lon="5.92048">
        <ele>924.6</ele>
        <time>2012-03-04T09:32:46Z</time>
      </trkpt>
      <trkpt lat="44.42712" lon="5.92051">
        <ele>925.2</ele>
        <time>2012-03-04T09:32:50Z</time>
      </trkpt>
      <trkpt lat="44.42708" lon="5.92056">
        <ele>926.3</ele>
        <time>2012-03-04T09:32:55Z</time>
      </trkpt>
      <trkpt lat="44.42704" lon="5.92062">
        <ele>925.3</ele>
        <time>2012-03-04T09:33:00Z</time>
      </trkpt>
      <trkpt lat="44.427" lon="5.92067">
        <ele>926.9</ele>
        <time>2012-03-04T09:33:05Z</time>
      </trkpt>
      <trkpt lat="44.42696" lon="5.92072">
        <ele>928.7</ele>
        <time>2012-03-04T09:33:09Z</time>
      </trkpt>
      <trkpt lat="44.42693" lon="5.92076">
        <ele>928.2</ele>
        <time>2012-03-04T09:33:13Z</time>
      </trkpt>
      <trkpt lat="44.42689" lon="5.92082">
        <ele>928.7</ele>
        <time>2012-03-04T09:33:17Z</time>
      </trkpt>
      <trkpt lat="44.42686" lon="5.92087">
        <ele>931.1</ele>
        <time>2012-03-04T09:33:21Z</time>
      </trkpt>
      <trkpt lat="44.42682" lon="5.92093">
        <ele>929.6</ele>
        <time>2012-03-04T09:33:25Z</time>
      </trkpt>
      <trkpt lat="44.42678" lon="5.92099">
        <ele>930.1</ele>
        <time>2012-03-04T09:33:29Z</time>
      </trkpt>
      <trkpt lat="44.42674" lon="5.92103">
        <ele>930.5</ele>
        <time>2012-03-04T09:33:33Z</time>
      </trkpt>
      <trkpt lat="44.4267" lon="5.92108">
        <ele>931.5</ele>
        <time>2012-03-04T09:33:37Z</time>
      </trkpt>
      <trkpt lat="44.42666" lon="5.92112">
        <ele>931.2</ele>
        <time>2012-03-04T09:33:41Z</time>
      </trkpt>
      <trkpt lat="44.42662" lon="5.92117">
        <ele>930.5</ele>
        <time>2012-03-04T09:33:45Z</time>
      </trkpt>
      <trkpt lat="44.42658" lon="5.92122">
        <ele>931.1</ele>
        <time>2012-03-04T09:33:49Z</time>
      </trkpt>
      <trkpt lat="44.42655" lon="5.92126">
        <ele>931.4</ele>
        <time>2012-03-04T09:33:53Z</time>
      </trkpt>
      <trkpt lat="44.42651" lon="5.92132">
        <ele>931.5</ele>
        <time>2012-03-04T09:33:57Z</time>
      </trkpt>
      <trkpt lat="44.42647" lon="5.92137">
        <ele>932.5</ele>
        <time>2012-03-04T09:34:01Z</time>
      </trkpt>
      <trkpt lat="44.42643" lon="5.92141">
        <ele>932.7</ele>
        <time>2012-03-04T09:34:05Z</time>
      </trkpt>
      <trkpt lat="44.42639" lon="5.92145">
        <ele>933.8</ele>
        <time>2012-03-04T09:34:10Z</time>
      </trkpt>
      <trkpt lat="44.42634" lon="5.92148">
        <ele>935.9</ele>
        <time>2012-03-04T09:34:14Z</time>
      </trkpt>
      <trkpt lat="44.4263" lon="5.92151">
        <ele>936.1</ele>
        <time>2012-03-04T09:34:18Z</time>
      </trkpt>
      <trkpt lat="44.42626" lon="5.92157">
        <ele>935.4</ele>
        <time>2012-03-04T09:34:22Z</time>
      </trkpt>
      <trkpt lat="44.42622" lon="5.92162">
        <ele>935.5</ele>
        <time>2012-03-04T09:34:26Z</time>
      </trkpt>
      <trkpt lat="44.42618" lon="5.92166">
        <ele>936.8</ele>
        <time>2012-03-04T09:34:30Z</time>
      </trkpt>
      <trkpt lat="44.42613" lon="5.9217">
        <ele>936.7</ele>
        <time>2012-03-04T09:34:34Z</time>
      </trkpt>
      <trkpt lat="44.4261" lon="5.92176">
        <ele>939.6</ele>
        <time>2012-03-04T09:34:38Z</time>
      </trkpt>
      <trkpt lat="44.42607" lon="5.92181">
        <ele>941.7</ele>
        <time>2012-03-04T09:34:42Z</time>
      </trkpt>
      <trkpt lat="44.42603" lon="5.92186">
        <ele>941.7</ele>
        <time>2012-03-04T09:34:45Z</time>
      </trkpt>
      <trkpt lat="44.42599" lon="5.92191">
        <ele>940.8</ele>
        <time>2012-03-04T09:34:48Z</time>
      </trkpt>
      <trkpt lat="44.42595" lon="5.92196">
        <ele>941.3</ele>
        <time>2012-03-04T09:34:52Z</time>
      </trkpt>
      <trkpt lat="44.4259" lon="5.92199">
        <ele>940.5</ele>
        <time>2012-03-04T09:34:56Z</time>
      </trkpt>
      <trkpt lat="44.42585" lon="5.92201">
        <ele>940.8</ele>
        <time>2012-03-04T09:35:01Z</time>
      </trkpt>
      <trkpt lat="44.42581" lon="5.92197">
        <ele>942.1</ele>
        <time>2012-03-04T09:35:17Z</time>
      </trkpt>
      <trkpt lat="44.42585" lon="5.922">
        <ele>927.3</ele>
        <time>2012-03-04T09:36:12Z</time>
      </trkpt>
      <trkpt lat="44.42582" lon="5.92194">
        <ele>936.2</ele>
        <time>2012-03-04T09:36:53Z</time>
      </trkpt>
      <trkpt lat="44.42579" lon="5.92188">
        <ele>940.5</ele>
        <time>2012-03-04T09:36:58Z</time>
      </trkpt>
      <trkpt lat="44.4258" lon="5.92179">
        <ele>940.4</ele>
        <time>2012-03-04T09:37:03Z</time>
      </trkpt>
      <trkpt lat="44.42582" lon="5.92174">
        <ele>939.7</ele>
        <time>2012-03-04T09:37:07Z</time>
      </trkpt>
      <trkpt lat="44.42586" lon="5.9217">
        <ele>940.5</ele>
        <time>2012-03-04T09:37:12Z</time>
      </trkpt>
      <trkpt lat="44.4259" lon="5.92165">
        <ele>939.2</ele>
        <time>2012-03-04T09:37:15Z</time>
      </trkpt>
      <trkpt lat="44.42596" lon="5.92159">
        <ele>938.8</ele>
        <time>2012-03-04T09:37:18Z</time>
      </trkpt>
      <trkpt lat="44.42602" lon="5.92152">
        <ele>938</ele>
        <time>2012-03-04T09:37:21Z</time>
      </trkpt>
      <trkpt lat="44.42605" lon="5.92148">
        <ele>938.1</ele>
        <time>2012-03-04T09:37:23Z</time>
      </trkpt>
      <trkpt lat="44.42608" lon="5.92141">
        <ele>939.4</ele>
        <time>2012-03-04T09:37:26Z</time>
      </trkpt>
      <trkpt lat="44.42611" lon="5.92134">
        <ele>940.3</ele>
        <time>2012-03-04T09:37:31Z</time>
      </trkpt>
      <trkpt lat="44.42613" lon="5.9214">
        <ele>942.9</ele>
        <time>2012-03-04T09:37:41Z</time>
      </trkpt>
      <trkpt lat="44.42618" lon="5.92135">
        <ele>943.6</ele>
        <time>2012-03-04T09:37:46Z</time>
      </trkpt>
      <trkpt lat="44.4262" lon="5.92128">
        <ele>945.2</ele>
        <time>2012-03-04T09:37:49Z</time>
      </trkpt>
      <trkpt lat="44.42622" lon="5.92122">
        <ele>954.1</ele>
        <time>2012-03-04T09:37:53Z</time>
      </trkpt>
      <trkpt lat="44.42625" lon="5.92115">
        <ele>952.8</ele>
        <time>2012-03-04T09:37:58Z</time>
      </trkpt>
      <trkpt lat="44.42627" lon="5.92109">
        <ele>950</ele>
        <time>2012-03-04T09:38:01Z</time>
      </trkpt>
      <trkpt lat="44.42629" lon="5.921">
        <ele>951.5</ele>
        <time>2012-03-04T09:38:04Z</time>
      </trkpt>
      <trkpt lat="44.42632" lon="5.92095">
        <ele>959.6</ele>
        <time>2012-03-04T09:38:16Z</time>
      </trkpt>
      <trkpt lat="44.42634" lon="5.92088">
        <ele>959.5</ele>
        <time>2012-03-04T09:38:18Z</time>
      </trkpt>
      <trkpt lat="44.42639" lon="5.9208">
        <ele>963.4</ele>
        <time>2012-03-04T09:38:23Z</time>
      </trkpt>
      <trkpt lat="44.42643" lon="5.92072">
        <ele>964.3</ele>
        <time>2012-03-04T09:38:27Z</time>
      </trkpt>
      <trkpt lat="44.42644" lon="5.92065">
        <ele>963.6</ele>
        <time>2012-03-04T09:38:30Z</time>
      </trkpt>
      <trkpt lat="44.42645" lon="5.92058">
        <ele>963.9</ele>
        <time>2012-03-04T09:38:33Z</time>
      </trkpt>
      <trkpt lat="44.42646" lon="5.92052">
        <ele>956.6</ele>
        <time>2012-03-04T09:38:36Z</time>
      </trkpt>
      <trkpt lat="44.42647" lon="5.92044">
        <ele>956</ele>
        <time>2012-03-04T09:38:39Z</time>
      </trkpt>
      <trkpt lat="44.42648" lon="5.92038">
        <ele>956</ele>
        <time>2012-03-04T09:38:43Z</time>
      </trkpt>
      <trkpt lat="44.42651" lon="5.92031">
        <ele>955.5</ele>
        <time>2012-03-04T09:38:46Z</time>
      </trkpt>
      <trkpt lat="44.42654" lon="5.92024">
        <ele>956.7</ele>
        <time>2012-03-04T09:38:49Z</time>
      </trkpt>
      <trkpt lat="44.42655" lon="5.92017">
        <ele>956.7</ele>
        <time>2012-03-04T09:38:52Z</time>
      </trkpt>
      <trkpt lat="44.42654" lon="5.9201">
        <ele>956.7</ele>
        <time>2012-03-04T09:38:59Z</time>
      </trkpt>
      <trkpt lat="44.42656" lon="5.92003">
        <ele>961.6</ele>
        <time>2012-03-04T09:39:04Z</time>
      </trkpt>
      <trkpt lat="44.42658" lon="5.91996">
        <ele>963</ele>
        <time>2012-03-04T09:39:08Z</time>
      </trkpt>
      <trkpt lat="44.42661" lon="5.91991">
        <ele>967</ele>
        <time>2012-03-04T09:39:13Z</time>
      </trkpt>
      <trkpt lat="44.42666" lon="5.9199">
        <ele>968.5</ele>
        <time>2012-03-04T09:39:17Z</time>
      </trkpt>
      <trkpt lat="44.42667" lon="5.9198">
        <ele>970.2</ele>
        <time>2012-03-04T09:39:21Z</time>
      </trkpt>
      <trkpt lat="44.4267" lon="5.91974">
        <ele>969.2</ele>
        <time>2012-03-04T09:39:24Z</time>
      </trkpt>
      <trkpt lat="44.42673" lon="5.91969">
        <ele>970.2</ele>
        <time>2012-03-04T09:39:34Z</time>
      </trkpt>
      <trkpt lat="44.42675" lon="5.91962">
        <ele>967.2</ele>
        <time>2012-03-04T09:39:37Z</time>
      </trkpt>
      <trkpt lat="44.42677" lon="5.91953">
        <ele>968.4</ele>
        <time>2012-03-04T09:39:40Z</time>
      </trkpt>
      <trkpt lat="44.4268" lon="5.91945">
        <ele>968.7</ele>
        <time>2012-03-04T09:39:43Z</time>
      </trkpt>
      <trkpt lat="44.42682" lon="5.91938">
        <ele>968.9</ele>
        <time>2012-03-04T09:39:46Z</time>
      </trkpt>
      <trkpt lat="44.42684" lon="5.91932">
        <ele>969.4</ele>
        <time>2012-03-04T09:39:49Z</time>
      </trkpt>
      <trkpt lat="44.42686" lon="5.91927">
        <ele>973.1</ele>
        <time>2012-03-04T09:39:56Z</time>
      </trkpt>
      <trkpt lat="44.42689" lon="5.91922">
        <ele>974.1</ele>
        <time>2012-03-04T09:39:59Z</time>
      </trkpt>
      <trkpt lat="44.42693" lon="5.91915">
        <ele>974.2</ele>
        <time>2012-03-04T09:40:02Z</time>
      </trkpt>
      <trkpt lat="44.42696" lon="5.91908">
        <ele>974.1</ele>
        <time>2012-03-04T09:40:05Z</time>
      </trkpt>
      <trkpt lat="44.42701" lon="5.91903">
        <ele>970.5</ele>
        <time>2012-03-04T09:40:09Z</time>
      </trkpt>
      <trkpt lat="44.42705" lon="5.91898">
        <ele>970.6</ele>
        <time>2012-03-04T09:40:13Z</time>
      </trkpt>
      <trkpt lat="44.42707" lon="5.9189">
        <ele>969</ele>
        <time>2012-03-04T09:40:16Z</time>
      </trkpt>
      <trkpt lat="44.42709" lon="5.91885">
        <ele>969.5</ele>
        <time>2012-03-04T09:40:19Z</time>
      </trkpt>
      <trkpt lat="44.42712" lon="5.91879">
        <ele>971.2</ele>
        <time>2012-03-04T09:40:22Z</time>
      </trkpt>
      <trkpt lat="44.42707" lon="5.91875">
        <ele>972</ele>
        <time>2012-03-04T09:40:26Z</time>
      </trkpt>
      <trkpt lat="44.42703" lon="5.91875">
        <ele>973.5</ele>
        <time>2012-03-04T09:40:30Z</time>
      </trkpt>
      <trkpt lat="44.42699" lon="5.9188">
        <ele>972.9</ele>
        <time>2012-03-04T09:40:36Z</time>
      </trkpt>
      <trkpt lat="44.42696" lon="5.91887">
        <ele>976.7</ele>
        <time>2012-03-04T09:40:39Z</time>
      </trkpt>
      <trkpt lat="44.42692" lon="5.91893">
        <ele>978.8</ele>
        <time>2012-03-04T09:40:42Z</time>
      </trkpt>
      <trkpt lat="44.42689" lon="5.91897">
        <ele>979</ele>
        <time>2012-03-04T09:40:45Z</time>
      </trkpt>
      <trkpt lat="44.42686" lon="5.91902">
        <ele>982.5</ele>
        <time>2012-03-04T09:40:48Z</time>
      </trkpt>
      <trkpt lat="44.42683" lon="5.91907">
        <ele>981.9</ele>
        <time>2012-03-04T09:40:51Z</time>
      </trkpt>
      <trkpt lat="44.42678" lon="5.91908">
        <ele>978.7</ele>
        <time>2012-03-04T09:40:57Z</time>
      </trkpt>
      <trkpt lat="44.42675" lon="5.91914">
        <ele>982.9</ele>
        <time>2012-03-04T09:41:03Z</time>
      </trkpt>
      <trkpt lat="44.42672" lon="5.91919">
        <ele>986.5</ele>
        <time>2012-03-04T09:41:06Z</time>
      </trkpt>
      <trkpt lat="44.42673" lon="5.91926">
        <ele>988.3</ele>
        <time>2012-03-04T09:41:12Z</time>
      </trkpt>
      <trkpt lat="44.4267" lon="5.91933">
        <ele>989.2</ele>
        <time>2012-03-04T09:41:17Z</time>
      </trkpt>
      <trkpt lat="44.42664" lon="5.91939">
        <ele>994.1</ele>
        <time>2012-03-04T09:41:20Z</time>
      </trkpt>
      <trkpt lat="44.4266" lon="5.91942">
        <ele>995.2</ele>
        <time>2012-03-04T09:41:23Z</time>
      </trkpt>
      <trkpt lat="44.42656" lon="5.91948">
        <ele>997.2</ele>
        <time>2012-03-04T09:41:27Z</time>
      </trkpt>
      <trkpt lat="44.42653" lon="5.91954">
        <ele>998.1</ele>
        <time>2012-03-04T09:41:30Z</time>
      </trkpt>
      <trkpt lat="44.42649" lon="5.91958">
        <ele>996.3</ele>
        <time>2012-03-04T09:41:34Z</time>
      </trkpt>
      <trkpt lat="44.42644" lon="5.91961">
        <ele>995.9</ele>
        <time>2012-03-04T09:41:37Z</time>
      </trkpt>
      <trkpt lat="44.4264" lon="5.91966">
        <ele>996.7</ele>
        <time>2012-03-04T09:41:41Z</time>
      </trkpt>
      <trkpt lat="44.42638" lon="5.91972">
        <ele>996</ele>
        <time>2012-03-04T09:41:44Z</time>
      </trkpt>
      <trkpt lat="44.42634" lon="5.91978">
        <ele>996.5</ele>
        <time>2012-03-04T09:41:47Z</time>
      </trkpt>
      <trkpt lat="44.4263" lon="5.91984">
        <ele>995.3</ele>
        <time>2012-03-04T09:41:50Z</time>
      </trkpt>
      <trkpt lat="44.42626" lon="5.91989">
        <ele>995.6</ele>
        <time>2012-03-04T09:41:53Z</time>
      </trkpt>
      <trkpt lat="44.42624" lon="5.91995">
        <ele>994.4</ele>
        <time>2012-03-04T09:41:55Z</time>
      </trkpt>
      <trkpt lat="44.42619" lon="5.92001">
        <ele>995.1</ele>
        <time>2012-03-04T09:41:58Z</time>
      </trkpt>
      <trkpt lat="44.42618" lon="5.92008">
        <ele>1004.7</ele>
        <time>2012-03-04T09:42:01Z</time>
      </trkpt>
      <trkpt lat="44.42618" lon="5.92015">
        <ele>1006.7</ele>
        <time>2012-03-04T09:42:08Z</time>
      </trkpt>
      <trkpt lat="44.42613" lon="5.9202">
        <ele>1008.2</ele>
        <time>2012-03-04T09:42:13Z</time>
      </trkpt>
      <trkpt lat="44.42608" lon="5.92024">
        <ele>1007.7</ele>
        <time>2012-03-04T09:42:15Z</time>
      </trkpt>
      <trkpt lat="44.42605" lon="5.9203">
        <ele>1012.4</ele>
        <time>2012-03-04T09:42:19Z</time>
      </trkpt>
      <trkpt lat="44.42603" lon="5.92035">
        <ele>1022.3</ele>
        <time>2012-03-04T09:42:23Z</time>
      </trkpt>
      <trkpt lat="44.42596" lon="5.92038">
        <ele>1014.3</ele>
        <time>2012-03-04T09:42:25Z</time>
      </trkpt>
      <trkpt lat="44.42592" lon="5.92042">
        <ele>1014.4</ele>
        <time>2012-03-04T09:42:27Z</time>
      </trkpt>
      <trkpt lat="44.42588" lon="5.92047">
        <ele>1015.5</ele>
        <time>2012-03-04T09:42:32Z</time>
      </trkpt>
      <trkpt lat="44.42583" lon="5.92052">
        <ele>1017.5</ele>
        <time>2012-03-04T09:42:37Z</time>
      </trkpt>
      <trkpt lat="44.42578" lon="5.92055">
        <ele>1016.3</ele>
        <time>2012-03-04T09:42:40Z</time>
      </trkpt>
      <trkpt lat="44.42574" lon="5.9206">
        <ele>1014.7</ele>
        <time>2012-03-04T09:42:43Z</time>
      </trkpt>
      <trkpt lat="44.42569" lon="5.92066">
        <ele>1010.6</ele>
        <time>2012-03-04T09:42:46Z</time>
      </trkpt>
      <trkpt lat="44.42567" lon="5.92073">
        <ele>1009.2</ele>
        <time>2012-03-04T09:42:49Z</time>
      </trkpt>
      <trkpt lat="44.42563" lon="5.92077">
        <ele>1008</ele>
        <time>2012-03-04T09:42:54Z</time>
      </trkpt>
      <trkpt lat="44.42559" lon="5.9208">
        <ele>1008</ele>
        <time>2012-03-04T09:42:58Z</time>
      </trkpt>
      <trkpt lat="44.42556" lon="5.92087">
        <ele>1006.4</ele>
        <time>2012-03-04T09:43:02Z</time>
      </trkpt>
      <trkpt lat="44.42551" lon="5.92092">
        <ele>1013.5</ele>
        <time>2012-03-04T09:43:05Z</time>
      </trkpt>
      <trkpt lat="44.42546" lon="5.92096">
        <ele>1013.6</ele>
        <time>2012-03-04T09:43:08Z</time>
      </trkpt>
      <trkpt lat="44.42541" lon="5.92099">
        <ele>1014.6</ele>
        <time>2012-03-04T09:43:10Z</time>
      </trkpt>
      <trkpt lat="44.42537" lon="5.92102">
        <ele>1016.6</ele>
        <time>2012-03-04T09:43:12Z</time>
      </trkpt>
      <trkpt lat="44.42532" lon="5.92108">
        <ele>1016.4</ele>
        <time>2012-03-04T09:43:15Z</time>
      </trkpt>
      <trkpt lat="44.42526" lon="5.92112">
        <ele>1015.8</ele>
        <time>2012-03-04T09:43:18Z</time>
      </trkpt>
      <trkpt lat="44.4252" lon="5.92114">
        <ele>1016.6</ele>
        <time>2012-03-04T09:43:21Z</time>
      </trkpt>
      <trkpt lat="44.42516" lon="5.92116">
        <ele>1014.4</ele>
        <time>2012-03-04T09:43:24Z</time>
      </trkpt>
      <trkpt lat="44.42511" lon="5.92118">
        <ele>1013.5</ele>
        <time>2012-03-04T09:43:27Z</time>
      </trkpt>
      <trkpt lat="44.42507" lon="5.92122">
        <ele>1019.4</ele>
        <time>2012-03-04T09:43:31Z</time>
      </trkpt>
      <trkpt lat="44.42506" lon="5.9213">
        <ele>1020</ele>
        <time>2012-03-04T09:43:36Z</time>
      </trkpt>
      <trkpt lat="44.42503" lon="5.92136">
        <ele>1020.4</ele>
        <time>2012-03-04T09:43:39Z</time>
      </trkpt>
      <trkpt lat="44.42499" lon="5.92142">
        <ele>1019.8</ele>
        <time>2012-03-04T09:43:42Z</time>
      </trkpt>
      <trkpt lat="44.42495" lon="5.92148">
        <ele>1017.5</ele>
        <time>2012-03-04T09:43:45Z</time>
      </trkpt>
      <trkpt lat="44.42491" lon="5.92153">
        <ele>1017.6</ele>
        <time>2012-03-04T09:43:48Z</time>
      </trkpt>
      <trkpt lat="44.42485" lon="5.92157">
        <ele>1022.4</ele>
        <time>2012-03-04T09:43:51Z</time>
      </trkpt>
      <trkpt lat="44.42481" lon="5.92161">
        <ele>1021.6</ele>
        <time>2012-03-04T09:43:54Z</time>
      </trkpt>
      <trkpt lat="44.42477" lon="5.92168">
        <ele>1024.9</ele>
        <time>2012-03-04T09:43:57Z</time>
      </trkpt>
      <trkpt lat="44.42472" lon="5.92174">
        <ele>1025</ele>
        <time>2012-03-04T09:44:00Z</time>
      </trkpt>
      <trkpt lat="44.42467" lon="5.92177">
        <ele>1023.2</ele>
        <time>2012-03-04T09:44:03Z</time>
      </trkpt>
      <trkpt lat="44.42465" lon="5.92183">
        <ele>1018</ele>
        <time>2012-03-04T09:44:07Z</time>
      </trkpt>
      <trkpt lat="44.42462" lon="5.92188">
        <ele>1019.7</ele>
        <time>2012-03-04T09:44:12Z</time>
      </trkpt>
      <trkpt lat="44.42458" lon="5.92193">
        <ele>1020.3</ele>
        <time>2012-03-04T09:44:16Z</time>
      </trkpt>
      <trkpt lat="44.42454" lon="5.92197">
        <ele>1012.6</ele>
        <time>2012-03-04T09:44:19Z</time>
      </trkpt>
      <trkpt lat="44.42449" lon="5.92202">
        <ele>1009.8</ele>
        <time>2012-03-04T09:44:23Z</time>
      </trkpt>
      <trkpt lat="44.42444" lon="5.92206">
        <ele>1008.8</ele>
        <time>2012-03-04T09:44:27Z</time>
      </trkpt>
      <trkpt lat="44.42441" lon="5.92212">
        <ele>1010.7</ele>
        <time>2012-03-04T09:44:32Z</time>
      </trkpt>
      <trkpt lat="44.42438" lon="5.92217">
        <ele>1011.7</ele>
        <time>2012-03-04T09:44:35Z</time>
      </trkpt>
      <trkpt lat="44.42433" lon="5.92219">
        <ele>1013</ele>
        <time>2012-03-04T09:44:38Z</time>
      </trkpt>
      <trkpt lat="44.42428" lon="5.92217">
        <ele>1015.3</ele>
        <time>2012-03-04T09:44:41Z</time>
      </trkpt>
      <trkpt lat="44.42423" lon="5.92214">
        <ele>1014.1</ele>
        <time>2012-03-04T09:44:44Z</time>
      </trkpt>
      <trkpt lat="44.42419" lon="5.9221">
        <ele>1019.9</ele>
        <time>2012-03-04T09:44:47Z</time>
      </trkpt>
      <trkpt lat="44.42419" lon="5.92203">
        <ele>1019.3</ele>
        <time>2012-03-04T09:44:51Z</time>
      </trkpt>
      <trkpt lat="44.42421" lon="5.92195">
        <ele>1019.3</ele>
        <time>2012-03-04T09:44:55Z</time>
      </trkpt>
      <trkpt lat="44.4242" lon="5.92187">
        <ele>1020.3</ele>
        <time>2012-03-04T09:44:59Z</time>
      </trkpt>
      <trkpt lat="44.4242" lon="5.92181">
        <ele>1019</ele>
        <time>2012-03-04T09:45:02Z</time>
      </trkpt>
      <trkpt lat="44.42421" lon="5.92173">
        <ele>1018</ele>
        <time>2012-03-04T09:45:06Z</time>
      </trkpt>
      <trkpt lat="44.42422" lon="5.92165">
        <ele>1016.2</ele>
        <time>2012-03-04T09:45:10Z</time>
      </trkpt>
      <trkpt lat="44.42422" lon="5.92157">
        <ele>1016.3</ele>
        <time>2012-03-04T09:45:14Z</time>
      </trkpt>
      <trkpt lat="44.42423" lon="5.92149">
        <ele>1017.2</ele>
        <time>2012-03-04T09:45:18Z</time>
      </trkpt>
      <trkpt lat="44.42424" lon="5.92142">
        <ele>1017.8</ele>
        <time>2012-03-04T09:45:21Z</time>
      </trkpt>
      <trkpt lat="44.42424" lon="5.92136">
        <ele>1017.7</ele>
        <time>2012-03-04T09:45:24Z</time>
      </trkpt>
      <trkpt lat="44.42425" lon="5.92128">
        <ele>1018.6</ele>
        <time>2012-03-04T09:45:27Z</time>
      </trkpt>
      <trkpt lat="44.42425" lon="5.92122">
        <ele>1019.4</ele>
        <time>2012-03-04T09:45:30Z</time>
      </trkpt>
      <trkpt lat="44.42424" lon="5.92114">
        <ele>1026.6</ele>
        <time>2012-03-04T09:45:38Z</time>
      </trkpt>
      <trkpt lat="44.42424" lon="5.92107">
        <ele>1028.7</ele>
        <time>2012-03-04T09:45:41Z</time>
      </trkpt>
      <trkpt lat="44.42425" lon="5.92099">
        <ele>1028.8</ele>
        <time>2012-03-04T09:45:44Z</time>
      </trkpt>
      <trkpt lat="44.42425" lon="5.92092">
        <ele>1029</ele>
        <time>2012-03-04T09:45:46Z</time>
      </trkpt>
      <trkpt lat="44.42426" lon="5.92084">
        <ele>1029.5</ele>
        <time>2012-03-04T09:45:49Z</time>
      </trkpt>
      <trkpt lat="44.42426" lon="5.92076">
        <ele>1028.5</ele>
        <time>2012-03-04T09:45:52Z</time>
      </trkpt>
      <trkpt lat="44.42425" lon="5.92069">
        <ele>1028.4</ele>
        <time>2012-03-04T09:45:55Z</time>
      </trkpt>
      <trkpt lat="44.42424" lon="5.92062">
        <ele>1029.1</ele>
        <time>2012-03-04T09:45:58Z</time>
      </trkpt>
      <trkpt lat="44.42423" lon="5.92056">
        <ele>1028</ele>
        <time>2012-03-04T09:46:01Z</time>
      </trkpt>
      <trkpt lat="44.42422" lon="5.92049">
        <ele>1028.6</ele>
        <time>2012-03-04T09:46:04Z</time>
      </trkpt>
      <trkpt lat="44.42421" lon="5.92042">
        <ele>1029</ele>
        <time>2012-03-04T09:46:08Z</time>
      </trkpt>
      <trkpt lat="44.4242" lon="5.92034">
        <ele>1031.1</ele>
        <time>2012-03-04T09:46:12Z</time>
      </trkpt>
      <trkpt lat="44.42419" lon="5.92026">
        <ele>1031</ele>
        <time>2012-03-04T09:46:16Z</time>
      </trkpt>
      <trkpt lat="44.42419" lon="5.92019">
        <ele>1030.5</ele>
        <time>2012-03-04T09:46:19Z</time>
      </trkpt>
      <trkpt lat="44.42418" lon="5.92011">
        <ele>1029.4</ele>
        <time>2012-03-04T09:46:23Z</time>
      </trkpt>
      <trkpt lat="44.42418" lon="5.92004">
        <ele>1029.3</ele>
        <time>2012-03-04T09:46:27Z</time>
      </trkpt>
      <trkpt lat="44.42417" lon="5.91996">
        <ele>1033.5</ele>
        <time>2012-03-04T09:46:31Z</time>
      </trkpt>
      <trkpt lat="44.42416" lon="5.91989">
        <ele>1035</ele>
        <time>2012-03-04T09:46:36Z</time>
      </trkpt>
      <trkpt lat="44.42416" lon="5.91981">
        <ele>1035.3</ele>
        <time>2012-03-04T09:46:40Z</time>
      </trkpt>
      <trkpt lat="44.42417" lon="5.91973">
        <ele>1036.6</ele>
        <time>2012-03-04T09:46:43Z</time>
      </trkpt>
      <trkpt lat="44.42417" lon="5.91967">
        <ele>1037.4</ele>
        <time>2012-03-04T09:46:46Z</time>
      </trkpt>
      <trkpt lat="44.42416" lon="5.9196">
        <ele>1038</ele>
        <time>2012-03-04T09:46:49Z</time>
      </trkpt>
      <trkpt lat="44.42414" lon="5.91952">
        <ele>1034.8</ele>
        <time>2012-03-04T09:46:53Z</time>
      </trkpt>
      <trkpt lat="44.42412" lon="5.91945">
        <ele>1037</ele>
        <time>2012-03-04T09:46:56Z</time>
      </trkpt>
      <trkpt lat="44.42409" lon="5.9194">
        <ele>1038.1</ele>
        <time>2012-03-04T09:47:00Z</time>
      </trkpt>
      <trkpt lat="44.42406" lon="5.91934">
        <ele>1037.9</ele>
        <time>2012-03-04T09:47:04Z</time>
      </trkpt>
      <trkpt lat="44.42404" lon="5.91927">
        <ele>1037.6</ele>
        <time>2012-03-04T09:47:08Z</time>
      </trkpt>
      <trkpt lat="44.42402" lon="5.91921">
        <ele>1038.2</ele>
        <time>2012-03-04T09:47:12Z</time>
      </trkpt>
      <trkpt lat="44.424" lon="5.91916">
        <ele>1033.9</ele>
        <time>2012-03-04T09:47:16Z</time>
      </trkpt>
      <trkpt lat="44.42398" lon="5.91908">
        <ele>1035.2</ele>
        <time>2012-03-04T09:47:20Z</time>
      </trkpt>
      <trkpt lat="44.42394" lon="5.91904">
        <ele>1038.5</ele>
        <time>2012-03-04T09:47:24Z</time>
      </trkpt>
      <trkpt lat="44.42392" lon="5.91898">
        <ele>1041.5</ele>
        <time>2012-03-04T09:47:27Z</time>
      </trkpt>
      <trkpt lat="44.42392" lon="5.91891">
        <ele>1041.5</ele>
        <time>2012-03-04T09:47:30Z</time>
      </trkpt>
      <trkpt lat="44.42392" lon="5.91884">
        <ele>1042.8</ele>
        <time>2012-03-04T09:47:34Z</time>
      </trkpt>
      <trkpt lat="44.42392" lon="5.91875">
        <ele>1043.3</ele>
        <time>2012-03-04T09:47:38Z</time>
      </trkpt>
      <trkpt lat="44.4239" lon="5.91868">
        <ele>1045.5</ele>
        <time>2012-03-04T09:47:42Z</time>
      </trkpt>
      <trkpt lat="44.42387" lon="5.91862">
        <ele>1044.9</ele>
        <time>2012-03-04T09:47:45Z</time>
      </trkpt>
      <trkpt lat="44.42385" lon="5.91856">
        <ele>1046.8</ele>
        <time>2012-03-04T09:47:49Z</time>
      </trkpt>
      <trkpt lat="44.42382" lon="5.9185">
        <ele>1050.4</ele>
        <time>2012-03-04T09:47:54Z</time>
      </trkpt>
      <trkpt lat="44.42382" lon="5.91842">
        <ele>1049.8</ele>
        <time>2012-03-04T09:47:58Z</time>
      </trkpt>
      <trkpt lat="44.42382" lon="5.91835">
        <ele>1048.3</ele>
        <time>2012-03-04T09:48:01Z</time>
      </trkpt>
      <trkpt lat="44.42381" lon="5.91827">
        <ele>1048.4</ele>
        <time>2012-03-04T09:48:04Z</time>
      </trkpt>
      <trkpt lat="44.42381" lon="5.91819">
        <ele>1047.4</ele>
        <time>2012-03-04T09:48:07Z</time>
      </trkpt>
      <trkpt lat="44.42378" lon="5.91813">
        <ele>1049.1</ele>
        <time>2012-03-04T09:48:11Z</time>
      </trkpt>
      <trkpt lat="44.42377" lon="5.91804">
        <ele>1051.3</ele>
        <time>2012-03-04T09:48:15Z</time>
      </trkpt>
      <trkpt lat="44.42375" lon="5.91797">
        <ele>1052.7</ele>
        <time>2012-03-04T09:48:19Z</time>
      </trkpt>
      <trkpt lat="44.42374" lon="5.9179">
        <ele>1053.3</ele>
        <time>2012-03-04T09:48:22Z</time>
      </trkpt>
      <trkpt lat="44.42372" lon="5.91783">
        <ele>1053.5</ele>
        <time>2012-03-04T09:48:25Z</time>
      </trkpt>
      <trkpt lat="44.4237" lon="5.91777">
        <ele>1054.3</ele>
        <time>2012-03-04T09:48:28Z</time>
      </trkpt>
      <trkpt lat="44.42368" lon="5.91771">
        <ele>1056.5</ele>
        <time>2012-03-04T09:48:31Z</time>
      </trkpt>
      <trkpt lat="44.42367" lon="5.91763">
        <ele>1056.8</ele>
        <time>2012-03-04T09:48:35Z</time>
      </trkpt>
      <trkpt lat="44.42364" lon="5.91756">
        <ele>1057.2</ele>
        <time>2012-03-04T09:48:39Z</time>
      </trkpt>
      <trkpt lat="44.42364" lon="5.9175">
        <ele>1059.9</ele>
        <time>2012-03-04T09:48:51Z</time>
      </trkpt>
      <trkpt lat="44.42364" lon="5.9175">
        <ele>1059.9</ele>
        <time>2012-03-04T09:48:51Z</time>
      </trkpt>
      <trkpt lat="44.42364" lon="5.9175">
        <ele>1059.9</ele>
        <time>2012-03-04T09:48:52Z</time>
      </trkpt>
      <trkpt lat="44.42364" lon="5.91742">
        <ele>1058.9</ele>
        <time>2012-03-04T09:49:53Z</time>
      </trkpt>
      <trkpt lat="44.42364" lon="5.91734">
        <ele>1057.7</ele>
        <time>2012-03-04T09:49:57Z</time>
      </trkpt>
      <trkpt lat="44.42364" lon="5.91727">
        <ele>1059.2</ele>
        <time>2012-03-04T09:50:00Z</time>
      </trkpt>
      <trkpt lat="44.42365" lon="5.9172">
        <ele>1058.7</ele>
        <time>2012-03-04T09:50:03Z</time>
      </trkpt>
      <trkpt lat="44.42366" lon="5.91712">
        <ele>1060.3</ele>
        <time>2012-03-04T09:50:06Z</time>
      </trkpt>
      <trkpt lat="44.42367" lon="5.91705">
        <ele>1060.3</ele>
        <time>2012-03-04T09:50:09Z</time>
      </trkpt>
      <trkpt lat="44.42369" lon="5.91698">
        <ele>1062.1</ele>
        <time>2012-03-04T09:50:13Z</time>
      </trkpt>
      <trkpt lat="44.42368" lon="5.9169">
        <ele>1059.9</ele>
        <time>2012-03-04T09:50:17Z</time>
      </trkpt>
      <trkpt lat="44.42367" lon="5.91683">
        <ele>1060.5</ele>
        <time>2012-03-04T09:50:21Z</time>
      </trkpt>
      <trkpt lat="44.42365" lon="5.91677">
        <ele>1061.1</ele>
        <time>2012-03-04T09:50:25Z</time>
      </trkpt>
      <trkpt lat="44.42361" lon="5.91672">
        <ele>1061.7</ele>
        <time>2012-03-04T09:50:29Z</time>
      </trkpt>
      <trkpt lat="44.42358" lon="5.91668">
        <ele>1062.8</ele>
        <time>2012-03-04T09:50:33Z</time>
      </trkpt>
      <trkpt lat="44.42355" lon="5.91662">
        <ele>1063.2</ele>
        <time>2012-03-04T09:50:37Z</time>
      </trkpt>
      <trkpt lat="44.42349" lon="5.91663">
        <ele>1066.9</ele>
        <time>2012-03-04T09:50:41Z</time>
      </trkpt>
      <trkpt lat="44.42344" lon="5.91664">
        <ele>1067.8</ele>
        <time>2012-03-04T09:50:44Z</time>
      </trkpt>
      <trkpt lat="44.42339" lon="5.91662">
        <ele>1069</ele>
        <time>2012-03-04T09:50:47Z</time>
      </trkpt>
      <trkpt lat="44.42336" lon="5.91655">
        <ele>1068.4</ele>
        <time>2012-03-04T09:50:51Z</time>
      </trkpt>
      <trkpt lat="44.42334" lon="5.91648">
        <ele>1068.7</ele>
        <time>2012-03-04T09:50:55Z</time>
      </trkpt>
      <trkpt lat="44.42334" lon="5.91641">
        <ele>1068.2</ele>
        <time>2012-03-04T09:50:59Z</time>
      </trkpt>
      <trkpt lat="44.42331" lon="5.91636">
        <ele>1069.2</ele>
        <time>2012-03-04T09:51:03Z</time>
      </trkpt>
      <trkpt lat="44.42327" lon="5.91628">
        <ele>1068.9</ele>
        <time>2012-03-04T09:51:06Z</time>
      </trkpt>
      <trkpt lat="44.42325" lon="5.91621">
        <ele>1070.2</ele>
        <time>2012-03-04T09:51:09Z</time>
      </trkpt>
      <trkpt lat="44.42321" lon="5.91613">
        <ele>1067</ele>
        <time>2012-03-04T09:51:14Z</time>
      </trkpt>
      <trkpt lat="44.42318" lon="5.91608">
        <ele>1067.8</ele>
        <time>2012-03-04T09:51:17Z</time>
      </trkpt>
      <trkpt lat="44.42315" lon="5.91602">
        <ele>1068.5</ele>
        <time>2012-03-04T09:51:20Z</time>
      </trkpt>
      <trkpt lat="44.42313" lon="5.91594">
        <ele>1068.1</ele>
        <time>2012-03-04T09:51:23Z</time>
      </trkpt>
      <trkpt lat="44.4231" lon="5.91588">
        <ele>1068.3</ele>
        <time>2012-03-04T09:51:26Z</time>
      </trkpt>
      <trkpt lat="44.42304" lon="5.91581">
        <ele>1068.4</ele>
        <time>2012-03-04T09:51:29Z</time>
      </trkpt>
      <trkpt lat="44.42301" lon="5.91575">
        <ele>1068.4</ele>
        <time>2012-03-04T09:51:31Z</time>
      </trkpt>
      <trkpt lat="44.42297" lon="5.91569">
        <ele>1068.5</ele>
        <time>2012-03-04T09:51:34Z</time>
      </trkpt>
      <trkpt lat="44.42292" lon="5.91565">
        <ele>1070.6</ele>
        <time>2012-03-04T09:51:38Z</time>
      </trkpt>
      <trkpt lat="44.42288" lon="5.91565">
        <ele>1070.1</ele>
        <time>2012-03-04T09:51:42Z</time>
      </trkpt>
      <trkpt lat="44.42283" lon="5.91561">
        <ele>1070.5</ele>
        <time>2012-03-04T09:51:46Z</time>
      </trkpt>
      <trkpt lat="44.4228" lon="5.91557">
        <ele>1070.8</ele>
        <time>2012-03-04T09:51:49Z</time>
      </trkpt>
      <trkpt lat="44.42273" lon="5.91556">
        <ele>1071.1</ele>
        <time>2012-03-04T09:51:52Z</time>
      </trkpt>
      <trkpt lat="44.42267" lon="5.91555">
        <ele>1069.3</ele>
        <time>2012-03-04T09:51:55Z</time>
      </trkpt>
      <trkpt lat="44.42262" lon="5.91554">
        <ele>1069</ele>
        <time>2012-03-04T09:51:57Z</time>
      </trkpt>
      <trkpt lat="44.42258" lon="5.91551">
        <ele>1070.3</ele>
        <time>2012-03-04T09:51:59Z</time>
      </trkpt>
      <trkpt lat="44.42254" lon="5.91548">
        <ele>1070.6</ele>
        <time>2012-03-04T09:52:01Z</time>
      </trkpt>
      <trkpt lat="44.42249" lon="5.91542">
        <ele>1069.7</ele>
        <time>2012-03-04T09:52:04Z</time>
      </trkpt>
      <trkpt lat="44.42248" lon="5.91534">
        <ele>1067.9</ele>
        <time>2012-03-04T09:52:07Z</time>
      </trkpt>
      <trkpt lat="44.4225" lon="5.91526">
        <ele>1066.2</ele>
        <time>2012-03-04T09:52:10Z</time>
      </trkpt>
      <trkpt lat="44.42252" lon="5.91519">
        <ele>1067.1</ele>
        <time>2012-03-04T09:52:13Z</time>
      </trkpt>
      <trkpt lat="44.42254" lon="5.91512">
        <ele>1065.3</ele>
        <time>2012-03-04T09:52:17Z</time>
      </trkpt>
      <trkpt lat="44.42258" lon="5.91506">
        <ele>1065.4</ele>
        <time>2012-03-04T09:52:20Z</time>
      </trkpt>
      <trkpt lat="44.42261" lon="5.915">
        <ele>1066.9</ele>
        <time>2012-03-04T09:52:23Z</time>
      </trkpt>
      <trkpt lat="44.42263" lon="5.91494">
        <ele>1067.3</ele>
        <time>2012-03-04T09:52:26Z</time>
      </trkpt>
      <trkpt lat="44.42266" lon="5.91487">
        <ele>1069.8</ele>
        <time>2012-03-04T09:52:29Z</time>
      </trkpt>
      <trkpt lat="44.42265" lon="5.91481">
        <ele>1071.5</ele>
        <time>2012-03-04T09:52:36Z</time>
      </trkpt>
      <trkpt lat="44.42263" lon="5.91473">
        <ele>1069.4</ele>
        <time>2012-03-04T09:52:39Z</time>
      </trkpt>
      <trkpt lat="44.42258" lon="5.9147">
        <ele>1071.3</ele>
        <time>2012-03-04T09:52:42Z</time>
      </trkpt>
      <trkpt lat="44.42254" lon="5.91462">
        <ele>1071.2</ele>
        <time>2012-03-04T09:52:46Z</time>
      </trkpt>
      <trkpt lat="44.42251" lon="5.91456">
        <ele>1070.1</ele>
        <time>2012-03-04T09:52:50Z</time>
      </trkpt>
      <trkpt lat="44.42246" lon="5.91454">
        <ele>1070.1</ele>
        <time>2012-03-04T09:52:53Z</time>
      </trkpt>
      <trkpt lat="44.42241" lon="5.91452">
        <ele>1071.8</ele>
        <time>2012-03-04T09:52:57Z</time>
      </trkpt>
      <trkpt lat="44.42239" lon="5.91446">
        <ele>1071.2</ele>
        <time>2012-03-04T09:53:00Z</time>
      </trkpt>
      <trkpt lat="44.42237" lon="5.91438">
        <ele>1073.6</ele>
        <time>2012-03-04T09:53:02Z</time>
      </trkpt>
      <trkpt lat="44.42235" lon="5.91431">
        <ele>1074.3</ele>
        <time>2012-03-04T09:53:04Z</time>
      </trkpt>
      <trkpt lat="44.42231" lon="5.91426">
        <ele>1079.2</ele>
        <time>2012-03-04T09:53:08Z</time>
      </trkpt>
      <trkpt lat="44.42226" lon="5.91426">
        <ele>1082.2</ele>
        <time>2012-03-04T09:53:12Z</time>
      </trkpt>
      <trkpt lat="44.42222" lon="5.91422">
        <ele>1083.3</ele>
        <time>2012-03-04T09:53:16Z</time>
      </trkpt>
      <trkpt lat="44.4222" lon="5.91416">
        <ele>1085.8</ele>
        <time>2012-03-04T09:53:20Z</time>
      </trkpt>
      <trkpt lat="44.42219" lon="5.91409">
        <ele>1085.5</ele>
        <time>2012-03-04T09:53:23Z</time>
      </trkpt>
      <trkpt lat="44.42216" lon="5.91404">
        <ele>1084.5</ele>
        <time>2012-03-04T09:53:26Z</time>
      </trkpt>
      <trkpt lat="44.42211" lon="5.91401">
        <ele>1088.3</ele>
        <time>2012-03-04T09:53:30Z</time>
      </trkpt>
      <trkpt lat="44.42205" lon="5.91401">
        <ele>1088</ele>
        <time>2012-03-04T09:53:33Z</time>
      </trkpt>
      <trkpt lat="44.422" lon="5.91398">
        <ele>1086.1</ele>
        <time>2012-03-04T09:53:36Z</time>
      </trkpt>
      <trkpt lat="44.42196" lon="5.91393">
        <ele>1086.8</ele>
        <time>2012-03-04T09:53:39Z</time>
      </trkpt>
      <trkpt lat="44.42192" lon="5.91388">
        <ele>1087.1</ele>
        <time>2012-03-04T09:53:42Z</time>
      </trkpt>
      <trkpt lat="44.42188" lon="5.91383">
        <ele>1087.8</ele>
        <time>2012-03-04T09:53:46Z</time>
      </trkpt>
      <trkpt lat="44.42185" lon="5.91376">
        <ele>1087.6</ele>
        <time>2012-03-04T09:53:49Z</time>
      </trkpt>
      <trkpt lat="44.42182" lon="5.91369">
        <ele>1083</ele>
        <time>2012-03-04T09:53:53Z</time>
      </trkpt>
      <trkpt lat="44.42179" lon="5.91364">
        <ele>1083.4</ele>
        <time>2012-03-04T09:53:57Z</time>
      </trkpt>
      <trkpt lat="44.42174" lon="5.9136">
        <ele>1088.3</ele>
        <time>2012-03-04T09:54:02Z</time>
      </trkpt>
      <trkpt lat="44.42171" lon="5.91356">
        <ele>1092.1</ele>
        <time>2012-03-04T09:54:07Z</time>
      </trkpt>
      <trkpt lat="44.42168" lon="5.91351">
        <ele>1092.6</ele>
        <time>2012-03-04T09:54:12Z</time>
      </trkpt>
      <trkpt lat="44.42162" lon="5.9135">
        <ele>1093.6</ele>
        <time>2012-03-04T09:54:16Z</time>
      </trkpt>
      <trkpt lat="44.42159" lon="5.91343">
        <ele>1092.3</ele>
        <time>2012-03-04T09:54:20Z</time>
      </trkpt>
      <trkpt lat="44.42157" lon="5.91336">
        <ele>1093.7</ele>
        <time>2012-03-04T09:54:23Z</time>
      </trkpt>
      <trkpt lat="44.42155" lon="5.9133">
        <ele>1095.4</ele>
        <time>2012-03-04T09:54:26Z</time>
      </trkpt>
      <trkpt lat="44.42154" lon="5.91323">
        <ele>1096</ele>
        <time>2012-03-04T09:54:30Z</time>
      </trkpt>
      <trkpt lat="44.4215" lon="5.91318">
        <ele>1097.5</ele>
        <time>2012-03-04T09:54:35Z</time>
      </trkpt>
      <trkpt lat="44.42147" lon="5.91311">
        <ele>1097.8</ele>
        <time>2012-03-04T09:54:40Z</time>
      </trkpt>
      <trkpt lat="44.42145" lon="5.91304">
        <ele>1098.2</ele>
        <time>2012-03-04T09:54:44Z</time>
      </trkpt>
      <trkpt lat="44.42143" lon="5.91298">
        <ele>1098.7</ele>
        <time>2012-03-04T09:54:48Z</time>
      </trkpt>
      <trkpt lat="44.42139" lon="5.91293">
        <ele>1099.6</ele>
        <time>2012-03-04T09:54:54Z</time>
      </trkpt>
      <trkpt lat="44.42133" lon="5.91294">
        <ele>1096.8</ele>
        <time>2012-03-04T09:54:58Z</time>
      </trkpt>
      <trkpt lat="44.42128" lon="5.91293">
        <ele>1096.4</ele>
        <time>2012-03-04T09:55:00Z</time>
      </trkpt>
      <trkpt lat="44.42123" lon="5.91293">
        <ele>1098.2</ele>
        <time>2012-03-04T09:55:03Z</time>
      </trkpt>
      <trkpt lat="44.42118" lon="5.91291">
        <ele>1101.7</ele>
        <time>2012-03-04T09:55:12Z</time>
      </trkpt>
      <trkpt lat="44.42112" lon="5.9129">
        <ele>1101.5</ele>
        <time>2012-03-04T09:55:15Z</time>
      </trkpt>
      <trkpt lat="44.42106" lon="5.91287">
        <ele>1099.4</ele>
        <time>2012-03-04T09:55:18Z</time>
      </trkpt>
      <trkpt lat="44.42102" lon="5.91283">
        <ele>1097.8</ele>
        <time>2012-03-04T09:55:21Z</time>
      </trkpt>
      <trkpt lat="44.42098" lon="5.9128">
        <ele>1099.7</ele>
        <time>2012-03-04T09:55:24Z</time>
      </trkpt>
      <trkpt lat="44.42093" lon="5.91275">
        <ele>1099.2</ele>
        <time>2012-03-04T09:55:28Z</time>
      </trkpt>
      <trkpt lat="44.42087" lon="5.91271">
        <ele>1100.6</ele>
        <time>2012-03-04T09:55:32Z</time>
      </trkpt>
      <trkpt lat="44.42082" lon="5.9127">
        <ele>1101.6</ele>
        <time>2012-03-04T09:55:35Z</time>
      </trkpt>
      <trkpt lat="44.42077" lon="5.91268">
        <ele>1101.7</ele>
        <time>2012-03-04T09:55:38Z</time>
      </trkpt>
      <trkpt lat="44.42072" lon="5.91267">
        <ele>1102.9</ele>
        <time>2012-03-04T09:55:41Z</time>
      </trkpt>
      <trkpt lat="44.42067" lon="5.91264">
        <ele>1104.2</ele>
        <time>2012-03-04T09:55:45Z</time>
      </trkpt>
      <trkpt lat="44.42064" lon="5.91259">
        <ele>1101.6</ele>
        <time>2012-03-04T09:55:48Z</time>
      </trkpt>
      <trkpt lat="44.4206" lon="5.91254">
        <ele>1102.2</ele>
        <time>2012-03-04T09:55:51Z</time>
      </trkpt>
      <trkpt lat="44.42056" lon="5.91249">
        <ele>1101.2</ele>
        <time>2012-03-04T09:55:55Z</time>
      </trkpt>
      <trkpt lat="44.42051" lon="5.91249">
        <ele>1102</ele>
        <time>2012-03-04T09:55:59Z</time>
      </trkpt>
      <trkpt lat="44.42046" lon="5.91255">
        <ele>1101.6</ele>
        <time>2012-03-04T09:56:01Z</time>
      </trkpt>
      <trkpt lat="44.42043" lon="5.9126">
        <ele>1101.4</ele>
        <time>2012-03-04T09:56:03Z</time>
      </trkpt>
      <trkpt lat="44.4204" lon="5.91266">
        <ele>1102.7</ele>
        <time>2012-03-04T09:56:06Z</time>
      </trkpt>
      <trkpt lat="44.42039" lon="5.91274">
        <ele>1105.7</ele>
        <time>2012-03-04T09:56:09Z</time>
      </trkpt>
      <trkpt lat="44.42038" lon="5.91281">
        <ele>1102.1</ele>
        <time>2012-03-04T09:56:12Z</time>
      </trkpt>
      <trkpt lat="44.42037" lon="5.91288">
        <ele>1106.9</ele>
        <time>2012-03-04T09:56:17Z</time>
      </trkpt>
      <trkpt lat="44.42033" lon="5.91292">
        <ele>1119.2</ele>
        <time>2012-03-04T09:56:21Z</time>
      </trkpt>
      <trkpt lat="44.42029" lon="5.91299">
        <ele>1117.4</ele>
        <time>2012-03-04T09:56:25Z</time>
      </trkpt>
      <trkpt lat="44.42025" lon="5.91309">
        <ele>1118.3</ele>
        <time>2012-03-04T09:56:28Z</time>
      </trkpt>
      <trkpt lat="44.42023" lon="5.91316">
        <ele>1116.9</ele>
        <time>2012-03-04T09:56:30Z</time>
      </trkpt>
      <trkpt lat="44.42023" lon="5.91323">
        <ele>1117</ele>
        <time>2012-03-04T09:56:33Z</time>
      </trkpt>
      <trkpt lat="44.42022" lon="5.91332">
        <ele>1118.3</ele>
        <time>2012-03-04T09:56:37Z</time>
      </trkpt>
      <trkpt lat="44.42017" lon="5.91338">
        <ele>1120.1</ele>
        <time>2012-03-04T09:56:40Z</time>
      </trkpt>
      <trkpt lat="44.42014" lon="5.91343">
        <ele>1120</ele>
        <time>2012-03-04T09:56:42Z</time>
      </trkpt>
      <trkpt lat="44.42011" lon="5.9135">
        <ele>1120.1</ele>
        <time>2012-03-04T09:56:44Z</time>
      </trkpt>
      <trkpt lat="44.42008" lon="5.91355">
        <ele>1119.2</ele>
        <time>2012-03-04T09:56:46Z</time>
      </trkpt>
      <trkpt lat="44.42005" lon="5.9136">
        <ele>1116.4</ele>
        <time>2012-03-04T09:56:49Z</time>
      </trkpt>
      <trkpt lat="44.42002" lon="5.91368">
        <ele>1117.2</ele>
        <time>2012-03-04T09:56:52Z</time>
      </trkpt>
      <trkpt lat="44.42001" lon="5.91375">
        <ele>1115.3</ele>
        <time>2012-03-04T09:56:56Z</time>
      </trkpt>
      <trkpt lat="44.41999" lon="5.91383">
        <ele>1116.1</ele>
        <time>2012-03-04T09:57:00Z</time>
      </trkpt>
      <trkpt lat="44.41997" lon="5.91388">
        <ele>1116.1</ele>
        <time>2012-03-04T09:57:02Z</time>
      </trkpt>
      <trkpt lat="44.41994" lon="5.91393">
        <ele>1116.6</ele>
        <time>2012-03-04T09:57:04Z</time>
      </trkpt>
      <trkpt lat="44.41992" lon="5.91402">
        <ele>1117.8</ele>
        <time>2012-03-04T09:57:07Z</time>
      </trkpt>
      <trkpt lat="44.41992" lon="5.91409">
        <ele>1120.2</ele>
        <time>2012-03-04T09:57:10Z</time>
      </trkpt>
      <trkpt lat="44.41987" lon="5.91414">
        <ele>1119</ele>
        <time>2012-03-04T09:57:13Z</time>
      </trkpt>
      <trkpt lat="44.41982" lon="5.91418">
        <ele>1124.8</ele>
        <time>2012-03-04T09:57:16Z</time>
      </trkpt>
      <trkpt lat="44.4198" lon="5.91423">
        <ele>1130.3</ele>
        <time>2012-03-04T09:57:19Z</time>
      </trkpt>
      <trkpt lat="44.4198" lon="5.9143">
        <ele>1129.6</ele>
        <time>2012-03-04T09:57:24Z</time>
      </trkpt>
      <trkpt lat="44.41978" lon="5.91436">
        <ele>1128.6</ele>
        <time>2012-03-04T09:57:28Z</time>
      </trkpt>
      <trkpt lat="44.41976" lon="5.91443">
        <ele>1131.4</ele>
        <time>2012-03-04T09:57:32Z</time>
      </trkpt>
      <trkpt lat="44.41971" lon="5.91447">
        <ele>1132.6</ele>
        <time>2012-03-04T09:57:37Z</time>
      </trkpt>
      <trkpt lat="44.4197" lon="5.91454">
        <ele>1135.5</ele>
        <time>2012-03-04T09:57:41Z</time>
      </trkpt>
      <trkpt lat="44.41967" lon="5.91461">
        <ele>1132.5</ele>
        <time>2012-03-04T09:57:46Z</time>
      </trkpt>
      <trkpt lat="44.41966" lon="5.91468">
        <ele>1131.8</ele>
        <time>2012-03-04T09:57:48Z</time>
      </trkpt>
      <trkpt lat="44.41965" lon="5.91474">
        <ele>1131</ele>
        <time>2012-03-04T09:57:51Z</time>
      </trkpt>
      <trkpt lat="44.41962" lon="5.91481">
        <ele>1129.5</ele>
        <time>2012-03-04T09:57:55Z</time>
      </trkpt>
      <trkpt lat="44.41959" lon="5.91488">
        <ele>1130.4</ele>
        <time>2012-03-04T09:57:58Z</time>
      </trkpt>
      <trkpt lat="44.41956" lon="5.91494">
        <ele>1131</ele>
        <time>2012-03-04T09:58:01Z</time>
      </trkpt>
      <trkpt lat="44.41956" lon="5.915">
        <ele>1130.1</ele>
        <time>2012-03-04T09:58:04Z</time>
      </trkpt>
      <trkpt lat="44.41955" lon="5.91508">
        <ele>1129.8</ele>
        <time>2012-03-04T09:58:08Z</time>
      </trkpt>
      <trkpt lat="44.41953" lon="5.91515">
        <ele>1131.9</ele>
        <time>2012-03-04T09:58:12Z</time>
      </trkpt>
      <trkpt lat="44.41949" lon="5.9152">
        <ele>1130.4</ele>
        <time>2012-03-04T09:58:15Z</time>
      </trkpt>
      <trkpt lat="44.41944" lon="5.91525">
        <ele>1129.1</ele>
        <time>2012-03-04T09:58:18Z</time>
      </trkpt>
      <trkpt lat="44.41941" lon="5.91532">
        <ele>1129</ele>
        <time>2012-03-04T09:58:24Z</time>
      </trkpt>
      <trkpt lat="44.41939" lon="5.91538">
        <ele>1131.5</ele>
        <time>2012-03-04T09:58:28Z</time>
      </trkpt>
      <trkpt lat="44.41937" lon="5.91544">
        <ele>1131.2</ele>
        <time>2012-03-04T09:58:32Z</time>
      </trkpt>
      <trkpt lat="44.41934" lon="5.91549">
        <ele>1135.4</ele>
        <time>2012-03-04T09:58:36Z</time>
      </trkpt>
      <trkpt lat="44.41931" lon="5.91555">
        <ele>1135.8</ele>
        <time>2012-03-04T09:58:40Z</time>
      </trkpt>
      <trkpt lat="44.41928" lon="5.9156">
        <ele>1135.1</ele>
        <time>2012-03-04T09:58:45Z</time>
      </trkpt>
      <trkpt lat="44.41925" lon="5.91567">
        <ele>1137.2</ele>
        <time>2012-03-04T09:58:51Z</time>
      </trkpt>
      <trkpt lat="44.41921" lon="5.91573">
        <ele>1139.5</ele>
        <time>2012-03-04T09:58:55Z</time>
      </trkpt>
      <trkpt lat="44.41917" lon="5.91576">
        <ele>1142.8</ele>
        <time>2012-03-04T09:58:58Z</time>
      </trkpt>
      <trkpt lat="44.41911" lon="5.9158">
        <ele>1138.1</ele>
        <time>2012-03-04T09:59:03Z</time>
      </trkpt>
      <trkpt lat="44.41905" lon="5.91578">
        <ele>1138.1</ele>
        <time>2012-03-04T09:59:11Z</time>
      </trkpt>
      <trkpt lat="44.419" lon="5.91579">
        <ele>1138.6</ele>
        <time>2012-03-04T09:59:15Z</time>
      </trkpt>
      <trkpt lat="44.41897" lon="5.91586">
        <ele>1140.1</ele>
        <time>2012-03-04T09:59:20Z</time>
      </trkpt>
      <trkpt lat="44.41894" lon="5.91591">
        <ele>1139.4</ele>
        <time>2012-03-04T09:59:24Z</time>
      </trkpt>
      <trkpt lat="44.41889" lon="5.91595">
        <ele>1142.5</ele>
        <time>2012-03-04T09:59:28Z</time>
      </trkpt>
      <trkpt lat="44.41885" lon="5.91597">
        <ele>1143.5</ele>
        <time>2012-03-04T09:59:44Z</time>
      </trkpt>
      <trkpt lat="44.4188" lon="5.91602">
        <ele>1141</ele>
        <time>2012-03-04T09:59:59Z</time>
      </trkpt>
      <trkpt lat="44.41875" lon="5.91596">
        <ele>1139.9</ele>
        <time>2012-03-04T10:00:05Z</time>
      </trkpt>
      <trkpt lat="44.4187" lon="5.91595">
        <ele>1140.4</ele>
        <time>2012-03-04T10:00:11Z</time>
      </trkpt>
      <trkpt lat="44.41865" lon="5.91593">
        <ele>1143</ele>
        <time>2012-03-04T10:00:16Z</time>
      </trkpt>
      <trkpt lat="44.41862" lon="5.91599">
        <ele>1148.4</ele>
        <time>2012-03-04T10:00:19Z</time>
      </trkpt>
      <trkpt lat="44.41856" lon="5.91604">
        <ele>1146.1</ele>
        <time>2012-03-04T10:00:22Z</time>
      </trkpt>
      <trkpt lat="44.41851" lon="5.91602">
        <ele>1147.8</ele>
        <time>2012-03-04T10:00:28Z</time>
      </trkpt>
      <trkpt lat="44.41845" lon="5.91602">
        <ele>1147</ele>
        <time>2012-03-04T10:00:31Z</time>
      </trkpt>
      <trkpt lat="44.4184" lon="5.91599">
        <ele>1142.3</ele>
        <time>2012-03-04T10:00:35Z</time>
      </trkpt>
      <trkpt lat="44.41835" lon="5.91596">
        <ele>1143.5</ele>
        <time>2012-03-04T10:00:39Z</time>
      </trkpt>
      <trkpt lat="44.41829" lon="5.91597">
        <ele>1144.7</ele>
        <time>2012-03-04T10:00:42Z</time>
      </trkpt>
      <trkpt lat="44.41823" lon="5.91597">
        <ele>1145.6</ele>
        <time>2012-03-04T10:00:45Z</time>
      </trkpt>
      <trkpt lat="44.41816" lon="5.91597">
        <ele>1148.7</ele>
        <time>2012-03-04T10:00:48Z</time>
      </trkpt>
      <trkpt lat="44.41811" lon="5.91597">
        <ele>1149.6</ele>
        <time>2012-03-04T10:00:50Z</time>
      </trkpt>
      <trkpt lat="44.41805" lon="5.91597">
        <ele>1149.4</ele>
        <time>2012-03-04T10:00:52Z</time>
      </trkpt>
      <trkpt lat="44.41801" lon="5.91598">
        <ele>1150.7</ele>
        <time>2012-03-04T10:00:54Z</time>
      </trkpt>
      <trkpt lat="44.41795" lon="5.91598">
        <ele>1150.6</ele>
        <time>2012-03-04T10:00:57Z</time>
      </trkpt>
      <trkpt lat="44.41789" lon="5.91596">
        <ele>1151</ele>
        <time>2012-03-04T10:01:00Z</time>
      </trkpt>
      <trkpt lat="44.41784" lon="5.91593">
        <ele>1151.4</ele>
        <time>2012-03-04T10:01:03Z</time>
      </trkpt>
      <trkpt lat="44.41782" lon="5.91586">
        <ele>1151.4</ele>
        <time>2012-03-04T10:01:06Z</time>
      </trkpt>
      <trkpt lat="44.41779" lon="5.91581">
        <ele>1150</ele>
        <time>2012-03-04T10:01:10Z</time>
      </trkpt>
      <trkpt lat="44.41774" lon="5.9158">
        <ele>1149</ele>
        <time>2012-03-04T10:01:17Z</time>
      </trkpt>
      <trkpt lat="44.4177" lon="5.91576">
        <ele>1150.8</ele>
        <time>2012-03-04T10:01:22Z</time>
      </trkpt>
      <trkpt lat="44.41766" lon="5.91569">
        <ele>1150.2</ele>
        <time>2012-03-04T10:01:27Z</time>
      </trkpt>
      <trkpt lat="44.41764" lon="5.91562">
        <ele>1152.1</ele>
        <time>2012-03-04T10:01:31Z</time>
      </trkpt>
      <trkpt lat="44.41764" lon="5.91554">
        <ele>1152.9</ele>
        <time>2012-03-04T10:01:35Z</time>
      </trkpt>
      <trkpt lat="44.41763" lon="5.91546">
        <ele>1153.1</ele>
        <time>2012-03-04T10:01:38Z</time>
      </trkpt>
      <trkpt lat="44.41758" lon="5.91543">
        <ele>1152.1</ele>
        <time>2012-03-04T10:01:42Z</time>
      </trkpt>
      <trkpt lat="44.41755" lon="5.91538">
        <ele>1153.3</ele>
        <time>2012-03-04T10:01:47Z</time>
      </trkpt>
      <trkpt lat="44.41754" lon="5.91531">
        <ele>1156.4</ele>
        <time>2012-03-04T10:01:54Z</time>
      </trkpt>
      <trkpt lat="44.41749" lon="5.91528">
        <ele>1160.3</ele>
        <time>2012-03-04T10:01:59Z</time>
      </trkpt>
      <trkpt lat="44.41744" lon="5.91528">
        <ele>1164</ele>
        <time>2012-03-04T10:02:03Z</time>
      </trkpt>
      <trkpt lat="44.41741" lon="5.91523">
        <ele>1164.3</ele>
        <time>2012-03-04T10:02:09Z</time>
      </trkpt>
      <trkpt lat="44.41736" lon="5.91522">
        <ele>1167.7</ele>
        <time>2012-03-04T10:02:18Z</time>
      </trkpt>
      <trkpt lat="44.41732" lon="5.91527">
        <ele>1176.9</ele>
        <time>2012-03-04T10:02:32Z</time>
      </trkpt>
      <trkpt lat="44.41725" lon="5.91528">
        <ele>1176.7</ele>
        <time>2012-03-04T10:02:36Z</time>
      </trkpt>
      <trkpt lat="44.41719" lon="5.9153">
        <ele>1176.5</ele>
        <time>2012-03-04T10:02:41Z</time>
      </trkpt>
      <trkpt lat="44.41713" lon="5.91526">
        <ele>1171.6</ele>
        <time>2012-03-04T10:02:45Z</time>
      </trkpt>
      <trkpt lat="44.41708" lon="5.91526">
        <ele>1169.6</ele>
        <time>2012-03-04T10:02:47Z</time>
      </trkpt>
      <trkpt lat="44.417" lon="5.91526">
        <ele>1169.5</ele>
        <time>2012-03-04T10:02:50Z</time>
      </trkpt>
      <trkpt lat="44.41696" lon="5.91526">
        <ele>1167.1</ele>
        <time>2012-03-04T10:02:53Z</time>
      </trkpt>
      <trkpt lat="44.41691" lon="5.91525">
        <ele>1166.5</ele>
        <time>2012-03-04T10:02:58Z</time>
      </trkpt>
      <trkpt lat="44.41687" lon="5.9152">
        <ele>1167.2</ele>
        <time>2012-03-04T10:03:03Z</time>
      </trkpt>
      <trkpt lat="44.41682" lon="5.91514">
        <ele>1166.8</ele>
        <time>2012-03-04T10:03:07Z</time>
      </trkpt>
      <trkpt lat="44.41677" lon="5.9151">
        <ele>1165.5</ele>
        <time>2012-03-04T10:03:11Z</time>
      </trkpt>
      <trkpt lat="44.41672" lon="5.91509">
        <ele>1167.9</ele>
        <time>2012-03-04T10:03:15Z</time>
      </trkpt>
      <trkpt lat="44.41668" lon="5.91504">
        <ele>1168.9</ele>
        <time>2012-03-04T10:03:19Z</time>
      </trkpt>
      <trkpt lat="44.41668" lon="5.91496">
        <ele>1170.6</ele>
        <time>2012-03-04T10:03:22Z</time>
      </trkpt>
      <trkpt lat="44.41663" lon="5.91491">
        <ele>1171</ele>
        <time>2012-03-04T10:03:28Z</time>
      </trkpt>
      <trkpt lat="44.41666" lon="5.91486">
        <ele>1171</ele>
        <time>2012-03-04T10:03:44Z</time>
      </trkpt>
      <trkpt lat="44.41665" lon="5.91479">
        <ele>1176.1</ele>
        <time>2012-03-04T10:04:01Z</time>
      </trkpt>
      <trkpt lat="44.41665" lon="5.91473">
        <ele>1175.1</ele>
        <time>2012-03-04T10:04:04Z</time>
      </trkpt>
      <trkpt lat="44.41664" lon="5.91466">
        <ele>1175.5</ele>
        <time>2012-03-04T10:04:08Z</time>
      </trkpt>
      <trkpt lat="44.41659" lon="5.91467">
        <ele>1181.6</ele>
        <time>2012-03-04T10:04:11Z</time>
      </trkpt>
      <trkpt lat="44.41654" lon="5.91468">
        <ele>1180.9</ele>
        <time>2012-03-04T10:04:13Z</time>
      </trkpt>
      <trkpt lat="44.41649" lon="5.91471">
        <ele>1179.1</ele>
        <time>2012-03-04T10:04:15Z</time>
      </trkpt>
      <trkpt lat="44.41643" lon="5.91469">
        <ele>1179.6</ele>
        <time>2012-03-04T10:04:18Z</time>
      </trkpt>
      <trkpt lat="44.41639" lon="5.91463">
        <ele>1179</ele>
        <time>2012-03-04T10:04:22Z</time>
      </trkpt>
      <trkpt lat="44.41636" lon="5.91456">
        <ele>1178.4</ele>
        <time>2012-03-04T10:04:27Z</time>
      </trkpt>
      <trkpt lat="44.41633" lon="5.9145">
        <ele>1175.7</ele>
        <time>2012-03-04T10:04:30Z</time>
      </trkpt>
      <trkpt lat="44.4163" lon="5.91443">
        <ele>1172.7</ele>
        <time>2012-03-04T10:04:33Z</time>
      </trkpt>
      <trkpt lat="44.41624" lon="5.91442">
        <ele>1172.1</ele>
        <time>2012-03-04T10:04:36Z</time>
      </trkpt>
      <trkpt lat="44.4162" lon="5.91439">
        <ele>1176.3</ele>
        <time>2012-03-04T10:04:41Z</time>
      </trkpt>
      <trkpt lat="44.41615" lon="5.91437">
        <ele>1174.3</ele>
        <time>2012-03-04T10:04:46Z</time>
      </trkpt>
      <trkpt lat="44.41612" lon="5.91431">
        <ele>1173.3</ele>
        <time>2012-03-04T10:04:50Z</time>
      </trkpt>
      <trkpt lat="44.41608" lon="5.9143">
        <ele>1173.5</ele>
        <time>2012-03-04T10:04:56Z</time>
      </trkpt>
      <trkpt lat="44.41604" lon="5.91426">
        <ele>1175.9</ele>
        <time>2012-03-04T10:05:02Z</time>
      </trkpt>
      <trkpt lat="44.41601" lon="5.91421">
        <ele>1175.1</ele>
        <time>2012-03-04T10:05:07Z</time>
      </trkpt>
      <trkpt lat="44.41597" lon="5.91416">
        <ele>1175.3</ele>
        <time>2012-03-04T10:05:12Z</time>
      </trkpt>
      <trkpt lat="44.41597" lon="5.91408">
        <ele>1175.1</ele>
        <time>2012-03-04T10:05:15Z</time>
      </trkpt>
      <trkpt lat="44.41598" lon="5.91402">
        <ele>1173</ele>
        <time>2012-03-04T10:05:17Z</time>
      </trkpt>
      <trkpt lat="44.41599" lon="5.91394">
        <ele>1172.5</ele>
        <time>2012-03-04T10:05:20Z</time>
      </trkpt>
      <trkpt lat="44.41599" lon="5.91387">
        <ele>1171.1</ele>
        <time>2012-03-04T10:05:22Z</time>
      </trkpt>
      <trkpt lat="44.41599" lon="5.9138">
        <ele>1172.2</ele>
        <time>2012-03-04T10:05:24Z</time>
      </trkpt>
      <trkpt lat="44.41599" lon="5.91373">
        <ele>1173.2</ele>
        <time>2012-03-04T10:05:27Z</time>
      </trkpt>
      <trkpt lat="44.416" lon="5.91366">
        <ele>1173.2</ele>
        <time>2012-03-04T10:05:30Z</time>
      </trkpt>
      <trkpt lat="44.416" lon="5.91357">
        <ele>1173.6</ele>
        <time>2012-03-04T10:05:33Z</time>
      </trkpt>
      <trkpt lat="44.41599" lon="5.91351">
        <ele>1173.6</ele>
        <time>2012-03-04T10:05:37Z</time>
      </trkpt>
      <trkpt lat="44.41596" lon="5.91344">
        <ele>1175.5</ele>
        <time>2012-03-04T10:05:40Z</time>
      </trkpt>
      <trkpt lat="44.41597" lon="5.91336">
        <ele>1176.2</ele>
        <time>2012-03-04T10:05:42Z</time>
      </trkpt>
      <trkpt lat="44.41597" lon="5.91329">
        <ele>1176.9</ele>
        <time>2012-03-04T10:05:45Z</time>
      </trkpt>
      <trkpt lat="44.41599" lon="5.9132">
        <ele>1179.1</ele>
        <time>2012-03-04T10:05:49Z</time>
      </trkpt>
      <trkpt lat="44.416" lon="5.91311">
        <ele>1180.5</ele>
        <time>2012-03-04T10:05:53Z</time>
      </trkpt>
      <trkpt lat="44.41602" lon="5.91304">
        <ele>1181.9</ele>
        <time>2012-03-04T10:05:57Z</time>
      </trkpt>
      <trkpt lat="44.416" lon="5.91297">
        <ele>1180.9</ele>
        <time>2012-03-04T10:06:04Z</time>
      </trkpt>
      <trkpt lat="44.416" lon="5.9129">
        <ele>1177.9</ele>
        <time>2012-03-04T10:06:07Z</time>
      </trkpt>
      <trkpt lat="44.41599" lon="5.91282">
        <ele>1181.8</ele>
        <time>2012-03-04T10:06:11Z</time>
      </trkpt>
      <trkpt lat="44.41595" lon="5.91278">
        <ele>1185.3</ele>
        <time>2012-03-04T10:06:14Z</time>
      </trkpt>
      <trkpt lat="44.41593" lon="5.91271">
        <ele>1186.7</ele>
        <time>2012-03-04T10:06:17Z</time>
      </trkpt>
      <trkpt lat="44.41591" lon="5.91265">
        <ele>1189.1</ele>
        <time>2012-03-04T10:06:22Z</time>
      </trkpt>
      <trkpt lat="44.41588" lon="5.91259">
        <ele>1192.2</ele>
        <time>2012-03-04T10:06:28Z</time>
      </trkpt>
      <trkpt lat="44.41587" lon="5.91252">
        <ele>1194.2</ele>
        <time>2012-03-04T10:06:34Z</time>
      </trkpt>
      <trkpt lat="44.41583" lon="5.91246">
        <ele>1194.7</ele>
        <time>2012-03-04T10:06:41Z</time>
      </trkpt>
      <trkpt lat="44.41582" lon="5.91238">
        <ele>1198.8</ele>
        <time>2012-03-04T10:06:44Z</time>
      </trkpt>
      <trkpt lat="44.41579" lon="5.91231">
        <ele>1200.6</ele>
        <time>2012-03-04T10:06:48Z</time>
      </trkpt>
      <trkpt lat="44.41577" lon="5.91225">
        <ele>1200.6</ele>
        <time>2012-03-04T10:06:51Z</time>
      </trkpt>
      <trkpt lat="44.41576" lon="5.91218">
        <ele>1199.8</ele>
        <time>2012-03-04T10:06:55Z</time>
      </trkpt>
      <trkpt lat="44.41574" lon="5.91209">
        <ele>1198.3</ele>
        <time>2012-03-04T10:06:59Z</time>
      </trkpt>
      <trkpt lat="44.41573" lon="5.91202">
        <ele>1200.6</ele>
        <time>2012-03-04T10:07:02Z</time>
      </trkpt>
      <trkpt lat="44.4157" lon="5.91197">
        <ele>1203.8</ele>
        <time>2012-03-04T10:07:07Z</time>
      </trkpt>
      <trkpt lat="44.41567" lon="5.91192">
        <ele>1203.2</ele>
        <time>2012-03-04T10:07:11Z</time>
      </trkpt>
      <trkpt lat="44.41567" lon="5.91185">
        <ele>1205.2</ele>
        <time>2012-03-04T10:07:14Z</time>
      </trkpt>
      <trkpt lat="44.41564" lon="5.91179">
        <ele>1202.9</ele>
        <time>2012-03-04T10:07:19Z</time>
      </trkpt>
      <trkpt lat="44.41562" lon="5.91173">
        <ele>1205.6</ele>
        <time>2012-03-04T10:07:24Z</time>
      </trkpt>
      <trkpt lat="44.41558" lon="5.9117">
        <ele>1207.4</ele>
        <time>2012-03-04T10:07:29Z</time>
      </trkpt>
      <trkpt lat="44.41556" lon="5.91164">
        <ele>1206.3</ele>
        <time>2012-03-04T10:07:31Z</time>
      </trkpt>
      <trkpt lat="44.41556" lon="5.91155">
        <ele>1207.6</ele>
        <time>2012-03-04T10:07:34Z</time>
      </trkpt>
      <trkpt lat="44.41555" lon="5.91148">
        <ele>1204.7</ele>
        <time>2012-03-04T10:07:37Z</time>
      </trkpt>
      <trkpt lat="44.41555" lon="5.91141">
        <ele>1204.5</ele>
        <time>2012-03-04T10:07:41Z</time>
      </trkpt>
      <trkpt lat="44.41555" lon="5.91134">
        <ele>1202.8</ele>
        <time>2012-03-04T10:07:45Z</time>
      </trkpt>
      <trkpt lat="44.41556" lon="5.91127">
        <ele>1203.3</ele>
        <time>2012-03-04T10:07:51Z</time>
      </trkpt>
      <trkpt lat="44.41558" lon="5.9112">
        <ele>1198.8</ele>
        <time>2012-03-04T10:07:53Z</time>
      </trkpt>
      <trkpt lat="44.41561" lon="5.91111">
        <ele>1199.1</ele>
        <time>2012-03-04T10:07:56Z</time>
      </trkpt>
      <trkpt lat="44.41563" lon="5.91104">
        <ele>1200.7</ele>
        <time>2012-03-04T10:07:59Z</time>
      </trkpt>
      <trkpt lat="44.41564" lon="5.91097">
        <ele>1202.5</ele>
        <time>2012-03-04T10:08:03Z</time>
      </trkpt>
      <trkpt lat="44.41567" lon="5.91089">
        <ele>1203.7</ele>
        <time>2012-03-04T10:08:07Z</time>
      </trkpt>
      <trkpt lat="44.41568" lon="5.91082">
        <ele>1205.2</ele>
        <time>2012-03-04T10:08:10Z</time>
      </trkpt>
      <trkpt lat="44.41569" lon="5.91075">
        <ele>1206.5</ele>
        <time>2012-03-04T10:08:14Z</time>
      </trkpt>
      <trkpt lat="44.41571" lon="5.91068">
        <ele>1209.3</ele>
        <time>2012-03-04T10:08:20Z</time>
      </trkpt>
      <trkpt lat="44.41573" lon="5.91063">
        <ele>1210.1</ele>
        <time>2012-03-04T10:08:24Z</time>
      </trkpt>
      <trkpt lat="44.41576" lon="5.91057">
        <ele>1211.2</ele>
        <time>2012-03-04T10:08:28Z</time>
      </trkpt>
      <trkpt lat="44.41578" lon="5.91051">
        <ele>1213.9</ele>
        <time>2012-03-04T10:08:32Z</time>
      </trkpt>
      <trkpt lat="44.41578" lon="5.91045">
        <ele>1216.8</ele>
        <time>2012-03-04T10:08:37Z</time>
      </trkpt>
      <trkpt lat="44.4158" lon="5.91037">
        <ele>1219.2</ele>
        <time>2012-03-04T10:08:48Z</time>
      </trkpt>
      <trkpt lat="44.41583" lon="5.91031">
        <ele>1218</ele>
        <time>2012-03-04T10:08:50Z</time>
      </trkpt>
      <trkpt lat="44.41584" lon="5.91025">
        <ele>1218.8</ele>
        <time>2012-03-04T10:08:56Z</time>
      </trkpt>
      <trkpt lat="44.41582" lon="5.91017">
        <ele>1215.2</ele>
        <time>2012-03-04T10:09:00Z</time>
      </trkpt>
      <trkpt lat="44.41583" lon="5.91007">
        <ele>1214.1</ele>
        <time>2012-03-04T10:09:03Z</time>
      </trkpt>
      <trkpt lat="44.41584" lon="5.90999">
        <ele>1213.9</ele>
        <time>2012-03-04T10:09:06Z</time>
      </trkpt>
      <trkpt lat="44.41584" lon="5.90992">
        <ele>1214.9</ele>
        <time>2012-03-04T10:09:09Z</time>
      </trkpt>
      <trkpt lat="44.41585" lon="5.90986">
        <ele>1216</ele>
        <time>2012-03-04T10:09:20Z</time>
      </trkpt>
      <trkpt lat="44.41584" lon="5.9098">
        <ele>1216.1</ele>
        <time>2012-03-04T10:09:24Z</time>
      </trkpt>
      <trkpt lat="44.41583" lon="5.90973">
        <ele>1218.9</ele>
        <time>2012-03-04T10:09:28Z</time>
      </trkpt>
      <trkpt lat="44.4158" lon="5.90968">
        <ele>1223.7</ele>
        <time>2012-03-04T10:09:36Z</time>
      </trkpt>
      <trkpt lat="44.4158" lon="5.9096">
        <ele>1225.7</ele>
        <time>2012-03-04T10:09:41Z</time>
      </trkpt>
      <trkpt lat="44.4158" lon="5.90954">
        <ele>1224.7</ele>
        <time>2012-03-04T10:09:46Z</time>
      </trkpt>
      <trkpt lat="44.41581" lon="5.90946">
        <ele>1225.7</ele>
        <time>2012-03-04T10:09:50Z</time>
      </trkpt>
      <trkpt lat="44.41581" lon="5.90946">
        <ele>1225.7</ele>
        <time>2012-03-04T10:09:50Z</time>
      </trkpt>
      <trkpt lat="44.41581" lon="5.90946">
        <ele>1225.7</ele>
        <time>2012-03-04T10:09:51Z</time>
      </trkpt>
      <trkpt lat="44.41579" lon="5.90937">
        <ele>1228.7</ele>
        <time>2012-03-04T10:09:57Z</time>
      </trkpt>
      <trkpt lat="44.41577" lon="5.90931">
        <ele>1228.4</ele>
        <time>2012-03-04T10:09:59Z</time>
      </trkpt>
      <trkpt lat="44.41577" lon="5.90924">
        <ele>1227</ele>
        <time>2012-03-04T10:10:00Z</time>
      </trkpt>
      <trkpt lat="44.41579" lon="5.90914">
        <ele>1226.7</ele>
        <time>2012-03-04T10:10:02Z</time>
      </trkpt>
      <trkpt lat="44.41581" lon="5.90906">
        <ele>1231.2</ele>
        <time>2012-03-04T10:10:04Z</time>
      </trkpt>
      <trkpt lat="44.41581" lon="5.90899">
        <ele>1232.7</ele>
        <time>2012-03-04T10:10:06Z</time>
      </trkpt>
      <trkpt lat="44.41582" lon="5.90892">
        <ele>1232.1</ele>
        <time>2012-03-04T10:10:09Z</time>
      </trkpt>
      <trkpt lat="44.41581" lon="5.90885">
        <ele>1234.3</ele>
        <time>2012-03-04T10:10:14Z</time>
      </trkpt>
      <trkpt lat="44.4158" lon="5.90878">
        <ele>1235.4</ele>
        <time>2012-03-04T10:10:19Z</time>
      </trkpt>
      <trkpt lat="44.41583" lon="5.90873">
        <ele>1234.9</ele>
        <time>2012-03-04T10:10:25Z</time>
      </trkpt>
      <trkpt lat="44.41586" lon="5.90867">
        <ele>1234.9</ele>
        <time>2012-03-04T10:10:33Z</time>
      </trkpt>
      <trkpt lat="44.41587" lon="5.90859">
        <ele>1233.4</ele>
        <time>2012-03-04T10:10:51Z</time>
      </trkpt>
      <trkpt lat="44.41587" lon="5.90853">
        <ele>1235.3</ele>
        <time>2012-03-04T10:11:01Z</time>
      </trkpt>
      <trkpt lat="44.41588" lon="5.90846">
        <ele>1234.9</ele>
        <time>2012-03-04T10:11:04Z</time>
      </trkpt>
      <trkpt lat="44.4159" lon="5.9084">
        <ele>1237</ele>
        <time>2012-03-04T10:11:09Z</time>
      </trkpt>
      <trkpt lat="44.41591" lon="5.90834">
        <ele>1237.3</ele>
        <time>2012-03-04T10:11:12Z</time>
      </trkpt>
      <trkpt lat="44.41592" lon="5.90826">
        <ele>1240.7</ele>
        <time>2012-03-04T10:11:15Z</time>
      </trkpt>
      <trkpt lat="44.41592" lon="5.90819">
        <ele>1244.4</ele>
        <time>2012-03-04T10:11:19Z</time>
      </trkpt>
      <trkpt lat="44.41592" lon="5.90812">
        <ele>1249.3</ele>
        <time>2012-03-04T10:11:28Z</time>
      </trkpt>
      <trkpt lat="44.41591" lon="5.90805">
        <ele>1246.3</ele>
        <time>2012-03-04T10:11:33Z</time>
      </trkpt>
      <trkpt lat="44.41595" lon="5.908">
        <ele>1243.2</ele>
        <time>2012-03-04T10:11:37Z</time>
      </trkpt>
      <trkpt lat="44.41595" lon="5.90793">
        <ele>1245</ele>
        <time>2012-03-04T10:11:41Z</time>
      </trkpt>
      <trkpt lat="44.41595" lon="5.90786">
        <ele>1245.6</ele>
        <time>2012-03-04T10:11:44Z</time>
      </trkpt>
      <trkpt lat="44.41598" lon="5.9078">
        <ele>1245.1</ele>
        <time>2012-03-04T10:11:47Z</time>
      </trkpt>
      <trkpt lat="44.41602" lon="5.90773">
        <ele>1245.2</ele>
        <time>2012-03-04T10:11:50Z</time>
      </trkpt>
      <trkpt lat="44.41602" lon="5.90766">
        <ele>1251.3</ele>
        <time>2012-03-04T10:11:57Z</time>
      </trkpt>
      <trkpt lat="44.416" lon="5.9076">
        <ele>1257.6</ele>
        <time>2012-03-04T10:12:02Z</time>
      </trkpt>
      <trkpt lat="44.41599" lon="5.90753">
        <ele>1255.5</ele>
        <time>2012-03-04T10:12:06Z</time>
      </trkpt>
      <trkpt lat="44.416" lon="5.90745">
        <ele>1258.1</ele>
        <time>2012-03-04T10:12:09Z</time>
      </trkpt>
      <trkpt lat="44.41603" lon="5.90736">
        <ele>1256.4</ele>
        <time>2012-03-04T10:12:12Z</time>
      </trkpt>
      <trkpt lat="44.41606" lon="5.90729">
        <ele>1255.2</ele>
        <time>2012-03-04T10:12:14Z</time>
      </trkpt>
      <trkpt lat="44.41607" lon="5.90724">
        <ele>1254.9</ele>
        <time>2012-03-04T10:12:16Z</time>
      </trkpt>
      <trkpt lat="44.41608" lon="5.90716">
        <ele>1256.7</ele>
        <time>2012-03-04T10:12:20Z</time>
      </trkpt>
      <trkpt lat="44.41608" lon="5.9071">
        <ele>1258.8</ele>
        <time>2012-03-04T10:12:26Z</time>
      </trkpt>
      <trkpt lat="44.41609" lon="5.90703">
        <ele>1257.4</ele>
        <time>2012-03-04T10:12:30Z</time>
      </trkpt>
      <trkpt lat="44.41611" lon="5.90695">
        <ele>1256.1</ele>
        <time>2012-03-04T10:12:31Z</time>
      </trkpt>
      <trkpt lat="44.4161" lon="5.90687">
        <ele>1259</ele>
        <time>2012-03-04T10:12:35Z</time>
      </trkpt>
      <trkpt lat="44.41611" lon="5.9068">
        <ele>1258.5</ele>
        <time>2012-03-04T10:12:38Z</time>
      </trkpt>
      <trkpt lat="44.41613" lon="5.90674">
        <ele>1255.8</ele>
        <time>2012-03-04T10:12:42Z</time>
      </trkpt>
      <trkpt lat="44.41616" lon="5.90669">
        <ele>1259.2</ele>
        <time>2012-03-04T10:12:46Z</time>
      </trkpt>
      <trkpt lat="44.41615" lon="5.90662">
        <ele>1259.3</ele>
        <time>2012-03-04T10:12:51Z</time>
      </trkpt>
      <trkpt lat="44.41613" lon="5.90655">
        <ele>1263.4</ele>
        <time>2012-03-04T10:12:56Z</time>
      </trkpt>
      <trkpt lat="44.41613" lon="5.90647">
        <ele>1263.8</ele>
        <time>2012-03-04T10:13:05Z</time>
      </trkpt>
      <trkpt lat="44.41612" lon="5.9064">
        <ele>1265.7</ele>
        <time>2012-03-04T10:13:08Z</time>
      </trkpt>
      <trkpt lat="44.41613" lon="5.90632">
        <ele>1266.5</ele>
        <time>2012-03-04T10:13:14Z</time>
      </trkpt>
      <trkpt lat="44.41607" lon="5.90634">
        <ele>1273.2</ele>
        <time>2012-03-04T10:13:22Z</time>
      </trkpt>
      <trkpt lat="44.41603" lon="5.90635">
        <ele>1278.8</ele>
        <time>2012-03-04T10:13:26Z</time>
      </trkpt>
      <trkpt lat="44.41599" lon="5.9064">
        <ele>1286.9</ele>
        <time>2012-03-04T10:13:31Z</time>
      </trkpt>
      <trkpt lat="44.41597" lon="5.90646">
        <ele>1286.7</ele>
        <time>2012-03-04T10:13:38Z</time>
      </trkpt>
      <trkpt lat="44.41595" lon="5.90653">
        <ele>1289.3</ele>
        <time>2012-03-04T10:14:20Z</time>
      </trkpt>
      <trkpt lat="44.41592" lon="5.9066">
        <ele>1285.8</ele>
        <time>2012-03-04T10:14:27Z</time>
      </trkpt>
      <trkpt lat="44.41589" lon="5.90666">
        <ele>1283.9</ele>
        <time>2012-03-04T10:14:42Z</time>
      </trkpt>
      <trkpt lat="44.41586" lon="5.90672">
        <ele>1283.5</ele>
        <time>2012-03-04T10:14:45Z</time>
      </trkpt>
      <trkpt lat="44.41584" lon="5.90679">
        <ele>1285.3</ele>
        <time>2012-03-04T10:14:48Z</time>
      </trkpt>
      <trkpt lat="44.4158" lon="5.90682">
        <ele>1285.1</ele>
        <time>2012-03-04T10:14:50Z</time>
      </trkpt>
      <trkpt lat="44.41575" lon="5.90686">
        <ele>1284.3</ele>
        <time>2012-03-04T10:14:55Z</time>
      </trkpt>
      <trkpt lat="44.41572" lon="5.9069">
        <ele>1285.2</ele>
        <time>2012-03-04T10:14:59Z</time>
      </trkpt>
      <trkpt lat="44.41567" lon="5.90692">
        <ele>1282.7</ele>
        <time>2012-03-04T10:15:08Z</time>
      </trkpt>
      <trkpt lat="44.41562" lon="5.90697">
        <ele>1282.2</ele>
        <time>2012-03-04T10:15:14Z</time>
      </trkpt>
      <trkpt lat="44.41558" lon="5.90701">
        <ele>1282.5</ele>
        <time>2012-03-04T10:15:16Z</time>
      </trkpt>
      <trkpt lat="44.41554" lon="5.90706">
        <ele>1281.5</ele>
        <time>2012-03-04T10:15:18Z</time>
      </trkpt>
      <trkpt lat="44.41549" lon="5.90711">
        <ele>1280.3</ele>
        <time>2012-03-04T10:15:20Z</time>
      </trkpt>
      <trkpt lat="44.41546" lon="5.90715">
        <ele>1278.5</ele>
        <time>2012-03-04T10:15:23Z</time>
      </trkpt>
      <trkpt lat="44.41542" lon="5.9072">
        <ele>1281.4</ele>
        <time>2012-03-04T10:15:27Z</time>
      </trkpt>
      <trkpt lat="44.41539" lon="5.90726">
        <ele>1279.1</ele>
        <time>2012-03-04T10:15:30Z</time>
      </trkpt>
      <trkpt lat="44.41537" lon="5.90732">
        <ele>1276.1</ele>
        <time>2012-03-04T10:15:34Z</time>
      </trkpt>
      <trkpt lat="44.41532" lon="5.90734">
        <ele>1275.8</ele>
        <time>2012-03-04T10:15:39Z</time>
      </trkpt>
      <trkpt lat="44.41529" lon="5.90738">
        <ele>1274.4</ele>
        <time>2012-03-04T10:15:44Z</time>
      </trkpt>
      <trkpt lat="44.41525" lon="5.90742">
        <ele>1271.4</ele>
        <time>2012-03-04T10:15:47Z</time>
      </trkpt>
      <trkpt lat="44.4152" lon="5.90746">
        <ele>1271.2</ele>
        <time>2012-03-04T10:15:51Z</time>
      </trkpt>
      <trkpt lat="44.41515" lon="5.9075">
        <ele>1269.9</ele>
        <time>2012-03-04T10:15:58Z</time>
      </trkpt>
      <trkpt lat="44.41515" lon="5.9075">
        <ele>1269.9</ele>
        <time>2012-03-04T10:15:58Z</time>
      </trkpt>
      <trkpt lat="44.41515" lon="5.9075">
        <ele>1269.9</ele>
        <time>2012-03-04T10:15:59Z</time>
      </trkpt>
      <trkpt lat="44.41511" lon="5.90753">
        <ele>1273.8</ele>
        <time>2012-03-04T10:16:07Z</time>
      </trkpt>
      <trkpt lat="44.41508" lon="5.9076">
        <ele>1276.2</ele>
        <time>2012-03-04T10:16:14Z</time>
      </trkpt>
      <trkpt lat="44.41503" lon="5.90763">
        <ele>1272.2</ele>
        <time>2012-03-04T10:16:20Z</time>
      </trkpt>
      <trkpt lat="44.41497" lon="5.90765">
        <ele>1269.6</ele>
        <time>2012-03-04T10:16:24Z</time>
      </trkpt>
      <trkpt lat="44.41491" lon="5.90763">
        <ele>1269.2</ele>
        <time>2012-03-04T10:16:35Z</time>
      </trkpt>
      <trkpt lat="44.41486" lon="5.90767">
        <ele>1268.7</ele>
        <time>2012-03-04T10:16:38Z</time>
      </trkpt>
      <trkpt lat="44.41482" lon="5.90771">
        <ele>1268.7</ele>
        <time>2012-03-04T10:16:41Z</time>
      </trkpt>
      <trkpt lat="44.41479" lon="5.90776">
        <ele>1268.7</ele>
        <time>2012-03-04T10:16:44Z</time>
      </trkpt>
      <trkpt lat="44.41476" lon="5.90781">
        <ele>1274.6</ele>
        <time>2012-03-04T10:16:50Z</time>
      </trkpt>
      <trkpt lat="44.41472" lon="5.90786">
        <ele>1270.3</ele>
        <time>2012-03-04T10:16:54Z</time>
      </trkpt>
      <trkpt lat="44.41469" lon="5.9079">
        <ele>1270.1</ele>
        <time>2012-03-04T10:16:57Z</time>
      </trkpt>
      <trkpt lat="44.41465" lon="5.90795">
        <ele>1272.1</ele>
        <time>2012-03-04T10:17:03Z</time>
      </trkpt>
      <trkpt lat="44.41461" lon="5.90799">
        <ele>1272.5</ele>
        <time>2012-03-04T10:17:08Z</time>
      </trkpt>
      <trkpt lat="44.41458" lon="5.90805">
        <ele>1277.5</ele>
        <time>2012-03-04T10:17:20Z</time>
      </trkpt>
      <trkpt lat="44.41454" lon="5.9081">
        <ele>1277.7</ele>
        <time>2012-03-04T10:17:27Z</time>
      </trkpt>
      <trkpt lat="44.41451" lon="5.90814">
        <ele>1280</ele>
        <time>2012-03-04T10:17:31Z</time>
      </trkpt>
      <trkpt lat="44.41446" lon="5.90818">
        <ele>1281.5</ele>
        <time>2012-03-04T10:17:35Z</time>
      </trkpt>
      <trkpt lat="44.41441" lon="5.90821">
        <ele>1278.4</ele>
        <time>2012-03-04T10:17:38Z</time>
      </trkpt>
      <trkpt lat="44.41436" lon="5.90821">
        <ele>1279.3</ele>
        <time>2012-03-04T10:17:40Z</time>
      </trkpt>
      <trkpt lat="44.41431" lon="5.90823">
        <ele>1276</ele>
        <time>2012-03-04T10:17:42Z</time>
      </trkpt>
      <trkpt lat="44.41426" lon="5.90827">
        <ele>1276.5</ele>
        <time>2012-03-04T10:17:45Z</time>
      </trkpt>
      <trkpt lat="44.41422" lon="5.90828">
        <ele>1281.3</ele>
        <time>2012-03-04T10:17:51Z</time>
      </trkpt>
      <trkpt lat="44.41417" lon="5.9083">
        <ele>1286.7</ele>
        <time>2012-03-04T10:17:57Z</time>
      </trkpt>
      <trkpt lat="44.41413" lon="5.90834">
        <ele>1286.1</ele>
        <time>2012-03-04T10:18:00Z</time>
      </trkpt>
      <trkpt lat="44.41408" lon="5.90837">
        <ele>1287.7</ele>
        <time>2012-03-04T10:18:03Z</time>
      </trkpt>
      <trkpt lat="44.41403" lon="5.90838">
        <ele>1288.7</ele>
        <time>2012-03-04T10:18:06Z</time>
      </trkpt>
      <trkpt lat="44.41404" lon="5.90831">
        <ele>1288.7</ele>
        <time>2012-03-04T10:18:11Z</time>
      </trkpt>
      <trkpt lat="44.41399" lon="5.90832">
        <ele>1297.6</ele>
        <time>2012-03-04T10:18:23Z</time>
      </trkpt>
      <trkpt lat="44.41395" lon="5.90835">
        <ele>1302</ele>
        <time>2012-03-04T10:18:27Z</time>
      </trkpt>
      <trkpt lat="44.41395" lon="5.90842">
        <ele>1307.8</ele>
        <time>2012-03-04T10:18:37Z</time>
      </trkpt>
      <trkpt lat="44.41392" lon="5.90847">
        <ele>1306.7</ele>
        <time>2012-03-04T10:18:50Z</time>
      </trkpt>
      <trkpt lat="44.41389" lon="5.90852">
        <ele>1303.7</ele>
        <time>2012-03-04T10:18:55Z</time>
      </trkpt>
      <trkpt lat="44.41383" lon="5.90857">
        <ele>1300.1</ele>
        <time>2012-03-04T10:18:58Z</time>
      </trkpt>
      <trkpt lat="44.41378" lon="5.90861">
        <ele>1299.3</ele>
        <time>2012-03-04T10:19:00Z</time>
      </trkpt>
      <trkpt lat="44.41374" lon="5.90866">
        <ele>1297.3</ele>
        <time>2012-03-04T10:19:02Z</time>
      </trkpt>
      <trkpt lat="44.41371" lon="5.90871">
        <ele>1294.7</ele>
        <time>2012-03-04T10:19:04Z</time>
      </trkpt>
      <trkpt lat="44.41368" lon="5.90876">
        <ele>1294.8</ele>
        <time>2012-03-04T10:19:06Z</time>
      </trkpt>
      <trkpt lat="44.41364" lon="5.90882">
        <ele>1288.6</ele>
        <time>2012-03-04T10:19:09Z</time>
      </trkpt>
      <trkpt lat="44.41361" lon="5.9089">
        <ele>1284.5</ele>
        <time>2012-03-04T10:19:12Z</time>
      </trkpt>
      <trkpt lat="44.41358" lon="5.90895">
        <ele>1286.5</ele>
        <time>2012-03-04T10:19:16Z</time>
      </trkpt>
      <trkpt lat="44.41352" lon="5.90899">
        <ele>1288.6</ele>
        <time>2012-03-04T10:19:19Z</time>
      </trkpt>
      <trkpt lat="44.41348" lon="5.90899">
        <ele>1289.6</ele>
        <time>2012-03-04T10:19:22Z</time>
      </trkpt>
      <trkpt lat="44.41343" lon="5.90896">
        <ele>1290</ele>
        <time>2012-03-04T10:19:26Z</time>
      </trkpt>
      <trkpt lat="44.41343" lon="5.9089">
        <ele>1289</ele>
        <time>2012-03-04T10:19:32Z</time>
      </trkpt>
      <trkpt lat="44.41346" lon="5.90883">
        <ele>1288.6</ele>
        <time>2012-03-04T10:19:36Z</time>
      </trkpt>
      <trkpt lat="44.41348" lon="5.90878">
        <ele>1286.7</ele>
        <time>2012-03-04T10:19:40Z</time>
      </trkpt>
      <trkpt lat="44.41351" lon="5.90871">
        <ele>1285.9</ele>
        <time>2012-03-04T10:19:45Z</time>
      </trkpt>
      <trkpt lat="44.41352" lon="5.90864">
        <ele>1288.8</ele>
        <time>2012-03-04T10:19:51Z</time>
      </trkpt>
      <trkpt lat="44.41353" lon="5.90858">
        <ele>1288</ele>
        <time>2012-03-04T10:19:57Z</time>
      </trkpt>
      <trkpt lat="44.41356" lon="5.90852">
        <ele>1288.8</ele>
        <time>2012-03-04T10:20:03Z</time>
      </trkpt>
      <trkpt lat="44.41359" lon="5.90846">
        <ele>1290.8</ele>
        <time>2012-03-04T10:20:08Z</time>
      </trkpt>
      <trkpt lat="44.41361" lon="5.90839">
        <ele>1291.8</ele>
        <time>2012-03-04T10:20:14Z</time>
      </trkpt>
      <trkpt lat="44.41363" lon="5.90829">
        <ele>1293.8</ele>
        <time>2012-03-04T10:20:16Z</time>
      </trkpt>
      <trkpt lat="44.41365" lon="5.90824">
        <ele>1298.4</ele>
        <time>2012-03-04T10:20:26Z</time>
      </trkpt>
      <trkpt lat="44.41368" lon="5.90818">
        <ele>1296</ele>
        <time>2012-03-04T10:20:33Z</time>
      </trkpt>
      <trkpt lat="44.41369" lon="5.90811">
        <ele>1296.2</ele>
        <time>2012-03-04T10:20:38Z</time>
      </trkpt>
      <trkpt lat="44.41371" lon="5.90805">
        <ele>1298.1</ele>
        <time>2012-03-04T10:20:41Z</time>
      </trkpt>
      <trkpt lat="44.41373" lon="5.90799">
        <ele>1303.3</ele>
        <time>2012-03-04T10:20:50Z</time>
      </trkpt>
      <trkpt lat="44.41377" lon="5.90796">
        <ele>1304.9</ele>
        <time>2012-03-04T10:20:55Z</time>
      </trkpt>
      <trkpt lat="44.41382" lon="5.90793">
        <ele>1306.5</ele>
        <time>2012-03-04T10:20:59Z</time>
      </trkpt>
      <trkpt lat="44.41387" lon="5.90793">
        <ele>1311</ele>
        <time>2012-03-04T10:21:05Z</time>
      </trkpt>
      <trkpt lat="44.41392" lon="5.90791">
        <ele>1311.9</ele>
        <time>2012-03-04T10:21:09Z</time>
      </trkpt>
      <trkpt lat="44.41396" lon="5.90788">
        <ele>1311.4</ele>
        <time>2012-03-04T10:21:12Z</time>
      </trkpt>
      <trkpt lat="44.414" lon="5.90787">
        <ele>1311.3</ele>
        <time>2012-03-04T10:21:15Z</time>
      </trkpt>
      <trkpt lat="44.41405" lon="5.90784">
        <ele>1310</ele>
        <time>2012-03-04T10:21:19Z</time>
      </trkpt>
      <trkpt lat="44.41408" lon="5.90779">
        <ele>1308</ele>
        <time>2012-03-04T10:21:22Z</time>
      </trkpt>
      <trkpt lat="44.41412" lon="5.90775">
        <ele>1308.8</ele>
        <time>2012-03-04T10:21:25Z</time>
      </trkpt>
      <trkpt lat="44.41416" lon="5.9077">
        <ele>1310.6</ele>
        <time>2012-03-04T10:21:29Z</time>
      </trkpt>
      <trkpt lat="44.41419" lon="5.90765">
        <ele>1311.2</ele>
        <time>2012-03-04T10:21:33Z</time>
      </trkpt>
      <trkpt lat="44.41421" lon="5.90759">
        <ele>1311.1</ele>
        <time>2012-03-04T10:21:36Z</time>
      </trkpt>
      <trkpt lat="44.41423" lon="5.90753">
        <ele>1312.2</ele>
        <time>2012-03-04T10:21:40Z</time>
      </trkpt>
      <trkpt lat="44.41423" lon="5.90746">
        <ele>1313.1</ele>
        <time>2012-03-04T10:21:44Z</time>
      </trkpt>
      <trkpt lat="44.41425" lon="5.9074">
        <ele>1316.1</ele>
        <time>2012-03-04T10:21:50Z</time>
      </trkpt>
      <trkpt lat="44.41425" lon="5.90733">
        <ele>1315.3</ele>
        <time>2012-03-04T10:21:59Z</time>
      </trkpt>
      <trkpt lat="44.41428" lon="5.90725">
        <ele>1315</ele>
        <time>2012-03-04T10:22:17Z</time>
      </trkpt>
      <trkpt lat="44.41431" lon="5.90717">
        <ele>1315</ele>
        <time>2012-03-04T10:22:20Z</time>
      </trkpt>
      <trkpt lat="44.41434" lon="5.90711">
        <ele>1313.2</ele>
        <time>2012-03-04T10:22:22Z</time>
      </trkpt>
      <trkpt lat="44.41436" lon="5.90705">
        <ele>1312.9</ele>
        <time>2012-03-04T10:22:25Z</time>
      </trkpt>
      <trkpt lat="44.4144" lon="5.90699">
        <ele>1314</ele>
        <time>2012-03-04T10:22:28Z</time>
      </trkpt>
      <trkpt lat="44.41442" lon="5.90693">
        <ele>1310.8</ele>
        <time>2012-03-04T10:22:32Z</time>
      </trkpt>
      <trkpt lat="44.41444" lon="5.90685">
        <ele>1314.2</ele>
        <time>2012-03-04T10:22:36Z</time>
      </trkpt>
      <trkpt lat="44.41446" lon="5.90678">
        <ele>1314.1</ele>
        <time>2012-03-04T10:22:40Z</time>
      </trkpt>
      <trkpt lat="44.4145" lon="5.90673">
        <ele>1315.4</ele>
        <time>2012-03-04T10:22:43Z</time>
      </trkpt>
      <trkpt lat="44.41454" lon="5.90668">
        <ele>1313.5</ele>
        <time>2012-03-04T10:22:48Z</time>
      </trkpt>
      <trkpt lat="44.41458" lon="5.90665">
        <ele>1317.3</ele>
        <time>2012-03-04T10:23:06Z</time>
      </trkpt>
      <trkpt lat="44.4146" lon="5.90659">
        <ele>1316.9</ele>
        <time>2012-03-04T10:23:09Z</time>
      </trkpt>
      <trkpt lat="44.41462" lon="5.90651">
        <ele>1316.2</ele>
        <time>2012-03-04T10:23:12Z</time>
      </trkpt>
      <trkpt lat="44.41465" lon="5.90644">
        <ele>1316.8</ele>
        <time>2012-03-04T10:23:17Z</time>
      </trkpt>
      <trkpt lat="44.4147" lon="5.90641">
        <ele>1317.1</ele>
        <time>2012-03-04T10:23:21Z</time>
      </trkpt>
      <trkpt lat="44.41473" lon="5.90634">
        <ele>1315.9</ele>
        <time>2012-03-04T10:23:30Z</time>
      </trkpt>
      <trkpt lat="44.41476" lon="5.90624">
        <ele>1318.3</ele>
        <time>2012-03-04T10:23:34Z</time>
      </trkpt>
      <trkpt lat="44.41477" lon="5.90617">
        <ele>1318.6</ele>
        <time>2012-03-04T10:23:36Z</time>
      </trkpt>
      <trkpt lat="44.41478" lon="5.90609">
        <ele>1318.7</ele>
        <time>2012-03-04T10:23:39Z</time>
      </trkpt>
      <trkpt lat="44.41482" lon="5.90603">
        <ele>1316.5</ele>
        <time>2012-03-04T10:23:42Z</time>
      </trkpt>
      <trkpt lat="44.41484" lon="5.90596">
        <ele>1317.2</ele>
        <time>2012-03-04T10:23:48Z</time>
      </trkpt>
      <trkpt lat="44.41487" lon="5.90591">
        <ele>1317.4</ele>
        <time>2012-03-04T10:23:50Z</time>
      </trkpt>
      <trkpt lat="44.4149" lon="5.90585">
        <ele>1319.4</ele>
        <time>2012-03-04T10:23:53Z</time>
      </trkpt>
      <trkpt lat="44.41495" lon="5.90584">
        <ele>1317.4</ele>
        <time>2012-03-04T10:23:57Z</time>
      </trkpt>
      <trkpt lat="44.415" lon="5.90581">
        <ele>1318.4</ele>
        <time>2012-03-04T10:24:01Z</time>
      </trkpt>
      <trkpt lat="44.41503" lon="5.90575">
        <ele>1323.1</ele>
        <time>2012-03-04T10:24:05Z</time>
      </trkpt>
      <trkpt lat="44.41506" lon="5.90568">
        <ele>1321.8</ele>
        <time>2012-03-04T10:24:09Z</time>
      </trkpt>
      <trkpt lat="44.41509" lon="5.90562">
        <ele>1320.6</ele>
        <time>2012-03-04T10:24:12Z</time>
      </trkpt>
      <trkpt lat="44.41513" lon="5.90556">
        <ele>1318.5</ele>
        <time>2012-03-04T10:24:16Z</time>
      </trkpt>
      <trkpt lat="44.41511" lon="5.90548">
        <ele>1320.4</ele>
        <time>2012-03-04T10:24:20Z</time>
      </trkpt>
      <trkpt lat="44.41514" lon="5.90541">
        <ele>1322</ele>
        <time>2012-03-04T10:24:24Z</time>
      </trkpt>
      <trkpt lat="44.41517" lon="5.90536">
        <ele>1321.3</ele>
        <time>2012-03-04T10:24:27Z</time>
      </trkpt>
      <trkpt lat="44.4152" lon="5.90531">
        <ele>1323.4</ele>
        <time>2012-03-04T10:24:30Z</time>
      </trkpt>
      <trkpt lat="44.41521" lon="5.90524">
        <ele>1322</ele>
        <time>2012-03-04T10:24:37Z</time>
      </trkpt>
      <trkpt lat="44.41523" lon="5.90516">
        <ele>1320.3</ele>
        <time>2012-03-04T10:24:40Z</time>
      </trkpt>
      <trkpt lat="44.41524" lon="5.90509">
        <ele>1320.1</ele>
        <time>2012-03-04T10:24:43Z</time>
      </trkpt>
      <trkpt lat="44.41522" lon="5.90503">
        <ele>1320.1</ele>
        <time>2012-03-04T10:24:49Z</time>
      </trkpt>
      <trkpt lat="44.41519" lon="5.90498">
        <ele>1322.4</ele>
        <time>2012-03-04T10:24:53Z</time>
      </trkpt>
      <trkpt lat="44.41514" lon="5.90496">
        <ele>1322.9</ele>
        <time>2012-03-04T10:24:57Z</time>
      </trkpt>
      <trkpt lat="44.4151" lon="5.90492">
        <ele>1322.1</ele>
        <time>2012-03-04T10:25:02Z</time>
      </trkpt>
      <trkpt lat="44.41514" lon="5.90488">
        <ele>1322.6</ele>
        <time>2012-03-04T10:25:10Z</time>
      </trkpt>
      <trkpt lat="44.41511" lon="5.90493">
        <ele>1324.1</ele>
        <time>2012-03-04T10:25:17Z</time>
      </trkpt>
      <trkpt lat="44.41508" lon="5.90497">
        <ele>1337.3</ele>
        <time>2012-03-04T10:25:27Z</time>
      </trkpt>
      <trkpt lat="44.41504" lon="5.90502">
        <ele>1335.7</ele>
        <time>2012-03-04T10:25:32Z</time>
      </trkpt>
      <trkpt lat="44.41502" lon="5.90509">
        <ele>1335.5</ele>
        <time>2012-03-04T10:25:37Z</time>
      </trkpt>
      <trkpt lat="44.41498" lon="5.90515">
        <ele>1332.9</ele>
        <time>2012-03-04T10:25:41Z</time>
      </trkpt>
      <trkpt lat="44.41494" lon="5.9052">
        <ele>1334.1</ele>
        <time>2012-03-04T10:25:45Z</time>
      </trkpt>
      <trkpt lat="44.41491" lon="5.90525">
        <ele>1333.4</ele>
        <time>2012-03-04T10:25:53Z</time>
      </trkpt>
      <trkpt lat="44.41486" lon="5.90529">
        <ele>1333.1</ele>
        <time>2012-03-04T10:25:57Z</time>
      </trkpt>
      <trkpt lat="44.41482" lon="5.90533">
        <ele>1333.7</ele>
        <time>2012-03-04T10:26:00Z</time>
      </trkpt>
      <trkpt lat="44.41478" lon="5.90537">
        <ele>1334.1</ele>
        <time>2012-03-04T10:26:02Z</time>
      </trkpt>
      <trkpt lat="44.41474" lon="5.90541">
        <ele>1333.2</ele>
        <time>2012-03-04T10:26:05Z</time>
      </trkpt>
      <trkpt lat="44.41469" lon="5.90545">
        <ele>1329.7</ele>
        <time>2012-03-04T10:26:08Z</time>
      </trkpt>
      <trkpt lat="44.41465" lon="5.9055">
        <ele>1333.2</ele>
        <time>2012-03-04T10:26:12Z</time>
      </trkpt>
      <trkpt lat="44.41461" lon="5.90555">
        <ele>1333.4</ele>
        <time>2012-03-04T10:26:16Z</time>
      </trkpt>
      <trkpt lat="44.41456" lon="5.90562">
        <ele>1334.9</ele>
        <time>2012-03-04T10:26:19Z</time>
      </trkpt>
      <trkpt lat="44.41452" lon="5.90568">
        <ele>1336.7</ele>
        <time>2012-03-04T10:26:22Z</time>
      </trkpt>
      <trkpt lat="44.41448" lon="5.90571">
        <ele>1339.4</ele>
        <time>2012-03-04T10:26:27Z</time>
      </trkpt>
      <trkpt lat="44.41444" lon="5.90574">
        <ele>1340.4</ele>
        <time>2012-03-04T10:26:31Z</time>
      </trkpt>
      <trkpt lat="44.41443" lon="5.90581">
        <ele>1340</ele>
        <time>2012-03-04T10:26:34Z</time>
      </trkpt>
      <trkpt lat="44.41438" lon="5.90583">
        <ele>1336.3</ele>
        <time>2012-03-04T10:26:37Z</time>
      </trkpt>
      <trkpt lat="44.41438" lon="5.90583">
        <ele>1336.3</ele>
        <time>2012-03-04T10:26:37Z</time>
      </trkpt>
      <trkpt lat="44.41438" lon="5.90583">
        <ele>1336.3</ele>
        <time>2012-03-04T10:26:38Z</time>
      </trkpt>
      <trkpt lat="44.41435" lon="5.90588">
        <ele>1342.5</ele>
        <time>2012-03-04T10:26:47Z</time>
      </trkpt>
      <trkpt lat="44.41431" lon="5.90592">
        <ele>1343.6</ele>
        <time>2012-03-04T10:26:53Z</time>
      </trkpt>
      <trkpt lat="44.41429" lon="5.90598">
        <ele>1342.8</ele>
        <time>2012-03-04T10:26:58Z</time>
      </trkpt>
      <trkpt lat="44.41429" lon="5.90605">
        <ele>1343.1</ele>
        <time>2012-03-04T10:27:08Z</time>
      </trkpt>
      <trkpt lat="44.41429" lon="5.90605">
        <ele>1343.1</ele>
        <time>2012-03-04T10:27:08Z</time>
      </trkpt>
      <trkpt lat="44.41429" lon="5.90605">
        <ele>1343.1</ele>
        <time>2012-03-04T10:27:09Z</time>
      </trkpt>
      <trkpt lat="44.41427" lon="5.90612">
        <ele>1342.9</ele>
        <time>2012-03-04T10:27:15Z</time>
      </trkpt>
      <trkpt lat="44.41422" lon="5.90617">
        <ele>1348.3</ele>
        <time>2012-03-04T10:27:19Z</time>
      </trkpt>
      <trkpt lat="44.41417" lon="5.90619">
        <ele>1358.3</ele>
        <time>2012-03-04T10:27:28Z</time>
      </trkpt>
      <trkpt lat="44.41412" lon="5.90622">
        <ele>1359</ele>
        <time>2012-03-04T10:27:31Z</time>
      </trkpt>
      <trkpt lat="44.41407" lon="5.90624">
        <ele>1356.4</ele>
        <time>2012-03-04T10:27:33Z</time>
      </trkpt>
      <trkpt lat="44.41402" lon="5.90626">
        <ele>1355.4</ele>
        <time>2012-03-04T10:27:35Z</time>
      </trkpt>
      <trkpt lat="44.41398" lon="5.90628">
        <ele>1355.7</ele>
        <time>2012-03-04T10:27:37Z</time>
      </trkpt>
      <trkpt lat="44.41392" lon="5.90628">
        <ele>1358</ele>
        <time>2012-03-04T10:27:40Z</time>
      </trkpt>
      <trkpt lat="44.41386" lon="5.90628">
        <ele>1359.5</ele>
        <time>2012-03-04T10:27:44Z</time>
      </trkpt>
      <trkpt lat="44.41382" lon="5.90628">
        <ele>1358.3</ele>
        <time>2012-03-04T10:27:47Z</time>
      </trkpt>
      <trkpt lat="44.41377" lon="5.90629">
        <ele>1356.8</ele>
        <time>2012-03-04T10:27:50Z</time>
      </trkpt>
      <trkpt lat="44.41371" lon="5.90632">
        <ele>1360.1</ele>
        <time>2012-03-04T10:27:55Z</time>
      </trkpt>
      <trkpt lat="44.41366" lon="5.90636">
        <ele>1358.2</ele>
        <time>2012-03-04T10:27:58Z</time>
      </trkpt>
      <trkpt lat="44.41361" lon="5.90641">
        <ele>1360.6</ele>
        <time>2012-03-04T10:28:02Z</time>
      </trkpt>
      <trkpt lat="44.41359" lon="5.90649">
        <ele>1375.3</ele>
        <time>2012-03-04T10:28:12Z</time>
      </trkpt>
      <trkpt lat="44.41356" lon="5.90654">
        <ele>1372.9</ele>
        <time>2012-03-04T10:28:15Z</time>
      </trkpt>
      <trkpt lat="44.41354" lon="5.9066">
        <ele>1372.9</ele>
        <time>2012-03-04T10:28:18Z</time>
      </trkpt>
      <trkpt lat="44.41351" lon="5.90665">
        <ele>1372.3</ele>
        <time>2012-03-04T10:28:22Z</time>
      </trkpt>
      <trkpt lat="44.41349" lon="5.90671">
        <ele>1368.2</ele>
        <time>2012-03-04T10:28:25Z</time>
      </trkpt>
      <trkpt lat="44.41348" lon="5.90679">
        <ele>1369.3</ele>
        <time>2012-03-04T10:28:28Z</time>
      </trkpt>
      <trkpt lat="44.41346" lon="5.90686">
        <ele>1368.8</ele>
        <time>2012-03-04T10:28:31Z</time>
      </trkpt>
      <trkpt lat="44.41342" lon="5.90694">
        <ele>1363.9</ele>
        <time>2012-03-04T10:28:34Z</time>
      </trkpt>
      <trkpt lat="44.41337" lon="5.90699">
        <ele>1364</ele>
        <time>2012-03-04T10:28:37Z</time>
      </trkpt>
      <trkpt lat="44.41333" lon="5.90705">
        <ele>1361.5</ele>
        <time>2012-03-04T10:28:41Z</time>
      </trkpt>
      <trkpt lat="44.4133" lon="5.90711">
        <ele>1368.7</ele>
        <time>2012-03-04T10:28:45Z</time>
      </trkpt>
      <trkpt lat="44.41329" lon="5.90718">
        <ele>1371.9</ele>
        <time>2012-03-04T10:28:50Z</time>
      </trkpt>
      <trkpt lat="44.41328" lon="5.90724">
        <ele>1371.9</ele>
        <time>2012-03-04T10:28:54Z</time>
      </trkpt>
      <trkpt lat="44.41328" lon="5.9073">
        <ele>1378.2</ele>
        <time>2012-03-04T10:28:58Z</time>
      </trkpt>
      <trkpt lat="44.41327" lon="5.90737">
        <ele>1373.7</ele>
        <time>2012-03-04T10:29:01Z</time>
      </trkpt>
      <trkpt lat="44.41325" lon="5.90743">
        <ele>1372.9</ele>
        <time>2012-03-04T10:29:04Z</time>
      </trkpt>
      <trkpt lat="44.41322" lon="5.90748">
        <ele>1370.8</ele>
        <time>2012-03-04T10:29:06Z</time>
      </trkpt>
      <trkpt lat="44.41318" lon="5.90754">
        <ele>1371.1</ele>
        <time>2012-03-04T10:29:09Z</time>
      </trkpt>
      <trkpt lat="44.41314" lon="5.90758">
        <ele>1370.7</ele>
        <time>2012-03-04T10:29:12Z</time>
      </trkpt>
      <trkpt lat="44.41308" lon="5.90762">
        <ele>1369</ele>
        <time>2012-03-04T10:29:16Z</time>
      </trkpt>
      <trkpt lat="44.41304" lon="5.90761">
        <ele>1367.7</ele>
        <time>2012-03-04T10:29:20Z</time>
      </trkpt>
      <trkpt lat="44.41299" lon="5.90759">
        <ele>1366</ele>
        <time>2012-03-04T10:29:25Z</time>
      </trkpt>
      <trkpt lat="44.41294" lon="5.90759">
        <ele>1365.4</ele>
        <time>2012-03-04T10:29:34Z</time>
      </trkpt>
      <trkpt lat="44.41289" lon="5.90758">
        <ele>1362.9</ele>
        <time>2012-03-04T10:29:37Z</time>
      </trkpt>
      <trkpt lat="44.41284" lon="5.90758">
        <ele>1361.2</ele>
        <time>2012-03-04T10:29:40Z</time>
      </trkpt>
      <trkpt lat="44.41279" lon="5.9076">
        <ele>1361.9</ele>
        <time>2012-03-04T10:29:43Z</time>
      </trkpt>
      <trkpt lat="44.41274" lon="5.90761">
        <ele>1361</ele>
        <time>2012-03-04T10:29:46Z</time>
      </trkpt>
      <trkpt lat="44.4127" lon="5.90761">
        <ele>1364.8</ele>
        <time>2012-03-04T10:29:49Z</time>
      </trkpt>
      <trkpt lat="44.41264" lon="5.90762">
        <ele>1364.3</ele>
        <time>2012-03-04T10:29:53Z</time>
      </trkpt>
      <trkpt lat="44.41259" lon="5.90762">
        <ele>1365.7</ele>
        <time>2012-03-04T10:29:58Z</time>
      </trkpt>
      <trkpt lat="44.41253" lon="5.90762">
        <ele>1367.6</ele>
        <time>2012-03-04T10:30:03Z</time>
      </trkpt>
      <trkpt lat="44.41248" lon="5.90762">
        <ele>1366.4</ele>
        <time>2012-03-04T10:30:06Z</time>
      </trkpt>
      <trkpt lat="44.41243" lon="5.90762">
        <ele>1365.8</ele>
        <time>2012-03-04T10:30:09Z</time>
      </trkpt>
      <trkpt lat="44.41238" lon="5.90761">
        <ele>1365.1</ele>
        <time>2012-03-04T10:30:14Z</time>
      </trkpt>
      <trkpt lat="44.41233" lon="5.9076">
        <ele>1364.3</ele>
        <time>2012-03-04T10:30:18Z</time>
      </trkpt>
      <trkpt lat="44.41229" lon="5.90755">
        <ele>1370.6</ele>
        <time>2012-03-04T10:30:34Z</time>
      </trkpt>
      <trkpt lat="44.41224" lon="5.90758">
        <ele>1373.9</ele>
        <time>2012-03-04T10:30:43Z</time>
      </trkpt>
      <trkpt lat="44.41221" lon="5.90764">
        <ele>1382.8</ele>
        <time>2012-03-04T10:30:54Z</time>
      </trkpt>
      <trkpt lat="44.41218" lon="5.9077">
        <ele>1384.1</ele>
        <time>2012-03-04T10:31:00Z</time>
      </trkpt>
      <trkpt lat="44.41216" lon="5.90776">
        <ele>1386.4</ele>
        <time>2012-03-04T10:31:05Z</time>
      </trkpt>
      <trkpt lat="44.41213" lon="5.90783">
        <ele>1390.2</ele>
        <time>2012-03-04T10:31:12Z</time>
      </trkpt>
      <trkpt lat="44.41207" lon="5.90786">
        <ele>1390.7</ele>
        <time>2012-03-04T10:31:17Z</time>
      </trkpt>
      <trkpt lat="44.41203" lon="5.9079">
        <ele>1391.6</ele>
        <time>2012-03-04T10:31:22Z</time>
      </trkpt>
      <trkpt lat="44.41199" lon="5.90793">
        <ele>1393.5</ele>
        <time>2012-03-04T10:31:26Z</time>
      </trkpt>
      <trkpt lat="44.41195" lon="5.90794">
        <ele>1392.2</ele>
        <time>2012-03-04T10:31:29Z</time>
      </trkpt>
      <trkpt lat="44.4119" lon="5.90798">
        <ele>1388.7</ele>
        <time>2012-03-04T10:31:34Z</time>
      </trkpt>
      <trkpt lat="44.41185" lon="5.908">
        <ele>1388.5</ele>
        <time>2012-03-04T10:31:39Z</time>
      </trkpt>
      <trkpt lat="44.41186" lon="5.90808">
        <ele>1385.4</ele>
        <time>2012-03-04T10:31:44Z</time>
      </trkpt>
      <trkpt lat="44.41186" lon="5.90815">
        <ele>1385.4</ele>
        <time>2012-03-04T10:31:49Z</time>
      </trkpt>
      <trkpt lat="44.41181" lon="5.90817">
        <ele>1389</ele>
        <time>2012-03-04T10:31:54Z</time>
      </trkpt>
      <trkpt lat="44.41177" lon="5.90822">
        <ele>1381.5</ele>
        <time>2012-03-04T10:32:00Z</time>
      </trkpt>
      <trkpt lat="44.41173" lon="5.90827">
        <ele>1382</ele>
        <time>2012-03-04T10:32:07Z</time>
      </trkpt>
      <trkpt lat="44.4117" lon="5.90833">
        <ele>1377.3</ele>
        <time>2012-03-04T10:32:11Z</time>
      </trkpt>
      <trkpt lat="44.41171" lon="5.9084">
        <ele>1383.8</ele>
        <time>2012-03-04T10:32:19Z</time>
      </trkpt>
      <trkpt lat="44.4117" lon="5.90846">
        <ele>1380.6</ele>
        <time>2012-03-04T10:32:23Z</time>
      </trkpt>
      <trkpt lat="44.41168" lon="5.90853">
        <ele>1382.1</ele>
        <time>2012-03-04T10:32:26Z</time>
      </trkpt>
      <trkpt lat="44.41167" lon="5.90859">
        <ele>1380.5</ele>
        <time>2012-03-04T10:32:32Z</time>
      </trkpt>
      <trkpt lat="44.41165" lon="5.90865">
        <ele>1383.5</ele>
        <time>2012-03-04T10:32:39Z</time>
      </trkpt>
      <trkpt lat="44.41163" lon="5.90871">
        <ele>1384.6</ele>
        <time>2012-03-04T10:32:43Z</time>
      </trkpt>
      <trkpt lat="44.41158" lon="5.90876">
        <ele>1382.4</ele>
        <time>2012-03-04T10:32:48Z</time>
      </trkpt>
      <trkpt lat="44.41155" lon="5.9088">
        <ele>1381.3</ele>
        <time>2012-03-04T10:32:53Z</time>
      </trkpt>
      <trkpt lat="44.41153" lon="5.90886">
        <ele>1381.4</ele>
        <time>2012-03-04T10:32:59Z</time>
      </trkpt>
      <trkpt lat="44.4115" lon="5.90892">
        <ele>1382.6</ele>
        <time>2012-03-04T10:33:07Z</time>
      </trkpt>
      <trkpt lat="44.41146" lon="5.90897">
        <ele>1382.8</ele>
        <time>2012-03-04T10:33:12Z</time>
      </trkpt>
      <trkpt lat="44.41142" lon="5.90902">
        <ele>1380.5</ele>
        <time>2012-03-04T10:33:16Z</time>
      </trkpt>
      <trkpt lat="44.41139" lon="5.90906">
        <ele>1379.9</ele>
        <time>2012-03-04T10:33:21Z</time>
      </trkpt>
      <trkpt lat="44.41134" lon="5.90908">
        <ele>1380.7</ele>
        <time>2012-03-04T10:33:25Z</time>
      </trkpt>
      <trkpt lat="44.41132" lon="5.90914">
        <ele>1379</ele>
        <time>2012-03-04T10:33:29Z</time>
      </trkpt>
      <trkpt lat="44.41129" lon="5.9092">
        <ele>1376.5</ele>
        <time>2012-03-04T10:33:34Z</time>
      </trkpt>
      <trkpt lat="44.41128" lon="5.90927">
        <ele>1379.4</ele>
        <time>2012-03-04T10:33:41Z</time>
      </trkpt>
      <trkpt lat="44.41126" lon="5.90933">
        <ele>1380.4</ele>
        <time>2012-03-04T10:33:45Z</time>
      </trkpt>
      <trkpt lat="44.41125" lon="5.9094">
        <ele>1385.6</ele>
        <time>2012-03-04T10:33:51Z</time>
      </trkpt>
      <trkpt lat="44.41123" lon="5.90946">
        <ele>1384.5</ele>
        <time>2012-03-04T10:33:57Z</time>
      </trkpt>
      <trkpt lat="44.41121" lon="5.90952">
        <ele>1384.5</ele>
        <time>2012-03-04T10:34:02Z</time>
      </trkpt>
      <trkpt lat="44.41118" lon="5.90958">
        <ele>1383.1</ele>
        <time>2012-03-04T10:34:08Z</time>
      </trkpt>
      <trkpt lat="44.41114" lon="5.90962">
        <ele>1381.9</ele>
        <time>2012-03-04T10:34:14Z</time>
      </trkpt>
      <trkpt lat="44.41111" lon="5.90968">
        <ele>1386.5</ele>
        <time>2012-03-04T10:34:20Z</time>
      </trkpt>
      <trkpt lat="44.41108" lon="5.90973">
        <ele>1387.4</ele>
        <time>2012-03-04T10:34:25Z</time>
      </trkpt>
      <trkpt lat="44.41105" lon="5.90979">
        <ele>1389.8</ele>
        <time>2012-03-04T10:34:31Z</time>
      </trkpt>
      <trkpt lat="44.41101" lon="5.90983">
        <ele>1387.3</ele>
        <time>2012-03-04T10:34:35Z</time>
      </trkpt>
      <trkpt lat="44.41097" lon="5.90988">
        <ele>1390.2</ele>
        <time>2012-03-04T10:34:40Z</time>
      </trkpt>
      <trkpt lat="44.41094" lon="5.90992">
        <ele>1389.8</ele>
        <time>2012-03-04T10:34:45Z</time>
      </trkpt>
      <trkpt lat="44.41091" lon="5.90998">
        <ele>1390.4</ele>
        <time>2012-03-04T10:34:52Z</time>
      </trkpt>
      <trkpt lat="44.41088" lon="5.91005">
        <ele>1392.3</ele>
        <time>2012-03-04T10:35:00Z</time>
      </trkpt>
      <trkpt lat="44.41086" lon="5.9101">
        <ele>1393.4</ele>
        <time>2012-03-04T10:35:05Z</time>
      </trkpt>
      <trkpt lat="44.41082" lon="5.91016">
        <ele>1392.6</ele>
        <time>2012-03-04T10:35:11Z</time>
      </trkpt>
      <trkpt lat="44.41078" lon="5.91021">
        <ele>1394.2</ele>
        <time>2012-03-04T10:35:16Z</time>
      </trkpt>
      <trkpt lat="44.41076" lon="5.91028">
        <ele>1397.1</ele>
        <time>2012-03-04T10:35:22Z</time>
      </trkpt>
      <trkpt lat="44.41073" lon="5.91032">
        <ele>1394.1</ele>
        <time>2012-03-04T10:35:27Z</time>
      </trkpt>
      <trkpt lat="44.4107" lon="5.91038">
        <ele>1395.7</ele>
        <time>2012-03-04T10:35:32Z</time>
      </trkpt>
      <trkpt lat="44.41066" lon="5.91043">
        <ele>1397.9</ele>
        <time>2012-03-04T10:35:36Z</time>
      </trkpt>
      <trkpt lat="44.41066" lon="5.9105">
        <ele>1400</ele>
        <time>2012-03-04T10:35:42Z</time>
      </trkpt>
      <trkpt lat="44.41064" lon="5.91056">
        <ele>1400.3</ele>
        <time>2012-03-04T10:35:49Z</time>
      </trkpt>
      <trkpt lat="44.41061" lon="5.91061">
        <ele>1399.5</ele>
        <time>2012-03-04T10:35:53Z</time>
      </trkpt>
      <trkpt lat="44.41056" lon="5.91065">
        <ele>1395.8</ele>
        <time>2012-03-04T10:36:00Z</time>
      </trkpt>
      <trkpt lat="44.41052" lon="5.91069">
        <ele>1395.3</ele>
        <time>2012-03-04T10:36:04Z</time>
      </trkpt>
      <trkpt lat="44.4105" lon="5.91075">
        <ele>1398.3</ele>
        <time>2012-03-04T10:36:09Z</time>
      </trkpt>
      <trkpt lat="44.41046" lon="5.9108">
        <ele>1399.8</ele>
        <time>2012-03-04T10:36:12Z</time>
      </trkpt>
      <trkpt lat="44.41044" lon="5.91085">
        <ele>1405.3</ele>
        <time>2012-03-04T10:36:19Z</time>
      </trkpt>
      <trkpt lat="44.41042" lon="5.91092">
        <ele>1406.6</ele>
        <time>2012-03-04T10:36:25Z</time>
      </trkpt>
      <trkpt lat="44.41043" lon="5.91099">
        <ele>1409.9</ele>
        <time>2012-03-04T10:36:31Z</time>
      </trkpt>
      <trkpt lat="44.41041" lon="5.91105">
        <ele>1415</ele>
        <time>2012-03-04T10:36:38Z</time>
      </trkpt>
      <trkpt lat="44.41039" lon="5.91112">
        <ele>1415.5</ele>
        <time>2012-03-04T10:36:44Z</time>
      </trkpt>
      <trkpt lat="44.4104" lon="5.9112">
        <ele>1416.9</ele>
        <time>2012-03-04T10:36:48Z</time>
      </trkpt>
      <trkpt lat="44.41037" lon="5.91126">
        <ele>1412.7</ele>
        <time>2012-03-04T10:36:52Z</time>
      </trkpt>
      <trkpt lat="44.41036" lon="5.91133">
        <ele>1413.3</ele>
        <time>2012-03-04T10:36:56Z</time>
      </trkpt>
      <trkpt lat="44.41032" lon="5.91138">
        <ele>1423.1</ele>
        <time>2012-03-04T10:37:04Z</time>
      </trkpt>
      <trkpt lat="44.4103" lon="5.91146">
        <ele>1416.2</ele>
        <time>2012-03-04T10:37:08Z</time>
      </trkpt>
      <trkpt lat="44.41025" lon="5.91152">
        <ele>1421.2</ele>
        <time>2012-03-04T10:37:20Z</time>
      </trkpt>
      <trkpt lat="44.41023" lon="5.91158">
        <ele>1418.6</ele>
        <time>2012-03-04T10:37:29Z</time>
      </trkpt>
      <trkpt lat="44.41021" lon="5.91165">
        <ele>1418.7</ele>
        <time>2012-03-04T10:37:33Z</time>
      </trkpt>
      <trkpt lat="44.41018" lon="5.91171">
        <ele>1422.1</ele>
        <time>2012-03-04T10:37:40Z</time>
      </trkpt>
      <trkpt lat="44.41016" lon="5.91178">
        <ele>1423.7</ele>
        <time>2012-03-04T10:37:51Z</time>
      </trkpt>
      <trkpt lat="44.4101" lon="5.91181">
        <ele>1425.2</ele>
        <time>2012-03-04T10:37:55Z</time>
      </trkpt>
      <trkpt lat="44.41005" lon="5.91179">
        <ele>1423.5</ele>
        <time>2012-03-04T10:37:58Z</time>
      </trkpt>
      <trkpt lat="44.41002" lon="5.91185">
        <ele>1420</ele>
        <time>2012-03-04T10:38:04Z</time>
      </trkpt>
      <trkpt lat="44.41001" lon="5.91192">
        <ele>1422.2</ele>
        <time>2012-03-04T10:38:07Z</time>
      </trkpt>
      <trkpt lat="44.41002" lon="5.91198">
        <ele>1422.6</ele>
        <time>2012-03-04T10:38:10Z</time>
      </trkpt>
      <trkpt lat="44.41006" lon="5.91203">
        <ele>1429.7</ele>
        <time>2012-03-04T10:38:16Z</time>
      </trkpt>
      <trkpt lat="44.41006" lon="5.91211">
        <ele>1432.6</ele>
        <time>2012-03-04T10:38:23Z</time>
      </trkpt>
      <trkpt lat="44.41003" lon="5.91217">
        <ele>1428.8</ele>
        <time>2012-03-04T10:38:27Z</time>
      </trkpt>
      <trkpt lat="44.41003" lon="5.91224">
        <ele>1429.9</ele>
        <time>2012-03-04T10:38:34Z</time>
      </trkpt>
      <trkpt lat="44.41" lon="5.91229">
        <ele>1429.1</ele>
        <time>2012-03-04T10:38:42Z</time>
      </trkpt>
      <trkpt lat="44.40995" lon="5.91232">
        <ele>1430.6</ele>
        <time>2012-03-04T10:38:49Z</time>
      </trkpt>
      <trkpt lat="44.40992" lon="5.91238">
        <ele>1426.7</ele>
        <time>2012-03-04T10:38:53Z</time>
      </trkpt>
      <trkpt lat="44.40989" lon="5.91244">
        <ele>1427.1</ele>
        <time>2012-03-04T10:38:57Z</time>
      </trkpt>
      <trkpt lat="44.40985" lon="5.91252">
        <ele>1430.9</ele>
        <time>2012-03-04T10:39:01Z</time>
      </trkpt>
      <trkpt lat="44.40983" lon="5.91258">
        <ele>1432</ele>
        <time>2012-03-04T10:39:03Z</time>
      </trkpt>
      <trkpt lat="44.40982" lon="5.91264">
        <ele>1431.2</ele>
        <time>2012-03-04T10:39:06Z</time>
      </trkpt>
      <trkpt lat="44.4098" lon="5.9127">
        <ele>1428.6</ele>
        <time>2012-03-04T10:39:09Z</time>
      </trkpt>
      <trkpt lat="44.4098" lon="5.9127">
        <ele>1428.6</ele>
        <time>2012-03-04T10:39:09Z</time>
      </trkpt>
      <trkpt lat="44.4098" lon="5.9127">
        <ele>1428.6</ele>
        <time>2012-03-04T10:39:10Z</time>
      </trkpt>
      <trkpt lat="44.40977" lon="5.91274">
        <ele>1423</ele>
        <time>2012-03-04T10:39:31Z</time>
      </trkpt>
      <trkpt lat="44.40974" lon="5.91281">
        <ele>1422.8</ele>
        <time>2012-03-04T10:45:39Z</time>
      </trkpt>
      <trkpt lat="44.40978" lon="5.91276">
        <ele>1419.5</ele>
        <time>2012-03-04T10:46:46Z</time>
      </trkpt>
      <trkpt lat="44.40982" lon="5.91277">
        <ele>1416.1</ele>
        <time>2012-03-04T10:47:15Z</time>
      </trkpt>
      <trkpt lat="44.4098" lon="5.91283">
        <ele>1417.4</ele>
        <time>2012-03-04T10:48:03Z</time>
      </trkpt>
      <trkpt lat="44.40976" lon="5.91291">
        <ele>1418.7</ele>
        <time>2012-03-04T10:48:07Z</time>
      </trkpt>
      <trkpt lat="44.40971" lon="5.91306">
        <ele>1414.7</ele>
        <time>2012-03-04T10:48:09Z</time>
      </trkpt>
      <trkpt lat="44.4097" lon="5.91314">
        <ele>1411.8</ele>
        <time>2012-03-04T10:48:10Z</time>
      </trkpt>
      <trkpt lat="44.40968" lon="5.91321">
        <ele>1408.3</ele>
        <time>2012-03-04T10:48:11Z</time>
      </trkpt>
      <trkpt lat="44.40967" lon="5.9133">
        <ele>1408.3</ele>
        <time>2012-03-04T10:48:12Z</time>
      </trkpt>
      <trkpt lat="44.40965" lon="5.9134">
        <ele>1407.7</ele>
        <time>2012-03-04T10:48:13Z</time>
      </trkpt>
      <trkpt lat="44.40963" lon="5.91348">
        <ele>1409.4</ele>
        <time>2012-03-04T10:48:15Z</time>
      </trkpt>
      <trkpt lat="44.40963" lon="5.91361">
        <ele>1412.4</ele>
        <time>2012-03-04T10:48:17Z</time>
      </trkpt>
      <trkpt lat="44.40964" lon="5.91367">
        <ele>1416.2</ele>
        <time>2012-03-04T10:48:19Z</time>
      </trkpt>
      <trkpt lat="44.40965" lon="5.91374">
        <ele>1417.2</ele>
        <time>2012-03-04T10:48:21Z</time>
      </trkpt>
      <trkpt lat="44.40964" lon="5.9138">
        <ele>1416</ele>
        <time>2012-03-04T10:48:24Z</time>
      </trkpt>
      <trkpt lat="44.40963" lon="5.91387">
        <ele>1420.1</ele>
        <time>2012-03-04T10:48:29Z</time>
      </trkpt>
      <trkpt lat="44.40962" lon="5.91394">
        <ele>1422.3</ele>
        <time>2012-03-04T10:48:35Z</time>
      </trkpt>
      <trkpt lat="44.40961" lon="5.914">
        <ele>1422.1</ele>
        <time>2012-03-04T10:48:39Z</time>
      </trkpt>
      <trkpt lat="44.4096" lon="5.91407">
        <ele>1423.6</ele>
        <time>2012-03-04T10:48:43Z</time>
      </trkpt>
      <trkpt lat="44.40961" lon="5.91414">
        <ele>1431.5</ele>
        <time>2012-03-04T10:48:48Z</time>
      </trkpt>
      <trkpt lat="44.40958" lon="5.9142">
        <ele>1435.1</ele>
        <time>2012-03-04T10:48:52Z</time>
      </trkpt>
      <trkpt lat="44.40955" lon="5.91427">
        <ele>1435.9</ele>
        <time>2012-03-04T10:48:55Z</time>
      </trkpt>
      <trkpt lat="44.40953" lon="5.91433">
        <ele>1436.8</ele>
        <time>2012-03-04T10:48:58Z</time>
      </trkpt>
      <trkpt lat="44.4095" lon="5.91439">
        <ele>1435.9</ele>
        <time>2012-03-04T10:49:04Z</time>
      </trkpt>
      <trkpt lat="44.40949" lon="5.91446">
        <ele>1435.8</ele>
        <time>2012-03-04T10:49:09Z</time>
      </trkpt>
      <trkpt lat="44.40947" lon="5.91453">
        <ele>1435.6</ele>
        <time>2012-03-04T10:49:12Z</time>
      </trkpt>
      <trkpt lat="44.40944" lon="5.91458">
        <ele>1440.6</ele>
        <time>2012-03-04T10:49:21Z</time>
      </trkpt>
      <trkpt lat="44.40941" lon="5.91464">
        <ele>1445.3</ele>
        <time>2012-03-04T10:49:29Z</time>
      </trkpt>
      <trkpt lat="44.4094" lon="5.91471">
        <ele>1445.2</ele>
        <time>2012-03-04T10:49:34Z</time>
      </trkpt>
      <trkpt lat="44.40938" lon="5.91479">
        <ele>1443.1</ele>
        <time>2012-03-04T10:49:53Z</time>
      </trkpt>
      <trkpt lat="44.40937" lon="5.91486">
        <ele>1440.8</ele>
        <time>2012-03-04T10:49:55Z</time>
      </trkpt>
      <trkpt lat="44.40938" lon="5.91495">
        <ele>1441.1</ele>
        <time>2012-03-04T10:49:57Z</time>
      </trkpt>
      <trkpt lat="44.40939" lon="5.91501">
        <ele>1441.3</ele>
        <time>2012-03-04T10:49:58Z</time>
      </trkpt>
      <trkpt lat="44.40943" lon="5.91511">
        <ele>1439.8</ele>
        <time>2012-03-04T10:50:00Z</time>
      </trkpt>
      <trkpt lat="44.40947" lon="5.91519">
        <ele>1439.3</ele>
        <time>2012-03-04T10:50:02Z</time>
      </trkpt>
      <trkpt lat="44.4095" lon="5.91524">
        <ele>1439.9</ele>
        <time>2012-03-04T10:50:04Z</time>
      </trkpt>
      <trkpt lat="44.40954" lon="5.91529">
        <ele>1439.5</ele>
        <time>2012-03-04T10:50:08Z</time>
      </trkpt>
      <trkpt lat="44.40956" lon="5.91536">
        <ele>1439.2</ele>
        <time>2012-03-04T10:50:10Z</time>
      </trkpt>
      <trkpt lat="44.40958" lon="5.91554">
        <ele>1437</ele>
        <time>2012-03-04T10:50:11Z</time>
      </trkpt>
      <trkpt lat="44.40959" lon="5.91562">
        <ele>1434.8</ele>
        <time>2012-03-04T10:50:12Z</time>
      </trkpt>
      <trkpt lat="44.40961" lon="5.91573">
        <ele>1429.9</ele>
        <time>2012-03-04T10:50:13Z</time>
      </trkpt>
      <trkpt lat="44.40962" lon="5.91579">
        <ele>1429.5</ele>
        <time>2012-03-04T10:50:14Z</time>
      </trkpt>
      <trkpt lat="44.4096" lon="5.91587">
        <ele>1427.9</ele>
        <time>2012-03-04T10:50:15Z</time>
      </trkpt>
      <trkpt lat="44.4096" lon="5.91596">
        <ele>1426.3</ele>
        <time>2012-03-04T10:50:16Z</time>
      </trkpt>
      <trkpt lat="44.40959" lon="5.91606">
        <ele>1422.6</ele>
        <time>2012-03-04T10:50:17Z</time>
      </trkpt>
      <trkpt lat="44.40958" lon="5.91613">
        <ele>1419.8</ele>
        <time>2012-03-04T10:50:18Z</time>
      </trkpt>
      <trkpt lat="44.40957" lon="5.91625">
        <ele>1416.5</ele>
        <time>2012-03-04T10:50:20Z</time>
      </trkpt>
      <trkpt lat="44.40956" lon="5.91632">
        <ele>1413.9</ele>
        <time>2012-03-04T10:50:21Z</time>
      </trkpt>
      <trkpt lat="44.40955" lon="5.9164">
        <ele>1411</ele>
        <time>2012-03-04T10:50:22Z</time>
      </trkpt>
      <trkpt lat="44.40954" lon="5.91656">
        <ele>1407.3</ele>
        <time>2012-03-04T10:50:25Z</time>
      </trkpt>
      <trkpt lat="44.40953" lon="5.91663">
        <ele>1406.2</ele>
        <time>2012-03-04T10:50:27Z</time>
      </trkpt>
      <trkpt lat="44.40952" lon="5.91673">
        <ele>1403.6</ele>
        <time>2012-03-04T10:50:29Z</time>
      </trkpt>
      <trkpt lat="44.4095" lon="5.91681">
        <ele>1401.7</ele>
        <time>2012-03-04T10:50:31Z</time>
      </trkpt>
      <trkpt lat="44.4095" lon="5.91688">
        <ele>1399.6</ele>
        <time>2012-03-04T10:50:33Z</time>
      </trkpt>
      <trkpt lat="44.4095" lon="5.91696">
        <ele>1396.2</ele>
        <time>2012-03-04T10:50:35Z</time>
      </trkpt>
      <trkpt lat="44.40949" lon="5.91705">
        <ele>1393.7</ele>
        <time>2012-03-04T10:50:37Z</time>
      </trkpt>
      <trkpt lat="44.40948" lon="5.91713">
        <ele>1392.8</ele>
        <time>2012-03-04T10:50:39Z</time>
      </trkpt>
      <trkpt lat="44.40947" lon="5.91721">
        <ele>1387.2</ele>
        <time>2012-03-04T10:50:42Z</time>
      </trkpt>
      <trkpt lat="44.40946" lon="5.91728">
        <ele>1385.5</ele>
        <time>2012-03-04T10:50:44Z</time>
      </trkpt>
      <trkpt lat="44.40946" lon="5.91737">
        <ele>1384.6</ele>
        <time>2012-03-04T10:50:46Z</time>
      </trkpt>
      <trkpt lat="44.40946" lon="5.91746">
        <ele>1383.1</ele>
        <time>2012-03-04T10:50:48Z</time>
      </trkpt>
      <trkpt lat="44.40948" lon="5.91754">
        <ele>1385.4</ele>
        <time>2012-03-04T10:50:50Z</time>
      </trkpt>
      <trkpt lat="44.4095" lon="5.9176">
        <ele>1385.2</ele>
        <time>2012-03-04T10:50:52Z</time>
      </trkpt>
      <trkpt lat="44.40952" lon="5.91765">
        <ele>1384.7</ele>
        <time>2012-03-04T10:50:54Z</time>
      </trkpt>
      <trkpt lat="44.40955" lon="5.91771">
        <ele>1381.8</ele>
        <time>2012-03-04T10:50:56Z</time>
      </trkpt>
      <trkpt lat="44.40956" lon="5.91778">
        <ele>1380.3</ele>
        <time>2012-03-04T10:50:58Z</time>
      </trkpt>
      <trkpt lat="44.40956" lon="5.91786">
        <ele>1378.5</ele>
        <time>2012-03-04T10:51:00Z</time>
      </trkpt>
      <trkpt lat="44.40956" lon="5.91794">
        <ele>1378.1</ele>
        <time>2012-03-04T10:51:02Z</time>
      </trkpt>
      <trkpt lat="44.4096" lon="5.91798">
        <ele>1377.6</ele>
        <time>2012-03-04T10:51:22Z</time>
      </trkpt>
      <trkpt lat="44.40965" lon="5.91798">
        <ele>1376</ele>
        <time>2012-03-04T10:51:26Z</time>
      </trkpt>
      <trkpt lat="44.40969" lon="5.91801">
        <ele>1373.5</ele>
        <time>2012-03-04T10:51:30Z</time>
      </trkpt>
      <trkpt lat="44.4097" lon="5.91807">
        <ele>1370.8</ele>
        <time>2012-03-04T10:51:58Z</time>
      </trkpt>
      <trkpt lat="44.40973" lon="5.91813">
        <ele>1368.7</ele>
        <time>2012-03-04T10:52:01Z</time>
      </trkpt>
      <trkpt lat="44.4098" lon="5.91819">
        <ele>1365</ele>
        <time>2012-03-04T10:52:03Z</time>
      </trkpt>
      <trkpt lat="44.40986" lon="5.91824">
        <ele>1363.8</ele>
        <time>2012-03-04T10:52:05Z</time>
      </trkpt>
      <trkpt lat="44.40986" lon="5.91833">
        <ele>1364.1</ele>
        <time>2012-03-04T10:52:08Z</time>
      </trkpt>
      <trkpt lat="44.40982" lon="5.9184">
        <ele>1361.3</ele>
        <time>2012-03-04T10:52:10Z</time>
      </trkpt>
      <trkpt lat="44.4098" lon="5.91849">
        <ele>1358.4</ele>
        <time>2012-03-04T10:52:12Z</time>
      </trkpt>
      <trkpt lat="44.40978" lon="5.91854">
        <ele>1356.8</ele>
        <time>2012-03-04T10:52:13Z</time>
      </trkpt>
      <trkpt lat="44.40981" lon="5.9186">
        <ele>1357</ele>
        <time>2012-03-04T10:52:40Z</time>
      </trkpt>
      <trkpt lat="44.4098" lon="5.91869">
        <ele>1361.7</ele>
        <time>2012-03-04T10:52:43Z</time>
      </trkpt>
      <trkpt lat="44.40979" lon="5.91877">
        <ele>1360.5</ele>
        <time>2012-03-04T10:52:45Z</time>
      </trkpt>
      <trkpt lat="44.40977" lon="5.91886">
        <ele>1359.3</ele>
        <time>2012-03-04T10:52:47Z</time>
      </trkpt>
      <trkpt lat="44.40976" lon="5.91896">
        <ele>1358.9</ele>
        <time>2012-03-04T10:52:49Z</time>
      </trkpt>
      <trkpt lat="44.40974" lon="5.91905">
        <ele>1358.1</ele>
        <time>2012-03-04T10:52:51Z</time>
      </trkpt>
      <trkpt lat="44.40972" lon="5.91915">
        <ele>1357.5</ele>
        <time>2012-03-04T10:52:53Z</time>
      </trkpt>
      <trkpt lat="44.40969" lon="5.91923">
        <ele>1356.9</ele>
        <time>2012-03-04T10:52:55Z</time>
      </trkpt>
      <trkpt lat="44.40967" lon="5.9193">
        <ele>1353.3</ele>
        <time>2012-03-04T10:52:56Z</time>
      </trkpt>
      <trkpt lat="44.40963" lon="5.91938">
        <ele>1352.6</ele>
        <time>2012-03-04T10:52:58Z</time>
      </trkpt>
      <trkpt lat="44.40959" lon="5.91942">
        <ele>1354.8</ele>
        <time>2012-03-04T10:53:00Z</time>
      </trkpt>
      <trkpt lat="44.40955" lon="5.91947">
        <ele>1353.2</ele>
        <time>2012-03-04T10:53:02Z</time>
      </trkpt>
      <trkpt lat="44.4095" lon="5.91948">
        <ele>1352.9</ele>
        <time>2012-03-04T10:53:03Z</time>
      </trkpt>
      <trkpt lat="44.40944" lon="5.91956">
        <ele>1352.3</ele>
        <time>2012-03-04T10:53:05Z</time>
      </trkpt>
      <trkpt lat="44.40939" lon="5.91961">
        <ele>1353.8</ele>
        <time>2012-03-04T10:53:07Z</time>
      </trkpt>
      <trkpt lat="44.40935" lon="5.91967">
        <ele>1354.3</ele>
        <time>2012-03-04T10:53:09Z</time>
      </trkpt>
      <trkpt lat="44.40932" lon="5.91973">
        <ele>1353.2</ele>
        <time>2012-03-04T10:53:11Z</time>
      </trkpt>
      <trkpt lat="44.40928" lon="5.9198">
        <ele>1351.3</ele>
        <time>2012-03-04T10:53:13Z</time>
      </trkpt>
      <trkpt lat="44.40926" lon="5.91987">
        <ele>1347.8</ele>
        <time>2012-03-04T10:53:20Z</time>
      </trkpt>
      <trkpt lat="44.40925" lon="5.91997">
        <ele>1347.4</ele>
        <time>2012-03-04T10:53:23Z</time>
      </trkpt>
      <trkpt lat="44.40922" lon="5.92005">
        <ele>1348.3</ele>
        <time>2012-03-04T10:53:25Z</time>
      </trkpt>
      <trkpt lat="44.4092" lon="5.92012">
        <ele>1348.6</ele>
        <time>2012-03-04T10:53:27Z</time>
      </trkpt>
      <trkpt lat="44.40918" lon="5.92021">
        <ele>1347</ele>
        <time>2012-03-04T10:53:29Z</time>
      </trkpt>
      <trkpt lat="44.40916" lon="5.92033">
        <ele>1347.3</ele>
        <time>2012-03-04T10:53:31Z</time>
      </trkpt>
      <trkpt lat="44.40913" lon="5.92039">
        <ele>1346.6</ele>
        <time>2012-03-04T10:53:32Z</time>
      </trkpt>
      <trkpt lat="44.40911" lon="5.92048">
        <ele>1346.3</ele>
        <time>2012-03-04T10:53:34Z</time>
      </trkpt>
      <trkpt lat="44.40908" lon="5.92055">
        <ele>1347.6</ele>
        <time>2012-03-04T10:53:35Z</time>
      </trkpt>
      <trkpt lat="44.40905" lon="5.92064">
        <ele>1346.5</ele>
        <time>2012-03-04T10:53:37Z</time>
      </trkpt>
      <trkpt lat="44.409" lon="5.92072">
        <ele>1348</ele>
        <time>2012-03-04T10:53:39Z</time>
      </trkpt>
      <trkpt lat="44.40895" lon="5.9208">
        <ele>1347</ele>
        <time>2012-03-04T10:53:41Z</time>
      </trkpt>
      <trkpt lat="44.4089" lon="5.92088">
        <ele>1348.1</ele>
        <time>2012-03-04T10:53:43Z</time>
      </trkpt>
      <trkpt lat="44.40886" lon="5.92097">
        <ele>1347.8</ele>
        <time>2012-03-04T10:53:45Z</time>
      </trkpt>
      <trkpt lat="44.40883" lon="5.92107">
        <ele>1348.5</ele>
        <time>2012-03-04T10:53:47Z</time>
      </trkpt>
      <trkpt lat="44.4088" lon="5.92117">
        <ele>1348.8</ele>
        <time>2012-03-04T10:53:49Z</time>
      </trkpt>
      <trkpt lat="44.40877" lon="5.92132">
        <ele>1348.4</ele>
        <time>2012-03-04T10:53:51Z</time>
      </trkpt>
      <trkpt lat="44.40875" lon="5.92139">
        <ele>1346.8</ele>
        <time>2012-03-04T10:53:52Z</time>
      </trkpt>
      <trkpt lat="44.40873" lon="5.92146">
        <ele>1346.2</ele>
        <time>2012-03-04T10:53:53Z</time>
      </trkpt>
      <trkpt lat="44.40871" lon="5.92152">
        <ele>1346.2</ele>
        <time>2012-03-04T10:53:54Z</time>
      </trkpt>
      <trkpt lat="44.40869" lon="5.92159">
        <ele>1345.4</ele>
        <time>2012-03-04T10:53:55Z</time>
      </trkpt>
      <trkpt lat="44.40868" lon="5.92166">
        <ele>1345</ele>
        <time>2012-03-04T10:53:56Z</time>
      </trkpt>
      <trkpt lat="44.40867" lon="5.92173">
        <ele>1345.2</ele>
        <time>2012-03-04T10:53:57Z</time>
      </trkpt>
      <trkpt lat="44.40865" lon="5.92181">
        <ele>1344.1</ele>
        <time>2012-03-04T10:53:58Z</time>
      </trkpt>
      <trkpt lat="44.40864" lon="5.9219">
        <ele>1342.6</ele>
        <time>2012-03-04T10:53:59Z</time>
      </trkpt>
      <trkpt lat="44.40863" lon="5.92198">
        <ele>1341.3</ele>
        <time>2012-03-04T10:54:00Z</time>
      </trkpt>
      <trkpt lat="44.40861" lon="5.92208">
        <ele>1341.3</ele>
        <time>2012-03-04T10:54:01Z</time>
      </trkpt>
      <trkpt lat="44.4086" lon="5.92218">
        <ele>1341.4</ele>
        <time>2012-03-04T10:54:02Z</time>
      </trkpt>
      <trkpt lat="44.4086" lon="5.92228">
        <ele>1340.5</ele>
        <time>2012-03-04T10:54:03Z</time>
      </trkpt>
      <trkpt lat="44.40859" lon="5.92238">
        <ele>1340</ele>
        <time>2012-03-04T10:54:04Z</time>
      </trkpt>
      <trkpt lat="44.40858" lon="5.92249">
        <ele>1339.5</ele>
        <time>2012-03-04T10:54:05Z</time>
      </trkpt>
      <trkpt lat="44.40856" lon="5.92258">
        <ele>1339.1</ele>
        <time>2012-03-04T10:54:06Z</time>
      </trkpt>
      <trkpt lat="44.40855" lon="5.92264">
        <ele>1338.1</ele>
        <time>2012-03-04T10:54:07Z</time>
      </trkpt>
      <trkpt lat="44.40854" lon="5.92272">
        <ele>1337.7</ele>
        <time>2012-03-04T10:54:08Z</time>
      </trkpt>
      <trkpt lat="44.40854" lon="5.92279">
        <ele>1336.7</ele>
        <time>2012-03-04T10:54:09Z</time>
      </trkpt>
      <trkpt lat="44.40853" lon="5.92286">
        <ele>1336.5</ele>
        <time>2012-03-04T10:54:10Z</time>
      </trkpt>
      <trkpt lat="44.40851" lon="5.92292">
        <ele>1336.3</ele>
        <time>2012-03-04T10:54:11Z</time>
      </trkpt>
      <trkpt lat="44.40848" lon="5.92305">
        <ele>1335.5</ele>
        <time>2012-03-04T10:54:13Z</time>
      </trkpt>
      <trkpt lat="44.40849" lon="5.92315">
        <ele>1334.7</ele>
        <time>2012-03-04T10:54:15Z</time>
      </trkpt>
      <trkpt lat="44.40849" lon="5.92321">
        <ele>1334.4</ele>
        <time>2012-03-04T10:54:16Z</time>
      </trkpt>
      <trkpt lat="44.40848" lon="5.92328">
        <ele>1334.4</ele>
        <time>2012-03-04T10:54:17Z</time>
      </trkpt>
      <trkpt lat="44.40846" lon="5.9234">
        <ele>1334.1</ele>
        <time>2012-03-04T10:54:19Z</time>
      </trkpt>
      <trkpt lat="44.40846" lon="5.92351">
        <ele>1333.3</ele>
        <time>2012-03-04T10:54:21Z</time>
      </trkpt>
      <trkpt lat="44.40846" lon="5.92362">
        <ele>1332.4</ele>
        <time>2012-03-04T10:54:23Z</time>
      </trkpt>
      <trkpt lat="44.40847" lon="5.92372">
        <ele>1330.9</ele>
        <time>2012-03-04T10:54:25Z</time>
      </trkpt>
      <trkpt lat="44.40849" lon="5.92383">
        <ele>1330.2</ele>
        <time>2012-03-04T10:54:27Z</time>
      </trkpt>
      <trkpt lat="44.40853" lon="5.92392">
        <ele>1329.8</ele>
        <time>2012-03-04T10:54:29Z</time>
      </trkpt>
      <trkpt lat="44.40862" lon="5.92398">
        <ele>1328.7</ele>
        <time>2012-03-04T10:54:30Z</time>
      </trkpt>
      <trkpt lat="44.40867" lon="5.92401">
        <ele>1329.8</ele>
        <time>2012-03-04T10:54:31Z</time>
      </trkpt>
      <trkpt lat="44.40871" lon="5.92405">
        <ele>1329.4</ele>
        <time>2012-03-04T10:54:32Z</time>
      </trkpt>
      <trkpt lat="44.40877" lon="5.92408">
        <ele>1330.8</ele>
        <time>2012-03-04T10:54:34Z</time>
      </trkpt>
      <trkpt lat="44.40882" lon="5.92411">
        <ele>1331.9</ele>
        <time>2012-03-04T10:54:37Z</time>
      </trkpt>
      <trkpt lat="44.40886" lon="5.92416">
        <ele>1333.8</ele>
        <time>2012-03-04T10:54:40Z</time>
      </trkpt>
      <trkpt lat="44.40891" lon="5.92419">
        <ele>1333.8</ele>
        <time>2012-03-04T10:54:43Z</time>
      </trkpt>
      <trkpt lat="44.40895" lon="5.92423">
        <ele>1335.8</ele>
        <time>2012-03-04T10:54:48Z</time>
      </trkpt>
      <trkpt lat="44.40896" lon="5.9243">
        <ele>1337.2</ele>
        <time>2012-03-04T10:54:59Z</time>
      </trkpt>
      <trkpt lat="44.40898" lon="5.92437">
        <ele>1338.8</ele>
        <time>2012-03-04T10:55:04Z</time>
      </trkpt>
      <trkpt lat="44.409" lon="5.92443">
        <ele>1342</ele>
        <time>2012-03-04T10:55:10Z</time>
      </trkpt>
      <trkpt lat="44.40901" lon="5.9245">
        <ele>1341.3</ele>
        <time>2012-03-04T10:55:16Z</time>
      </trkpt>
      <trkpt lat="44.40902" lon="5.92457">
        <ele>1341.1</ele>
        <time>2012-03-04T10:55:23Z</time>
      </trkpt>
      <trkpt lat="44.40906" lon="5.92462">
        <ele>1332.5</ele>
        <time>2012-03-04T10:56:49Z</time>
      </trkpt>
      <trkpt lat="44.40913" lon="5.92464">
        <ele>1336.1</ele>
        <time>2012-03-04T10:56:51Z</time>
      </trkpt>
      <trkpt lat="44.40921" lon="5.92467">
        <ele>1338.2</ele>
        <time>2012-03-04T10:56:53Z</time>
      </trkpt>
      <trkpt lat="44.40928" lon="5.92471">
        <ele>1338</ele>
        <time>2012-03-04T10:56:55Z</time>
      </trkpt>
      <trkpt lat="44.40935" lon="5.92475">
        <ele>1338.6</ele>
        <time>2012-03-04T10:56:57Z</time>
      </trkpt>
      <trkpt lat="44.40941" lon="5.92482">
        <ele>1339.1</ele>
        <time>2012-03-04T10:56:59Z</time>
      </trkpt>
      <trkpt lat="44.40947" lon="5.92492">
        <ele>1339.9</ele>
        <time>2012-03-04T10:57:01Z</time>
      </trkpt>
      <trkpt lat="44.4095" lon="5.92497">
        <ele>1337.9</ele>
        <time>2012-03-04T10:57:02Z</time>
      </trkpt>
      <trkpt lat="44.40952" lon="5.92502">
        <ele>1337.8</ele>
        <time>2012-03-04T10:57:03Z</time>
      </trkpt>
      <trkpt lat="44.40965" lon="5.92508">
        <ele>1339.4</ele>
        <time>2012-03-04T10:57:04Z</time>
      </trkpt>
      <trkpt lat="44.40968" lon="5.92511">
        <ele>1338.6</ele>
        <time>2012-03-04T10:57:05Z</time>
      </trkpt>
      <trkpt lat="44.40973" lon="5.92514">
        <ele>1338.9</ele>
        <time>2012-03-04T10:57:06Z</time>
      </trkpt>
      <trkpt lat="44.4098" lon="5.92514">
        <ele>1342.5</ele>
        <time>2012-03-04T10:57:08Z</time>
      </trkpt>
      <trkpt lat="44.40987" lon="5.92518">
        <ele>1341.2</ele>
        <time>2012-03-04T10:57:10Z</time>
      </trkpt>
      <trkpt lat="44.40994" lon="5.92527">
        <ele>1338</ele>
        <time>2012-03-04T10:57:12Z</time>
      </trkpt>
      <trkpt lat="44.40996" lon="5.92534">
        <ele>1335.2</ele>
        <time>2012-03-04T10:57:13Z</time>
      </trkpt>
      <trkpt lat="44.40998" lon="5.92544">
        <ele>1331.4</ele>
        <time>2012-03-04T10:57:15Z</time>
      </trkpt>
      <trkpt lat="44.41" lon="5.92554">
        <ele>1329.9</ele>
        <time>2012-03-04T10:57:17Z</time>
      </trkpt>
      <trkpt lat="44.41007" lon="5.92575">
        <ele>1325.8</ele>
        <time>2012-03-04T10:57:19Z</time>
      </trkpt>
      <trkpt lat="44.41008" lon="5.92583">
        <ele>1325.7</ele>
        <time>2012-03-04T10:57:20Z</time>
      </trkpt>
      <trkpt lat="44.41008" lon="5.92592">
        <ele>1324.9</ele>
        <time>2012-03-04T10:57:21Z</time>
      </trkpt>
      <trkpt lat="44.41014" lon="5.92603">
        <ele>1323.4</ele>
        <time>2012-03-04T10:57:22Z</time>
      </trkpt>
      <trkpt lat="44.41018" lon="5.92612">
        <ele>1322.6</ele>
        <time>2012-03-04T10:57:23Z</time>
      </trkpt>
      <trkpt lat="44.41016" lon="5.92624">
        <ele>1320.9</ele>
        <time>2012-03-04T10:57:24Z</time>
      </trkpt>
      <trkpt lat="44.41016" lon="5.92632">
        <ele>1316.8</ele>
        <time>2012-03-04T10:57:25Z</time>
      </trkpt>
      <trkpt lat="44.4102" lon="5.92638">
        <ele>1315.7</ele>
        <time>2012-03-04T10:57:26Z</time>
      </trkpt>
      <trkpt lat="44.41023" lon="5.92645">
        <ele>1310.9</ele>
        <time>2012-03-04T10:57:27Z</time>
      </trkpt>
      <trkpt lat="44.41026" lon="5.92651">
        <ele>1311.5</ele>
        <time>2012-03-04T10:57:28Z</time>
      </trkpt>
      <trkpt lat="44.41031" lon="5.92661">
        <ele>1311.2</ele>
        <time>2012-03-04T10:57:30Z</time>
      </trkpt>
      <trkpt lat="44.41034" lon="5.92667">
        <ele>1310.3</ele>
        <time>2012-03-04T10:57:31Z</time>
      </trkpt>
      <trkpt lat="44.41038" lon="5.92675">
        <ele>1309.1</ele>
        <time>2012-03-04T10:57:32Z</time>
      </trkpt>
      <trkpt lat="44.41039" lon="5.92682">
        <ele>1306.7</ele>
        <time>2012-03-04T10:57:33Z</time>
      </trkpt>
      <trkpt lat="44.41045" lon="5.92693">
        <ele>1299.9</ele>
        <time>2012-03-04T10:57:35Z</time>
      </trkpt>
      <trkpt lat="44.41048" lon="5.92699">
        <ele>1299.1</ele>
        <time>2012-03-04T10:57:36Z</time>
      </trkpt>
      <trkpt lat="44.4105" lon="5.92706">
        <ele>1300.6</ele>
        <time>2012-03-04T10:57:37Z</time>
      </trkpt>
      <trkpt lat="44.41053" lon="5.92711">
        <ele>1300.6</ele>
        <time>2012-03-04T10:57:38Z</time>
      </trkpt>
      <trkpt lat="44.41054" lon="5.9272">
        <ele>1298.3</ele>
        <time>2012-03-04T10:57:45Z</time>
      </trkpt>
      <trkpt lat="44.41056" lon="5.92726">
        <ele>1301.8</ele>
        <time>2012-03-04T10:57:51Z</time>
      </trkpt>
      <trkpt lat="44.41057" lon="5.92732">
        <ele>1303.8</ele>
        <time>2012-03-04T10:58:02Z</time>
      </trkpt>
      <trkpt lat="44.41059" lon="5.92739">
        <ele>1305.7</ele>
        <time>2012-03-04T10:58:10Z</time>
      </trkpt>
      <trkpt lat="44.4106" lon="5.92745">
        <ele>1309.8</ele>
        <time>2012-03-04T10:58:14Z</time>
      </trkpt>
      <trkpt lat="44.41062" lon="5.92752">
        <ele>1307.2</ele>
        <time>2012-03-04T10:58:18Z</time>
      </trkpt>
      <trkpt lat="44.41062" lon="5.92759">
        <ele>1306.7</ele>
        <time>2012-03-04T10:58:21Z</time>
      </trkpt>
      <trkpt lat="44.41062" lon="5.92767">
        <ele>1305.1</ele>
        <time>2012-03-04T10:58:25Z</time>
      </trkpt>
      <trkpt lat="44.41063" lon="5.92774">
        <ele>1305</ele>
        <time>2012-03-04T10:58:30Z</time>
      </trkpt>
      <trkpt lat="44.41062" lon="5.9278">
        <ele>1303.9</ele>
        <time>2012-03-04T10:58:36Z</time>
      </trkpt>
      <trkpt lat="44.41062" lon="5.92789">
        <ele>1300.7</ele>
        <time>2012-03-04T10:58:58Z</time>
      </trkpt>
      <trkpt lat="44.41061" lon="5.92795">
        <ele>1300.3</ele>
        <time>2012-03-04T10:59:00Z</time>
      </trkpt>
      <trkpt lat="44.4106" lon="5.92804">
        <ele>1297.8</ele>
        <time>2012-03-04T10:59:02Z</time>
      </trkpt>
      <trkpt lat="44.4106" lon="5.92814">
        <ele>1296.6</ele>
        <time>2012-03-04T10:59:04Z</time>
      </trkpt>
      <trkpt lat="44.41059" lon="5.92824">
        <ele>1294.7</ele>
        <time>2012-03-04T10:59:06Z</time>
      </trkpt>
      <trkpt lat="44.41058" lon="5.92831">
        <ele>1293.1</ele>
        <time>2012-03-04T10:59:08Z</time>
      </trkpt>
      <trkpt lat="44.41059" lon="5.92838">
        <ele>1293.7</ele>
        <time>2012-03-04T10:59:25Z</time>
      </trkpt>
      <trkpt lat="44.41058" lon="5.92844">
        <ele>1290.4</ele>
        <time>2012-03-04T10:59:39Z</time>
      </trkpt>
      <trkpt lat="44.41055" lon="5.92849">
        <ele>1293.7</ele>
        <time>2012-03-04T10:59:44Z</time>
      </trkpt>
      <trkpt lat="44.41053" lon="5.92856">
        <ele>1293</ele>
        <time>2012-03-04T11:00:07Z</time>
      </trkpt>
      <trkpt lat="44.41051" lon="5.92861">
        <ele>1294.8</ele>
        <time>2012-03-04T11:00:16Z</time>
      </trkpt>
      <trkpt lat="44.4105" lon="5.92868">
        <ele>1294.2</ele>
        <time>2012-03-04T11:00:25Z</time>
      </trkpt>
      <trkpt lat="44.4105" lon="5.92875">
        <ele>1291.6</ele>
        <time>2012-03-04T11:00:32Z</time>
      </trkpt>
      <trkpt lat="44.4105" lon="5.92882">
        <ele>1291.9</ele>
        <time>2012-03-04T11:00:36Z</time>
      </trkpt>
      <trkpt lat="44.41049" lon="5.92888">
        <ele>1293.4</ele>
        <time>2012-03-04T11:00:40Z</time>
      </trkpt>
      <trkpt lat="44.41045" lon="5.92894">
        <ele>1292</ele>
        <time>2012-03-04T11:00:45Z</time>
      </trkpt>
      <trkpt lat="44.41044" lon="5.929">
        <ele>1291.2</ele>
        <time>2012-03-04T11:00:49Z</time>
      </trkpt>
      <trkpt lat="44.41042" lon="5.92907">
        <ele>1290.8</ele>
        <time>2012-03-04T11:00:59Z</time>
      </trkpt>
      <trkpt lat="44.4104" lon="5.92913">
        <ele>1290.7</ele>
        <time>2012-03-04T11:01:03Z</time>
      </trkpt>
      <trkpt lat="44.41038" lon="5.9292">
        <ele>1290.3</ele>
        <time>2012-03-04T11:01:07Z</time>
      </trkpt>
      <trkpt lat="44.41036" lon="5.92927">
        <ele>1290.5</ele>
        <time>2012-03-04T11:01:11Z</time>
      </trkpt>
      <trkpt lat="44.41034" lon="5.92935">
        <ele>1290.7</ele>
        <time>2012-03-04T11:01:15Z</time>
      </trkpt>
      <trkpt lat="44.41034" lon="5.92943">
        <ele>1293</ele>
        <time>2012-03-04T11:01:19Z</time>
      </trkpt>
      <trkpt lat="44.41035" lon="5.9295">
        <ele>1294.9</ele>
        <time>2012-03-04T11:01:22Z</time>
      </trkpt>
      <trkpt lat="44.41034" lon="5.92958">
        <ele>1294.7</ele>
        <time>2012-03-04T11:01:26Z</time>
      </trkpt>
      <trkpt lat="44.41033" lon="5.92964">
        <ele>1296.5</ele>
        <time>2012-03-04T11:01:29Z</time>
      </trkpt>
      <trkpt lat="44.4103" lon="5.92971">
        <ele>1298.4</ele>
        <time>2012-03-04T11:01:33Z</time>
      </trkpt>
      <trkpt lat="44.41025" lon="5.92971">
        <ele>1309.8</ele>
        <time>2012-03-04T11:01:40Z</time>
      </trkpt>
      <trkpt lat="44.41025" lon="5.92979">
        <ele>1302.5</ele>
        <time>2012-03-04T11:01:55Z</time>
      </trkpt>
      <trkpt lat="44.41023" lon="5.92986">
        <ele>1306.2</ele>
        <time>2012-03-04T11:02:04Z</time>
      </trkpt>
      <trkpt lat="44.41022" lon="5.92993">
        <ele>1305.3</ele>
        <time>2012-03-04T11:02:10Z</time>
      </trkpt>
      <trkpt lat="44.41022" lon="5.92999">
        <ele>1306.8</ele>
        <time>2012-03-04T11:02:16Z</time>
      </trkpt>
      <trkpt lat="44.41019" lon="5.93006">
        <ele>1306.9</ele>
        <time>2012-03-04T11:02:22Z</time>
      </trkpt>
      <trkpt lat="44.41016" lon="5.9301">
        <ele>1303.9</ele>
        <time>2012-03-04T11:02:26Z</time>
      </trkpt>
      <trkpt lat="44.41012" lon="5.93015">
        <ele>1303.1</ele>
        <time>2012-03-04T11:02:48Z</time>
      </trkpt>
      <trkpt lat="44.41008" lon="5.93018">
        <ele>1303.9</ele>
        <time>2012-03-04T11:02:54Z</time>
      </trkpt>
      <trkpt lat="44.4101" lon="5.93012">
        <ele>1304.2</ele>
        <time>2012-03-04T11:04:33Z</time>
      </trkpt>
      <trkpt lat="44.41011" lon="5.93019">
        <ele>1306</ele>
        <time>2012-03-04T11:04:40Z</time>
      </trkpt>
      <trkpt lat="44.4101" lon="5.93025">
        <ele>1306.4</ele>
        <time>2012-03-04T11:04:44Z</time>
      </trkpt>
      <trkpt lat="44.4101" lon="5.93032">
        <ele>1306</ele>
        <time>2012-03-04T11:04:49Z</time>
      </trkpt>
      <trkpt lat="44.41012" lon="5.93037">
        <ele>1309.9</ele>
        <time>2012-03-04T11:04:57Z</time>
      </trkpt>
      <trkpt lat="44.41013" lon="5.93044">
        <ele>1306.9</ele>
        <time>2012-03-04T11:05:44Z</time>
      </trkpt>
      <trkpt lat="44.41018" lon="5.93048">
        <ele>1305.9</ele>
        <time>2012-03-04T11:05:49Z</time>
      </trkpt>
      <trkpt lat="44.41023" lon="5.93051">
        <ele>1304.7</ele>
        <time>2012-03-04T11:05:51Z</time>
      </trkpt>
      <trkpt lat="44.4103" lon="5.93053">
        <ele>1304.2</ele>
        <time>2012-03-04T11:05:53Z</time>
      </trkpt>
      <trkpt lat="44.41035" lon="5.93055">
        <ele>1301.5</ele>
        <time>2012-03-04T11:05:55Z</time>
      </trkpt>
      <trkpt lat="44.41038" lon="5.93061">
        <ele>1299.3</ele>
        <time>2012-03-04T11:05:58Z</time>
      </trkpt>
      <trkpt lat="44.41043" lon="5.93064">
        <ele>1298.8</ele>
        <time>2012-03-04T11:06:01Z</time>
      </trkpt>
      <trkpt lat="44.41049" lon="5.93064">
        <ele>1298.5</ele>
        <time>2012-03-04T11:06:03Z</time>
      </trkpt>
      <trkpt lat="44.41053" lon="5.93062">
        <ele>1297.7</ele>
        <time>2012-03-04T11:06:05Z</time>
      </trkpt>
      <trkpt lat="44.41058" lon="5.9306">
        <ele>1296.5</ele>
        <time>2012-03-04T11:06:07Z</time>
      </trkpt>
      <trkpt lat="44.41064" lon="5.93059">
        <ele>1294.3</ele>
        <time>2012-03-04T11:06:09Z</time>
      </trkpt>
      <trkpt lat="44.41072" lon="5.93058">
        <ele>1292.5</ele>
        <time>2012-03-04T11:06:11Z</time>
      </trkpt>
      <trkpt lat="44.4108" lon="5.93058">
        <ele>1290.1</ele>
        <time>2012-03-04T11:06:13Z</time>
      </trkpt>
      <trkpt lat="44.41084" lon="5.93057">
        <ele>1288.3</ele>
        <time>2012-03-04T11:06:14Z</time>
      </trkpt>
      <trkpt lat="44.41089" lon="5.93056">
        <ele>1287.2</ele>
        <time>2012-03-04T11:06:15Z</time>
      </trkpt>
      <trkpt lat="44.41099" lon="5.93055">
        <ele>1285.3</ele>
        <time>2012-03-04T11:06:16Z</time>
      </trkpt>
      <trkpt lat="44.41108" lon="5.93055">
        <ele>1286.5</ele>
        <time>2012-03-04T11:06:18Z</time>
      </trkpt>
      <trkpt lat="44.41117" lon="5.93055">
        <ele>1282.2</ele>
        <time>2012-03-04T11:06:20Z</time>
      </trkpt>
      <trkpt lat="44.41122" lon="5.93055">
        <ele>1280.5</ele>
        <time>2012-03-04T11:06:21Z</time>
      </trkpt>
      <trkpt lat="44.41129" lon="5.93056">
        <ele>1279.1</ele>
        <time>2012-03-04T11:06:22Z</time>
      </trkpt>
      <trkpt lat="44.41134" lon="5.93056">
        <ele>1277.7</ele>
        <time>2012-03-04T11:06:23Z</time>
      </trkpt>
      <trkpt lat="44.41139" lon="5.93056">
        <ele>1276.5</ele>
        <time>2012-03-04T11:06:24Z</time>
      </trkpt>
      <trkpt lat="44.41143" lon="5.9306">
        <ele>1274.8</ele>
        <time>2012-03-04T11:06:25Z</time>
      </trkpt>
      <trkpt lat="44.41148" lon="5.93064">
        <ele>1273.5</ele>
        <time>2012-03-04T11:06:26Z</time>
      </trkpt>
      <trkpt lat="44.41154" lon="5.93071">
        <ele>1271.2</ele>
        <time>2012-03-04T11:06:28Z</time>
      </trkpt>
      <trkpt lat="44.41159" lon="5.93074">
        <ele>1268.9</ele>
        <time>2012-03-04T11:06:30Z</time>
      </trkpt>
      <trkpt lat="44.41166" lon="5.93074">
        <ele>1266.8</ele>
        <time>2012-03-04T11:06:32Z</time>
      </trkpt>
      <trkpt lat="44.41173" lon="5.93077">
        <ele>1263</ele>
        <time>2012-03-04T11:06:34Z</time>
      </trkpt>
      <trkpt lat="44.4118" lon="5.9308">
        <ele>1259.9</ele>
        <time>2012-03-04T11:06:36Z</time>
      </trkpt>
      <trkpt lat="44.41184" lon="5.93084">
        <ele>1257.8</ele>
        <time>2012-03-04T11:06:37Z</time>
      </trkpt>
      <trkpt lat="44.41189" lon="5.93087">
        <ele>1259.4</ele>
        <time>2012-03-04T11:06:38Z</time>
      </trkpt>
      <trkpt lat="44.41193" lon="5.9309">
        <ele>1258.9</ele>
        <time>2012-03-04T11:06:39Z</time>
      </trkpt>
      <trkpt lat="44.41197" lon="5.93094">
        <ele>1257.3</ele>
        <time>2012-03-04T11:06:40Z</time>
      </trkpt>
      <trkpt lat="44.41202" lon="5.931">
        <ele>1255.5</ele>
        <time>2012-03-04T11:06:42Z</time>
      </trkpt>
      <trkpt lat="44.41207" lon="5.93106">
        <ele>1252.3</ele>
        <time>2012-03-04T11:06:45Z</time>
      </trkpt>
      <trkpt lat="44.4121" lon="5.93114">
        <ele>1250.1</ele>
        <time>2012-03-04T11:06:48Z</time>
      </trkpt>
      <trkpt lat="44.41215" lon="5.9312">
        <ele>1248.1</ele>
        <time>2012-03-04T11:06:50Z</time>
      </trkpt>
      <trkpt lat="44.41218" lon="5.93126">
        <ele>1246.5</ele>
        <time>2012-03-04T11:06:51Z</time>
      </trkpt>
      <trkpt lat="44.41221" lon="5.93131">
        <ele>1245.6</ele>
        <time>2012-03-04T11:06:52Z</time>
      </trkpt>
      <trkpt lat="44.41224" lon="5.93137">
        <ele>1244.4</ele>
        <time>2012-03-04T11:06:53Z</time>
      </trkpt>
      <trkpt lat="44.41225" lon="5.93143">
        <ele>1244</ele>
        <time>2012-03-04T11:06:55Z</time>
      </trkpt>
      <trkpt lat="44.41226" lon="5.93151">
        <ele>1241.6</ele>
        <time>2012-03-04T11:06:57Z</time>
      </trkpt>
      <trkpt lat="44.41228" lon="5.93157">
        <ele>1240</ele>
        <time>2012-03-04T11:06:59Z</time>
      </trkpt>
      <trkpt lat="44.41231" lon="5.93164">
        <ele>1238.8</ele>
        <time>2012-03-04T11:07:01Z</time>
      </trkpt>
      <trkpt lat="44.41234" lon="5.9317">
        <ele>1237.6</ele>
        <time>2012-03-04T11:07:03Z</time>
      </trkpt>
      <trkpt lat="44.41236" lon="5.93177">
        <ele>1237.4</ele>
        <time>2012-03-04T11:07:06Z</time>
      </trkpt>
      <trkpt lat="44.4123" lon="5.9318">
        <ele>1235.9</ele>
        <time>2012-03-04T11:07:32Z</time>
      </trkpt>
      <trkpt lat="44.41224" lon="5.93179">
        <ele>1233.3</ele>
        <time>2012-03-04T11:07:34Z</time>
      </trkpt>
      <trkpt lat="44.41218" lon="5.93178">
        <ele>1233.2</ele>
        <time>2012-03-04T11:07:36Z</time>
      </trkpt>
      <trkpt lat="44.41212" lon="5.93181">
        <ele>1227.9</ele>
        <time>2012-03-04T11:07:39Z</time>
      </trkpt>
      <trkpt lat="44.41206" lon="5.93183">
        <ele>1223.4</ele>
        <time>2012-03-04T11:07:41Z</time>
      </trkpt>
      <trkpt lat="44.41198" lon="5.93185">
        <ele>1221.3</ele>
        <time>2012-03-04T11:07:43Z</time>
      </trkpt>
      <trkpt lat="44.41194" lon="5.93188">
        <ele>1219.2</ele>
        <time>2012-03-04T11:07:45Z</time>
      </trkpt>
      <trkpt lat="44.41189" lon="5.93187">
        <ele>1215.3</ele>
        <time>2012-03-04T11:07:48Z</time>
      </trkpt>
      <trkpt lat="44.41183" lon="5.93184">
        <ele>1210.6</ele>
        <time>2012-03-04T11:07:50Z</time>
      </trkpt>
      <trkpt lat="44.41178" lon="5.93179">
        <ele>1206.9</ele>
        <time>2012-03-04T11:07:52Z</time>
      </trkpt>
      <trkpt lat="44.4117" lon="5.93188">
        <ele>1209.3</ele>
        <time>2012-03-04T11:07:54Z</time>
      </trkpt>
      <trkpt lat="44.41166" lon="5.93194">
        <ele>1211.3</ele>
        <time>2012-03-04T11:07:55Z</time>
      </trkpt>
      <trkpt lat="44.41161" lon="5.93196">
        <ele>1211.9</ele>
        <time>2012-03-04T11:07:56Z</time>
      </trkpt>
      <trkpt lat="44.41155" lon="5.93195">
        <ele>1212.9</ele>
        <time>2012-03-04T11:07:59Z</time>
      </trkpt>
      <trkpt lat="44.41148" lon="5.93197">
        <ele>1214.2</ele>
        <time>2012-03-04T11:08:01Z</time>
      </trkpt>
      <trkpt lat="44.41144" lon="5.93202">
        <ele>1213.9</ele>
        <time>2012-03-04T11:08:03Z</time>
      </trkpt>
      <trkpt lat="44.41139" lon="5.9321">
        <ele>1214</ele>
        <time>2012-03-04T11:08:05Z</time>
      </trkpt>
      <trkpt lat="44.41136" lon="5.93215">
        <ele>1212.4</ele>
        <time>2012-03-04T11:08:06Z</time>
      </trkpt>
      <trkpt lat="44.41133" lon="5.9322">
        <ele>1213.6</ele>
        <time>2012-03-04T11:08:07Z</time>
      </trkpt>
      <trkpt lat="44.41129" lon="5.93225">
        <ele>1213.6</ele>
        <time>2012-03-04T11:08:08Z</time>
      </trkpt>
      <trkpt lat="44.4112" lon="5.93242">
        <ele>1213.2</ele>
        <time>2012-03-04T11:08:09Z</time>
      </trkpt>
      <trkpt lat="44.41116" lon="5.93249">
        <ele>1211.9</ele>
        <time>2012-03-04T11:08:10Z</time>
      </trkpt>
      <trkpt lat="44.41112" lon="5.93255">
        <ele>1212.6</ele>
        <time>2012-03-04T11:08:11Z</time>
      </trkpt>
      <trkpt lat="44.41115" lon="5.93263">
        <ele>1211.8</ele>
        <time>2012-03-04T11:08:12Z</time>
      </trkpt>
      <trkpt lat="44.41111" lon="5.93273">
        <ele>1210</ele>
        <time>2012-03-04T11:08:13Z</time>
      </trkpt>
      <trkpt lat="44.41106" lon="5.93285">
        <ele>1208.7</ele>
        <time>2012-03-04T11:08:15Z</time>
      </trkpt>
      <trkpt lat="44.41105" lon="5.93296">
        <ele>1207.7</ele>
        <time>2012-03-04T11:08:16Z</time>
      </trkpt>
      <trkpt lat="44.41103" lon="5.93303">
        <ele>1207.4</ele>
        <time>2012-03-04T11:08:17Z</time>
      </trkpt>
      <trkpt lat="44.411" lon="5.93309">
        <ele>1205.9</ele>
        <time>2012-03-04T11:08:18Z</time>
      </trkpt>
      <trkpt lat="44.41096" lon="5.93314">
        <ele>1204.8</ele>
        <time>2012-03-04T11:08:19Z</time>
      </trkpt>
      <trkpt lat="44.41093" lon="5.93326">
        <ele>1204.1</ele>
        <time>2012-03-04T11:08:20Z</time>
      </trkpt>
      <trkpt lat="44.41089" lon="5.93334">
        <ele>1201.4</ele>
        <time>2012-03-04T11:08:21Z</time>
      </trkpt>
      <trkpt lat="44.41083" lon="5.93338">
        <ele>1200.6</ele>
        <time>2012-03-04T11:08:22Z</time>
      </trkpt>
      <trkpt lat="44.41078" lon="5.93346">
        <ele>1199.9</ele>
        <time>2012-03-04T11:08:24Z</time>
      </trkpt>
      <trkpt lat="44.41072" lon="5.93352">
        <ele>1198.8</ele>
        <time>2012-03-04T11:08:25Z</time>
      </trkpt>
      <trkpt lat="44.4107" lon="5.93363">
        <ele>1196.2</ele>
        <time>2012-03-04T11:08:26Z</time>
      </trkpt>
      <trkpt lat="44.41067" lon="5.93376">
        <ele>1192.1</ele>
        <time>2012-03-04T11:08:28Z</time>
      </trkpt>
      <trkpt lat="44.41066" lon="5.93386">
        <ele>1190.2</ele>
        <time>2012-03-04T11:08:29Z</time>
      </trkpt>
      <trkpt lat="44.41067" lon="5.93394">
        <ele>1188.4</ele>
        <time>2012-03-04T11:08:30Z</time>
      </trkpt>
      <trkpt lat="44.4106" lon="5.93408">
        <ele>1187.9</ele>
        <time>2012-03-04T11:08:32Z</time>
      </trkpt>
      <trkpt lat="44.41061" lon="5.93418">
        <ele>1186.9</ele>
        <time>2012-03-04T11:08:34Z</time>
      </trkpt>
      <trkpt lat="44.41061" lon="5.93426">
        <ele>1185.1</ele>
        <time>2012-03-04T11:08:36Z</time>
      </trkpt>
      <trkpt lat="44.41057" lon="5.93435">
        <ele>1182.8</ele>
        <time>2012-03-04T11:08:38Z</time>
      </trkpt>
      <trkpt lat="44.41064" lon="5.93432">
        <ele>1172.1</ele>
        <time>2012-03-04T11:08:48Z</time>
      </trkpt>
      <trkpt lat="44.41071" lon="5.93426">
        <ele>1169.7</ele>
        <time>2012-03-04T11:08:50Z</time>
      </trkpt>
      <trkpt lat="44.41078" lon="5.93422">
        <ele>1167.4</ele>
        <time>2012-03-04T11:08:52Z</time>
      </trkpt>
      <trkpt lat="44.41082" lon="5.93419">
        <ele>1167.3</ele>
        <time>2012-03-04T11:08:53Z</time>
      </trkpt>
      <trkpt lat="44.41098" lon="5.93413">
        <ele>1166.6</ele>
        <time>2012-03-04T11:08:54Z</time>
      </trkpt>
      <trkpt lat="44.41106" lon="5.93409">
        <ele>1166.4</ele>
        <time>2012-03-04T11:08:56Z</time>
      </trkpt>
      <trkpt lat="44.41112" lon="5.93408">
        <ele>1164.3</ele>
        <time>2012-03-04T11:08:57Z</time>
      </trkpt>
      <trkpt lat="44.41116" lon="5.93408">
        <ele>1163.8</ele>
        <time>2012-03-04T11:08:58Z</time>
      </trkpt>
      <trkpt lat="44.41122" lon="5.93413">
        <ele>1161.5</ele>
        <time>2012-03-04T11:09:00Z</time>
      </trkpt>
      <trkpt lat="44.41125" lon="5.93418">
        <ele>1158.8</ele>
        <time>2012-03-04T11:09:02Z</time>
      </trkpt>
      <trkpt lat="44.41124" lon="5.93425">
        <ele>1153.6</ele>
        <time>2012-03-04T11:09:04Z</time>
      </trkpt>
      <trkpt lat="44.41122" lon="5.93433">
        <ele>1157.6</ele>
        <time>2012-03-04T11:09:07Z</time>
      </trkpt>
      <trkpt lat="44.4112" lon="5.93439">
        <ele>1156.7</ele>
        <time>2012-03-04T11:09:09Z</time>
      </trkpt>
      <trkpt lat="44.41118" lon="5.93447">
        <ele>1152.7</ele>
        <time>2012-03-04T11:09:11Z</time>
      </trkpt>
      <trkpt lat="44.41116" lon="5.93467">
        <ele>1152.5</ele>
        <time>2012-03-04T11:09:13Z</time>
      </trkpt>
      <trkpt lat="44.4111" lon="5.93478">
        <ele>1152.7</ele>
        <time>2012-03-04T11:09:13Z</time>
      </trkpt>
      <trkpt lat="44.4111" lon="5.93488">
        <ele>1150.7</ele>
        <time>2012-03-04T11:09:15Z</time>
      </trkpt>
      <trkpt lat="44.41108" lon="5.93501">
        <ele>1150.1</ele>
        <time>2012-03-04T11:09:16Z</time>
      </trkpt>
      <trkpt lat="44.41106" lon="5.93511">
        <ele>1150.7</ele>
        <time>2012-03-04T11:09:17Z</time>
      </trkpt>
      <trkpt lat="44.41107" lon="5.93521">
        <ele>1150.3</ele>
        <time>2012-03-04T11:09:18Z</time>
      </trkpt>
      <trkpt lat="44.41112" lon="5.93526">
        <ele>1149.7</ele>
        <time>2012-03-04T11:09:19Z</time>
      </trkpt>
      <trkpt lat="44.41121" lon="5.93547">
        <ele>1143.7</ele>
        <time>2012-03-04T11:09:20Z</time>
      </trkpt>
      <trkpt lat="44.41122" lon="5.93555">
        <ele>1142.6</ele>
        <time>2012-03-04T11:09:21Z</time>
      </trkpt>
      <trkpt lat="44.41124" lon="5.93563">
        <ele>1141.9</ele>
        <time>2012-03-04T11:09:22Z</time>
      </trkpt>
      <trkpt lat="44.41123" lon="5.9357">
        <ele>1141</ele>
        <time>2012-03-04T11:09:23Z</time>
      </trkpt>
      <trkpt lat="44.41123" lon="5.93583">
        <ele>1138</ele>
        <time>2012-03-04T11:09:24Z</time>
      </trkpt>
      <trkpt lat="44.41125" lon="5.93598">
        <ele>1149.5</ele>
        <time>2012-03-04T11:09:26Z</time>
      </trkpt>
      <trkpt lat="44.41126" lon="5.93612">
        <ele>1151.1</ele>
        <time>2012-03-04T11:09:28Z</time>
      </trkpt>
      <trkpt lat="44.4113" lon="5.93623">
        <ele>1147.5</ele>
        <time>2012-03-04T11:09:29Z</time>
      </trkpt>
      <trkpt lat="44.41122" lon="5.93633">
        <ele>1139.8</ele>
        <time>2012-03-04T11:09:30Z</time>
      </trkpt>
      <trkpt lat="44.4112" lon="5.9364">
        <ele>1137.8</ele>
        <time>2012-03-04T11:09:31Z</time>
      </trkpt>
      <trkpt lat="44.41119" lon="5.93649">
        <ele>1136</ele>
        <time>2012-03-04T11:09:32Z</time>
      </trkpt>
      <trkpt lat="44.41121" lon="5.93655">
        <ele>1136.1</ele>
        <time>2012-03-04T11:09:33Z</time>
      </trkpt>
      <trkpt lat="44.41123" lon="5.93662">
        <ele>1135</ele>
        <time>2012-03-04T11:09:34Z</time>
      </trkpt>
      <trkpt lat="44.41125" lon="5.93671">
        <ele>1135.3</ele>
        <time>2012-03-04T11:09:36Z</time>
      </trkpt>
      <trkpt lat="44.41128" lon="5.93679">
        <ele>1140.1</ele>
        <time>2012-03-04T11:09:38Z</time>
      </trkpt>
      <trkpt lat="44.4113" lon="5.93692">
        <ele>1139.2</ele>
        <time>2012-03-04T11:09:40Z</time>
      </trkpt>
      <trkpt lat="44.41132" lon="5.937">
        <ele>1134.8</ele>
        <time>2012-03-04T11:09:42Z</time>
      </trkpt>
      <trkpt lat="44.41136" lon="5.93707">
        <ele>1133.9</ele>
        <time>2012-03-04T11:09:44Z</time>
      </trkpt>
      <trkpt lat="44.41139" lon="5.93717">
        <ele>1132.8</ele>
        <time>2012-03-04T11:09:46Z</time>
      </trkpt>
      <trkpt lat="44.4114" lon="5.93728">
        <ele>1134.6</ele>
        <time>2012-03-04T11:09:48Z</time>
      </trkpt>
      <trkpt lat="44.41142" lon="5.93739">
        <ele>1134</ele>
        <time>2012-03-04T11:09:50Z</time>
      </trkpt>
      <trkpt lat="44.41144" lon="5.93749">
        <ele>1134.1</ele>
        <time>2012-03-04T11:09:52Z</time>
      </trkpt>
      <trkpt lat="44.41147" lon="5.93759">
        <ele>1132.3</ele>
        <time>2012-03-04T11:09:54Z</time>
      </trkpt>
      <trkpt lat="44.41149" lon="5.93766">
        <ele>1133.2</ele>
        <time>2012-03-04T11:09:57Z</time>
      </trkpt>
      <trkpt lat="44.41154" lon="5.93779">
        <ele>1129</ele>
        <time>2012-03-04T11:09:58Z</time>
      </trkpt>
      <trkpt lat="44.41157" lon="5.93785">
        <ele>1126.5</ele>
        <time>2012-03-04T11:09:59Z</time>
      </trkpt>
      <trkpt lat="44.4116" lon="5.93792">
        <ele>1125.9</ele>
        <time>2012-03-04T11:10:00Z</time>
      </trkpt>
      <trkpt lat="44.41165" lon="5.93803">
        <ele>1120.6</ele>
        <time>2012-03-04T11:10:01Z</time>
      </trkpt>
      <trkpt lat="44.41168" lon="5.93815">
        <ele>1118.5</ele>
        <time>2012-03-04T11:10:03Z</time>
      </trkpt>
      <trkpt lat="44.41172" lon="5.93827">
        <ele>1119.9</ele>
        <time>2012-03-04T11:10:05Z</time>
      </trkpt>
      <trkpt lat="44.41175" lon="5.93835">
        <ele>1119</ele>
        <time>2012-03-04T11:10:06Z</time>
      </trkpt>
      <trkpt lat="44.41181" lon="5.93856">
        <ele>1109.7</ele>
        <time>2012-03-04T11:10:07Z</time>
      </trkpt>
      <trkpt lat="44.41184" lon="5.9387">
        <ele>1104.5</ele>
        <time>2012-03-04T11:10:08Z</time>
      </trkpt>
      <trkpt lat="44.41179" lon="5.93879">
        <ele>1097.3</ele>
        <time>2012-03-04T11:10:10Z</time>
      </trkpt>
      <trkpt lat="44.41182" lon="5.93887">
        <ele>1087.6</ele>
        <time>2012-03-04T11:10:14Z</time>
      </trkpt>
      <trkpt lat="44.41186" lon="5.93893">
        <ele>1084.1</ele>
        <time>2012-03-04T11:10:16Z</time>
      </trkpt>
      <trkpt lat="44.41193" lon="5.93903">
        <ele>1081.1</ele>
        <time>2012-03-04T11:10:19Z</time>
      </trkpt>
      <trkpt lat="44.41197" lon="5.9391">
        <ele>1079.1</ele>
        <time>2012-03-04T11:11:02Z</time>
      </trkpt>
      <trkpt lat="44.41202" lon="5.9392">
        <ele>1078.8</ele>
        <time>2012-03-04T11:11:03Z</time>
      </trkpt>
      <trkpt lat="44.41208" lon="5.93926">
        <ele>1076.1</ele>
        <time>2012-03-04T11:11:05Z</time>
      </trkpt>
      <trkpt lat="44.41212" lon="5.93936">
        <ele>1075.2</ele>
        <time>2012-03-04T11:11:07Z</time>
      </trkpt>
      <trkpt lat="44.41215" lon="5.93944">
        <ele>1076.8</ele>
        <time>2012-03-04T11:11:08Z</time>
      </trkpt>
      <trkpt lat="44.41221" lon="5.93952">
        <ele>1072.4</ele>
        <time>2012-03-04T11:11:10Z</time>
      </trkpt>
      <trkpt lat="44.41224" lon="5.93957">
        <ele>1070.8</ele>
        <time>2012-03-04T11:11:11Z</time>
      </trkpt>
      <trkpt lat="44.41227" lon="5.93962">
        <ele>1068.3</ele>
        <time>2012-03-04T11:11:13Z</time>
      </trkpt>
      <trkpt lat="44.41227" lon="5.93969">
        <ele>1066.1</ele>
        <time>2012-03-04T11:11:15Z</time>
      </trkpt>
      <trkpt lat="44.4123" lon="5.93976">
        <ele>1062.1</ele>
        <time>2012-03-04T11:11:17Z</time>
      </trkpt>
      <trkpt lat="44.41233" lon="5.93983">
        <ele>1059.8</ele>
        <time>2012-03-04T11:11:18Z</time>
      </trkpt>
      <trkpt lat="44.41235" lon="5.9399">
        <ele>1057.7</ele>
        <time>2012-03-04T11:11:19Z</time>
      </trkpt>
      <trkpt lat="44.41237" lon="5.93996">
        <ele>1057.2</ele>
        <time>2012-03-04T11:11:20Z</time>
      </trkpt>
      <trkpt lat="44.41239" lon="5.94004">
        <ele>1056</ele>
        <time>2012-03-04T11:11:22Z</time>
      </trkpt>
      <trkpt lat="44.41244" lon="5.94008">
        <ele>1054.8</ele>
        <time>2012-03-04T11:11:24Z</time>
      </trkpt>
      <trkpt lat="44.4125" lon="5.94013">
        <ele>1050.5</ele>
        <time>2012-03-04T11:11:26Z</time>
      </trkpt>
      <trkpt lat="44.41255" lon="5.94019">
        <ele>1047</ele>
        <time>2012-03-04T11:11:29Z</time>
      </trkpt>
      <trkpt lat="44.41262" lon="5.94021">
        <ele>1044</ele>
        <time>2012-03-04T11:11:31Z</time>
      </trkpt>
      <trkpt lat="44.41272" lon="5.94023">
        <ele>1045.6</ele>
        <time>2012-03-04T11:11:33Z</time>
      </trkpt>
      <trkpt lat="44.41277" lon="5.94024">
        <ele>1046.4</ele>
        <time>2012-03-04T11:11:34Z</time>
      </trkpt>
      <trkpt lat="44.41282" lon="5.94026">
        <ele>1046.2</ele>
        <time>2012-03-04T11:11:35Z</time>
      </trkpt>
      <trkpt lat="44.41285" lon="5.9403">
        <ele>1044.2</ele>
        <time>2012-03-04T11:11:36Z</time>
      </trkpt>
      <trkpt lat="44.41292" lon="5.94033">
        <ele>1042.9</ele>
        <time>2012-03-04T11:11:37Z</time>
      </trkpt>
      <trkpt lat="44.41288" lon="5.94039">
        <ele>1040.9</ele>
        <time>2012-03-04T11:11:39Z</time>
      </trkpt>
      <trkpt lat="44.41292" lon="5.94044">
        <ele>1037.5</ele>
        <time>2012-03-04T11:11:42Z</time>
      </trkpt>
      <trkpt lat="44.41297" lon="5.94042">
        <ele>1037</ele>
        <time>2012-03-04T11:11:44Z</time>
      </trkpt>
      <trkpt lat="44.41302" lon="5.94038">
        <ele>1034.5</ele>
        <time>2012-03-04T11:11:46Z</time>
      </trkpt>
      <trkpt lat="44.41306" lon="5.94033">
        <ele>1033.1</ele>
        <time>2012-03-04T11:11:50Z</time>
      </trkpt>
      <trkpt lat="44.41312" lon="5.94036">
        <ele>1032.3</ele>
        <time>2012-03-04T11:11:54Z</time>
      </trkpt>
      <trkpt lat="44.41316" lon="5.94036">
        <ele>1029.1</ele>
        <time>2012-03-04T11:11:57Z</time>
      </trkpt>
      <trkpt lat="44.41323" lon="5.94035">
        <ele>1024.2</ele>
        <time>2012-03-04T11:12:00Z</time>
      </trkpt>
      <trkpt lat="44.41328" lon="5.94039">
        <ele>1022.7</ele>
        <time>2012-03-04T11:12:03Z</time>
      </trkpt>
      <trkpt lat="44.41333" lon="5.94036">
        <ele>1018.9</ele>
        <time>2012-03-04T11:12:08Z</time>
      </trkpt>
      <trkpt lat="44.41336" lon="5.94028">
        <ele>1019.1</ele>
        <time>2012-03-04T11:12:11Z</time>
      </trkpt>
      <trkpt lat="44.41339" lon="5.9402">
        <ele>1015.1</ele>
        <time>2012-03-04T11:12:14Z</time>
      </trkpt>
      <trkpt lat="44.41339" lon="5.94012">
        <ele>1010.6</ele>
        <time>2012-03-04T11:12:16Z</time>
      </trkpt>
      <trkpt lat="44.41341" lon="5.94003">
        <ele>1005.4</ele>
        <time>2012-03-04T11:12:18Z</time>
      </trkpt>
      <trkpt lat="44.41343" lon="5.93994">
        <ele>1003.6</ele>
        <time>2012-03-04T11:12:20Z</time>
      </trkpt>
      <trkpt lat="44.41345" lon="5.93987">
        <ele>1003.7</ele>
        <time>2012-03-04T11:12:22Z</time>
      </trkpt>
      <trkpt lat="44.4135" lon="5.93986">
        <ele>1002</ele>
        <time>2012-03-04T11:12:29Z</time>
      </trkpt>
      <trkpt lat="44.41354" lon="5.9398">
        <ele>1002.7</ele>
        <time>2012-03-04T11:12:32Z</time>
      </trkpt>
      <trkpt lat="44.41356" lon="5.93972">
        <ele>1001.2</ele>
        <time>2012-03-04T11:12:34Z</time>
      </trkpt>
      <trkpt lat="44.4136" lon="5.9396">
        <ele>999.7</ele>
        <time>2012-03-04T11:12:36Z</time>
      </trkpt>
      <trkpt lat="44.41363" lon="5.93954">
        <ele>999.8</ele>
        <time>2012-03-04T11:12:37Z</time>
      </trkpt>
      <trkpt lat="44.41366" lon="5.93948">
        <ele>999.8</ele>
        <time>2012-03-04T11:12:38Z</time>
      </trkpt>
      <trkpt lat="44.41369" lon="5.93939">
        <ele>993.3</ele>
        <time>2012-03-04T11:12:40Z</time>
      </trkpt>
      <trkpt lat="44.41374" lon="5.93936">
        <ele>987.9</ele>
        <time>2012-03-04T11:12:48Z</time>
      </trkpt>
      <trkpt lat="44.41378" lon="5.93939">
        <ele>987.4</ele>
        <time>2012-03-04T11:12:52Z</time>
      </trkpt>
      <trkpt lat="44.4138" lon="5.9393">
        <ele>986.9</ele>
        <time>2012-03-04T11:13:02Z</time>
      </trkpt>
      <trkpt lat="44.41381" lon="5.93923">
        <ele>986.5</ele>
        <time>2012-03-04T11:13:04Z</time>
      </trkpt>
      <trkpt lat="44.41382" lon="5.93915">
        <ele>988</ele>
        <time>2012-03-04T11:13:06Z</time>
      </trkpt>
      <trkpt lat="44.41381" lon="5.93906">
        <ele>987.9</ele>
        <time>2012-03-04T11:13:08Z</time>
      </trkpt>
      <trkpt lat="44.41381" lon="5.93894">
        <ele>987.9</ele>
        <time>2012-03-04T11:13:10Z</time>
      </trkpt>
      <trkpt lat="44.41379" lon="5.93888">
        <ele>985.6</ele>
        <time>2012-03-04T11:13:11Z</time>
      </trkpt>
      <trkpt lat="44.41383" lon="5.93884">
        <ele>983.1</ele>
        <time>2012-03-04T11:13:16Z</time>
      </trkpt>
      <trkpt lat="44.41387" lon="5.93883">
        <ele>976</ele>
        <time>2012-03-04T11:13:20Z</time>
      </trkpt>
      <trkpt lat="44.41388" lon="5.93875">
        <ele>971</ele>
        <time>2012-03-04T11:13:23Z</time>
      </trkpt>
      <trkpt lat="44.41391" lon="5.93869">
        <ele>968.1</ele>
        <time>2012-03-04T11:13:26Z</time>
      </trkpt>
      <trkpt lat="44.41399" lon="5.93868">
        <ele>966.7</ele>
        <time>2012-03-04T11:13:29Z</time>
      </trkpt>
      <trkpt lat="44.41405" lon="5.93871">
        <ele>964.4</ele>
        <time>2012-03-04T11:13:31Z</time>
      </trkpt>
      <trkpt lat="44.41413" lon="5.93874">
        <ele>964.5</ele>
        <time>2012-03-04T11:13:33Z</time>
      </trkpt>
      <trkpt lat="44.41413" lon="5.93874">
        <ele>964.5</ele>
        <time>2012-03-04T11:13:33Z</time>
      </trkpt>
      <trkpt lat="44.41413" lon="5.93874">
        <ele>964.5</ele>
        <time>2012-03-04T11:13:34Z</time>
      </trkpt>
      <trkpt lat="44.41418" lon="5.93882">
        <ele>965.7</ele>
        <time>2012-03-04T11:14:06Z</time>
      </trkpt>
      <trkpt lat="44.41421" lon="5.93892">
        <ele>965.5</ele>
        <time>2012-03-04T11:14:08Z</time>
      </trkpt>
      <trkpt lat="44.41423" lon="5.93898">
        <ele>965.5</ele>
        <time>2012-03-04T11:14:09Z</time>
      </trkpt>
      <trkpt lat="44.41425" lon="5.93904">
        <ele>963.1</ele>
        <time>2012-03-04T11:14:10Z</time>
      </trkpt>
      <trkpt lat="44.41428" lon="5.9391">
        <ele>963.6</ele>
        <time>2012-03-04T11:14:11Z</time>
      </trkpt>
      <trkpt lat="44.41437" lon="5.93922">
        <ele>960.3</ele>
        <time>2012-03-04T11:14:12Z</time>
      </trkpt>
      <trkpt lat="44.41441" lon="5.93931">
        <ele>957.8</ele>
        <time>2012-03-04T11:14:13Z</time>
      </trkpt>
      <trkpt lat="44.41447" lon="5.93939">
        <ele>955.7</ele>
        <time>2012-03-04T11:14:14Z</time>
      </trkpt>
      <trkpt lat="44.41451" lon="5.93946">
        <ele>955.4</ele>
        <time>2012-03-04T11:14:15Z</time>
      </trkpt>
      <trkpt lat="44.41455" lon="5.93954">
        <ele>956.9</ele>
        <time>2012-03-04T11:14:17Z</time>
      </trkpt>
      <trkpt lat="44.41457" lon="5.9396">
        <ele>957.6</ele>
        <time>2012-03-04T11:14:18Z</time>
      </trkpt>
      <trkpt lat="44.4146" lon="5.9397">
        <ele>959.7</ele>
        <time>2012-03-04T11:14:20Z</time>
      </trkpt>
      <trkpt lat="44.41463" lon="5.93976">
        <ele>960.8</ele>
        <time>2012-03-04T11:14:21Z</time>
      </trkpt>
      <trkpt lat="44.41465" lon="5.93985">
        <ele>960.1</ele>
        <time>2012-03-04T11:14:22Z</time>
      </trkpt>
      <trkpt lat="44.41467" lon="5.93995">
        <ele>963</ele>
        <time>2012-03-04T11:14:24Z</time>
      </trkpt>
      <trkpt lat="44.41469" lon="5.94013">
        <ele>955.7</ele>
        <time>2012-03-04T11:14:25Z</time>
      </trkpt>
      <trkpt lat="44.41472" lon="5.94022">
        <ele>955.8</ele>
        <time>2012-03-04T11:14:26Z</time>
      </trkpt>
      <trkpt lat="44.41477" lon="5.94036">
        <ele>951.7</ele>
        <time>2012-03-04T11:14:27Z</time>
      </trkpt>
      <trkpt lat="44.41481" lon="5.94047">
        <ele>950.5</ele>
        <time>2012-03-04T11:14:28Z</time>
      </trkpt>
      <trkpt lat="44.41484" lon="5.94055">
        <ele>949.6</ele>
        <time>2012-03-04T11:14:29Z</time>
      </trkpt>
      <trkpt lat="44.41485" lon="5.94064">
        <ele>947</ele>
        <time>2012-03-04T11:14:31Z</time>
      </trkpt>
      <trkpt lat="44.41486" lon="5.94077">
        <ele>947.9</ele>
        <time>2012-03-04T11:14:33Z</time>
      </trkpt>
      <trkpt lat="44.41486" lon="5.94086">
        <ele>947.5</ele>
        <time>2012-03-04T11:14:34Z</time>
      </trkpt>
      <trkpt lat="44.4149" lon="5.94103">
        <ele>938</ele>
        <time>2012-03-04T11:14:35Z</time>
      </trkpt>
      <trkpt lat="44.41492" lon="5.94112">
        <ele>934.7</ele>
        <time>2012-03-04T11:14:36Z</time>
      </trkpt>
      <trkpt lat="44.41492" lon="5.94124">
        <ele>929.8</ele>
        <time>2012-03-04T11:14:37Z</time>
      </trkpt>
      <trkpt lat="44.41494" lon="5.94135">
        <ele>927.1</ele>
        <time>2012-03-04T11:14:38Z</time>
      </trkpt>
      <trkpt lat="44.41495" lon="5.94144">
        <ele>926.6</ele>
        <time>2012-03-04T11:14:39Z</time>
      </trkpt>
      <trkpt lat="44.41497" lon="5.94149">
        <ele>926.5</ele>
        <time>2012-03-04T11:14:40Z</time>
      </trkpt>
      <trkpt lat="44.41502" lon="5.94159">
        <ele>924.9</ele>
        <time>2012-03-04T11:14:41Z</time>
      </trkpt>
      <trkpt lat="44.41505" lon="5.94166">
        <ele>922.9</ele>
        <time>2012-03-04T11:14:42Z</time>
      </trkpt>
      <trkpt lat="44.41508" lon="5.94173">
        <ele>922.7</ele>
        <time>2012-03-04T11:14:43Z</time>
      </trkpt>
      <trkpt lat="44.41507" lon="5.9418">
        <ele>920.4</ele>
        <time>2012-03-04T11:14:44Z</time>
      </trkpt>
      <trkpt lat="44.41508" lon="5.94188">
        <ele>917.1</ele>
        <time>2012-03-04T11:14:45Z</time>
      </trkpt>
      <trkpt lat="44.41509" lon="5.94198">
        <ele>912.7</ele>
        <time>2012-03-04T11:14:47Z</time>
      </trkpt>
      <trkpt lat="44.41515" lon="5.94197">
        <ele>915.6</ele>
        <time>2012-03-04T11:14:49Z</time>
      </trkpt>
      <trkpt lat="44.41522" lon="5.94199">
        <ele>919.3</ele>
        <time>2012-03-04T11:14:52Z</time>
      </trkpt>
      <trkpt lat="44.41526" lon="5.94202">
        <ele>913.1</ele>
        <time>2012-03-04T11:14:54Z</time>
      </trkpt>
      <trkpt lat="44.41533" lon="5.94202">
        <ele>910.3</ele>
        <time>2012-03-04T11:14:56Z</time>
      </trkpt>
      <trkpt lat="44.41542" lon="5.942">
        <ele>908.1</ele>
        <time>2012-03-04T11:14:58Z</time>
      </trkpt>
      <trkpt lat="44.4155" lon="5.94199">
        <ele>902.2</ele>
        <time>2012-03-04T11:15:00Z</time>
      </trkpt>
      <trkpt lat="44.41558" lon="5.942">
        <ele>896.9</ele>
        <time>2012-03-04T11:15:02Z</time>
      </trkpt>
      <trkpt lat="44.41566" lon="5.94201">
        <ele>893.5</ele>
        <time>2012-03-04T11:15:04Z</time>
      </trkpt>
      <trkpt lat="44.41571" lon="5.94209">
        <ele>890.6</ele>
        <time>2012-03-04T11:15:06Z</time>
      </trkpt>
      <trkpt lat="44.41573" lon="5.94226">
        <ele>887.8</ele>
        <time>2012-03-04T11:15:07Z</time>
      </trkpt>
      <trkpt lat="44.41577" lon="5.94234">
        <ele>885.3</ele>
        <time>2012-03-04T11:15:09Z</time>
      </trkpt>
      <trkpt lat="44.41583" lon="5.94236">
        <ele>879.6</ele>
        <time>2012-03-04T11:15:11Z</time>
      </trkpt>
      <trkpt lat="44.4158" lon="5.94243">
        <ele>879.6</ele>
        <time>2012-03-04T11:15:13Z</time>
      </trkpt>
      <trkpt lat="44.41578" lon="5.94251">
        <ele>878.3</ele>
        <time>2012-03-04T11:15:15Z</time>
      </trkpt>
      <trkpt lat="44.41575" lon="5.94261">
        <ele>875.4</ele>
        <time>2012-03-04T11:15:17Z</time>
      </trkpt>
      <trkpt lat="44.41573" lon="5.94269">
        <ele>874.1</ele>
        <time>2012-03-04T11:15:19Z</time>
      </trkpt>
      <trkpt lat="44.41574" lon="5.94276">
        <ele>871.9</ele>
        <time>2012-03-04T11:15:22Z</time>
      </trkpt>
      <trkpt lat="44.4158" lon="5.9428">
        <ele>867.8</ele>
        <time>2012-03-04T11:15:26Z</time>
      </trkpt>
      <trkpt lat="44.41585" lon="5.94281">
        <ele>866.1</ele>
        <time>2012-03-04T11:15:28Z</time>
      </trkpt>
      <trkpt lat="44.41591" lon="5.94287">
        <ele>851.7</ele>
        <time>2012-03-04T11:15:37Z</time>
      </trkpt>
      <trkpt lat="44.41597" lon="5.9429">
        <ele>849.4</ele>
        <time>2012-03-04T11:15:39Z</time>
      </trkpt>
      <trkpt lat="44.416" lon="5.94296">
        <ele>847.4</ele>
        <time>2012-03-04T11:15:42Z</time>
      </trkpt>
      <trkpt lat="44.41601" lon="5.94305">
        <ele>845.2</ele>
        <time>2012-03-04T11:15:45Z</time>
      </trkpt>
      <trkpt lat="44.41605" lon="5.94308">
        <ele>843.8</ele>
        <time>2012-03-04T11:15:47Z</time>
      </trkpt>
      <trkpt lat="44.41614" lon="5.94306">
        <ele>843.3</ele>
        <time>2012-03-04T11:15:49Z</time>
      </trkpt>
      <trkpt lat="44.41626" lon="5.94299">
        <ele>840.7</ele>
        <time>2012-03-04T11:15:50Z</time>
      </trkpt>
      <trkpt lat="44.41631" lon="5.94297">
        <ele>840.3</ele>
        <time>2012-03-04T11:15:51Z</time>
      </trkpt>
      <trkpt lat="44.41636" lon="5.94292">
        <ele>838.9</ele>
        <time>2012-03-04T11:15:52Z</time>
      </trkpt>
      <trkpt lat="44.41642" lon="5.94288">
        <ele>838.3</ele>
        <time>2012-03-04T11:15:53Z</time>
      </trkpt>
      <trkpt lat="44.41648" lon="5.94283">
        <ele>836.3</ele>
        <time>2012-03-04T11:15:54Z</time>
      </trkpt>
      <trkpt lat="44.41654" lon="5.94276">
        <ele>835.2</ele>
        <time>2012-03-04T11:15:55Z</time>
      </trkpt>
      <trkpt lat="44.4166" lon="5.94273">
        <ele>833.7</ele>
        <time>2012-03-04T11:15:56Z</time>
      </trkpt>
      <trkpt lat="44.41665" lon="5.94272">
        <ele>829.4</ele>
        <time>2012-03-04T11:15:58Z</time>
      </trkpt>
      <trkpt lat="44.41671" lon="5.94262">
        <ele>828.8</ele>
        <time>2012-03-04T11:16:00Z</time>
      </trkpt>
      <trkpt lat="44.41674" lon="5.94256">
        <ele>829.1</ele>
        <time>2012-03-04T11:16:01Z</time>
      </trkpt>
      <trkpt lat="44.41679" lon="5.94255">
        <ele>829.7</ele>
        <time>2012-03-04T11:16:02Z</time>
      </trkpt>
      <trkpt lat="44.41685" lon="5.94252">
        <ele>828.8</ele>
        <time>2012-03-04T11:16:03Z</time>
      </trkpt>
      <trkpt lat="44.41692" lon="5.94252">
        <ele>830.4</ele>
        <time>2012-03-04T11:16:05Z</time>
      </trkpt>
      <trkpt lat="44.417" lon="5.94254">
        <ele>828.7</ele>
        <time>2012-03-04T11:16:07Z</time>
      </trkpt>
      <trkpt lat="44.41704" lon="5.94251">
        <ele>828.5</ele>
        <time>2012-03-04T11:16:08Z</time>
      </trkpt>
      <trkpt lat="44.41705" lon="5.94259">
        <ele>824.9</ele>
        <time>2012-03-04T11:16:11Z</time>
      </trkpt>
      <trkpt lat="44.41707" lon="5.94266">
        <ele>824.9</ele>
        <time>2012-03-04T11:16:14Z</time>
      </trkpt>
      <trkpt lat="44.41709" lon="5.94273">
        <ele>816.5</ele>
        <time>2012-03-04T11:16:18Z</time>
      </trkpt>
      <trkpt lat="44.41707" lon="5.94281">
        <ele>815.5</ele>
        <time>2012-03-04T11:16:21Z</time>
      </trkpt>
      <trkpt lat="44.41712" lon="5.94288">
        <ele>810.8</ele>
        <time>2012-03-04T11:16:26Z</time>
      </trkpt>
      <trkpt lat="44.41716" lon="5.94294">
        <ele>809.7</ele>
        <time>2012-03-04T11:16:28Z</time>
      </trkpt>
      <trkpt lat="44.41727" lon="5.94306">
        <ele>802.6</ele>
        <time>2012-03-04T11:16:29Z</time>
      </trkpt>
      <trkpt lat="44.41733" lon="5.9431">
        <ele>799.7</ele>
        <time>2012-03-04T11:16:30Z</time>
      </trkpt>
      <trkpt lat="44.41738" lon="5.94314">
        <ele>798.9</ele>
        <time>2012-03-04T11:16:31Z</time>
      </trkpt>
      <trkpt lat="44.4174" lon="5.94322">
        <ele>798.3</ele>
        <time>2012-03-04T11:16:32Z</time>
      </trkpt>
      <trkpt lat="44.41744" lon="5.94327">
        <ele>797.2</ele>
        <time>2012-03-04T11:16:33Z</time>
      </trkpt>
      <trkpt lat="44.41746" lon="5.94334">
        <ele>794.2</ele>
        <time>2012-03-04T11:16:34Z</time>
      </trkpt>
      <trkpt lat="44.41752" lon="5.9434">
        <ele>792.2</ele>
        <time>2012-03-04T11:16:35Z</time>
      </trkpt>
      <trkpt lat="44.41758" lon="5.94347">
        <ele>790.8</ele>
        <time>2012-03-04T11:16:36Z</time>
      </trkpt>
      <trkpt lat="44.41761" lon="5.94355">
        <ele>789.9</ele>
        <time>2012-03-04T11:16:37Z</time>
      </trkpt>
      <trkpt lat="44.41765" lon="5.94361">
        <ele>788.1</ele>
        <time>2012-03-04T11:16:38Z</time>
      </trkpt>
      <trkpt lat="44.41763" lon="5.94375">
        <ele>785.9</ele>
        <time>2012-03-04T11:16:41Z</time>
      </trkpt>
      <trkpt lat="44.41761" lon="5.94385">
        <ele>783.7</ele>
        <time>2012-03-04T11:16:43Z</time>
      </trkpt>
      <trkpt lat="44.41752" lon="5.94384">
        <ele>781.1</ele>
        <time>2012-03-04T11:16:45Z</time>
      </trkpt>
      <trkpt lat="44.41748" lon="5.9439">
        <ele>778.5</ele>
        <time>2012-03-04T11:16:47Z</time>
      </trkpt>
      <trkpt lat="44.41743" lon="5.944">
        <ele>778.4</ele>
        <time>2012-03-04T11:16:49Z</time>
      </trkpt>
      <trkpt lat="44.4174" lon="5.94408">
        <ele>777.3</ele>
        <time>2012-03-04T11:16:50Z</time>
      </trkpt>
      <trkpt lat="44.41738" lon="5.94415">
        <ele>776.7</ele>
        <time>2012-03-04T11:16:51Z</time>
      </trkpt>
      <trkpt lat="44.41731" lon="5.94421">
        <ele>773.6</ele>
        <time>2012-03-04T11:16:52Z</time>
      </trkpt>
      <trkpt lat="44.41728" lon="5.94428">
        <ele>771</ele>
        <time>2012-03-04T11:16:53Z</time>
      </trkpt>
      <trkpt lat="44.41722" lon="5.9443">
        <ele>769</ele>
        <time>2012-03-04T11:16:54Z</time>
      </trkpt>
      <trkpt lat="44.41717" lon="5.94434">
        <ele>766</ele>
        <time>2012-03-04T11:16:55Z</time>
      </trkpt>
      <trkpt lat="44.41712" lon="5.94439">
        <ele>764.9</ele>
        <time>2012-03-04T11:16:56Z</time>
      </trkpt>
      <trkpt lat="44.41705" lon="5.94444">
        <ele>762.6</ele>
        <time>2012-03-04T11:16:57Z</time>
      </trkpt>
      <trkpt lat="44.41698" lon="5.94448">
        <ele>759.8</ele>
        <time>2012-03-04T11:16:58Z</time>
      </trkpt>
      <trkpt lat="44.41691" lon="5.94451">
        <ele>759.5</ele>
        <time>2012-03-04T11:16:59Z</time>
      </trkpt>
      <trkpt lat="44.41685" lon="5.94456">
        <ele>759.5</ele>
        <time>2012-03-04T11:17:00Z</time>
      </trkpt>
      <trkpt lat="44.4168" lon="5.94461">
        <ele>759.5</ele>
        <time>2012-03-04T11:17:01Z</time>
      </trkpt>
      <trkpt lat="44.41675" lon="5.94466">
        <ele>759.6</ele>
        <time>2012-03-04T11:17:02Z</time>
      </trkpt>
      <trkpt lat="44.41668" lon="5.94471">
        <ele>759.6</ele>
        <time>2012-03-04T11:17:03Z</time>
      </trkpt>
      <trkpt lat="44.41661" lon="5.94474">
        <ele>759</ele>
        <time>2012-03-04T11:17:04Z</time>
      </trkpt>
      <trkpt lat="44.41655" lon="5.94479">
        <ele>757.7</ele>
        <time>2012-03-04T11:17:05Z</time>
      </trkpt>
      <trkpt lat="44.41648" lon="5.94482">
        <ele>757.2</ele>
        <time>2012-03-04T11:17:06Z</time>
      </trkpt>
      <trkpt lat="44.41643" lon="5.94489">
        <ele>757.1</ele>
        <time>2012-03-04T11:17:08Z</time>
      </trkpt>
      <trkpt lat="44.41645" lon="5.94496">
        <ele>757.2</ele>
        <time>2012-03-04T11:17:11Z</time>
      </trkpt>
      <trkpt lat="44.41643" lon="5.94502">
        <ele>756.9</ele>
        <time>2012-03-04T11:17:12Z</time>
      </trkpt>
      <trkpt lat="44.41637" lon="5.94511">
        <ele>756</ele>
        <time>2012-03-04T11:17:14Z</time>
      </trkpt>
      <trkpt lat="44.41634" lon="5.94517">
        <ele>755.9</ele>
        <time>2012-03-04T11:17:15Z</time>
      </trkpt>
      <trkpt lat="44.41633" lon="5.94523">
        <ele>755.9</ele>
        <time>2012-03-04T11:17:16Z</time>
      </trkpt>
      <trkpt lat="44.41628" lon="5.94533">
        <ele>754.4</ele>
        <time>2012-03-04T11:17:18Z</time>
      </trkpt>
      <trkpt lat="44.41625" lon="5.9454">
        <ele>754</ele>
        <time>2012-03-04T11:17:20Z</time>
      </trkpt>
      <trkpt lat="44.4163" lon="5.94538">
        <ele>751.2</ele>
        <time>2012-03-04T11:17:26Z</time>
      </trkpt>
      <trkpt lat="44.41637" lon="5.94534">
        <ele>750</ele>
        <time>2012-03-04T11:17:28Z</time>
      </trkpt>
      <trkpt lat="44.41645" lon="5.94532">
        <ele>745.2</ele>
        <time>2012-03-04T11:17:30Z</time>
      </trkpt>
      <trkpt lat="44.41652" lon="5.94534">
        <ele>744.2</ele>
        <time>2012-03-04T11:17:32Z</time>
      </trkpt>
      <trkpt lat="44.41659" lon="5.94541">
        <ele>743.2</ele>
        <time>2012-03-04T11:17:34Z</time>
      </trkpt>
      <trkpt lat="44.41667" lon="5.94555">
        <ele>741.8</ele>
        <time>2012-03-04T11:17:35Z</time>
      </trkpt>
      <trkpt lat="44.41669" lon="5.94563">
        <ele>742</ele>
        <time>2012-03-04T11:17:36Z</time>
      </trkpt>
      <trkpt lat="44.41671" lon="5.94572">
        <ele>743</ele>
        <time>2012-03-04T11:17:37Z</time>
      </trkpt>
      <trkpt lat="44.41674" lon="5.94579">
        <ele>743</ele>
        <time>2012-03-04T11:17:38Z</time>
      </trkpt>
      <trkpt lat="44.41676" lon="5.94596">
        <ele>740.2</ele>
        <time>2012-03-04T11:17:39Z</time>
      </trkpt>
      <trkpt lat="44.41678" lon="5.94605">
        <ele>740.2</ele>
        <time>2012-03-04T11:17:40Z</time>
      </trkpt>
      <trkpt lat="44.41669" lon="5.94618">
        <ele>737.3</ele>
        <time>2012-03-04T11:17:41Z</time>
      </trkpt>
      <trkpt lat="44.41665" lon="5.94629">
        <ele>736.1</ele>
        <time>2012-03-04T11:17:42Z</time>
      </trkpt>
      <trkpt lat="44.41664" lon="5.9464">
        <ele>736.1</ele>
        <time>2012-03-04T11:17:43Z</time>
      </trkpt>
      <trkpt lat="44.4166" lon="5.94648">
        <ele>736.1</ele>
        <time>2012-03-04T11:17:44Z</time>
      </trkpt>
      <trkpt lat="44.41652" lon="5.94659">
        <ele>733</ele>
        <time>2012-03-04T11:17:45Z</time>
      </trkpt>
      <trkpt lat="44.41646" lon="5.94665">
        <ele>731</ele>
        <time>2012-03-04T11:17:46Z</time>
      </trkpt>
      <trkpt lat="44.41641" lon="5.9467">
        <ele>729.3</ele>
        <time>2012-03-04T11:17:47Z</time>
      </trkpt>
      <trkpt lat="44.41636" lon="5.94676">
        <ele>727.8</ele>
        <time>2012-03-04T11:17:48Z</time>
      </trkpt>
      <trkpt lat="44.41631" lon="5.9468">
        <ele>726.6</ele>
        <time>2012-03-04T11:17:49Z</time>
      </trkpt>
      <trkpt lat="44.41623" lon="5.94687">
        <ele>724.6</ele>
        <time>2012-03-04T11:17:51Z</time>
      </trkpt>
      <trkpt lat="44.41621" lon="5.94692">
        <ele>723.5</ele>
        <time>2012-03-04T11:17:52Z</time>
      </trkpt>
      <trkpt lat="44.41616" lon="5.94699">
        <ele>721.4</ele>
        <time>2012-03-04T11:17:53Z</time>
      </trkpt>
      <trkpt lat="44.41612" lon="5.94702">
        <ele>719</ele>
        <time>2012-03-04T11:17:54Z</time>
      </trkpt>
      <trkpt lat="44.41608" lon="5.94707">
        <ele>718.8</ele>
        <time>2012-03-04T11:17:55Z</time>
      </trkpt>
      <trkpt lat="44.41603" lon="5.9471">
        <ele>718.2</ele>
        <time>2012-03-04T11:17:56Z</time>
      </trkpt>
      <trkpt lat="44.41598" lon="5.94712">
        <ele>716.6</ele>
        <time>2012-03-04T11:17:57Z</time>
      </trkpt>
      <trkpt lat="44.41593" lon="5.94712">
        <ele>715.1</ele>
        <time>2012-03-04T11:17:58Z</time>
      </trkpt>
      <trkpt lat="44.41586" lon="5.94715">
        <ele>714.6</ele>
        <time>2012-03-04T11:18:00Z</time>
      </trkpt>
      <trkpt lat="44.4158" lon="5.94723">
        <ele>712.1</ele>
        <time>2012-03-04T11:18:02Z</time>
      </trkpt>
      <trkpt lat="44.41576" lon="5.9473">
        <ele>710.5</ele>
        <time>2012-03-04T11:18:04Z</time>
      </trkpt>
      <trkpt lat="44.41575" lon="5.94738">
        <ele>710.1</ele>
        <time>2012-03-04T11:18:06Z</time>
      </trkpt>
      <trkpt lat="44.41574" lon="5.94744">
        <ele>713.5</ele>
        <time>2012-03-04T11:18:09Z</time>
      </trkpt>
      <trkpt lat="44.41579" lon="5.94745">
        <ele>706.2</ele>
        <time>2012-03-04T11:18:24Z</time>
      </trkpt>
      <trkpt lat="44.41579" lon="5.94745">
        <ele>706.2</ele>
        <time>2012-03-04T11:18:24Z</time>
      </trkpt>
      <trkpt lat="44.41579" lon="5.94745">
        <ele>706.2</ele>
        <time>2012-03-04T11:18:25Z</time>
      </trkpt>
      <trkpt lat="44.41582" lon="5.9475">
        <ele>705</ele>
        <time>2012-03-04T11:19:01Z</time>
      </trkpt>
      <trkpt lat="44.41586" lon="5.94754">
        <ele>704.5</ele>
        <time>2012-03-04T11:19:07Z</time>
      </trkpt>
      <trkpt lat="44.41591" lon="5.94751">
        <ele>706.3</ele>
        <time>2012-03-04T11:19:10Z</time>
      </trkpt>
      <trkpt lat="44.41595" lon="5.94748">
        <ele>705.6</ele>
        <time>2012-03-04T11:19:12Z</time>
      </trkpt>
      <trkpt lat="44.416" lon="5.94745">
        <ele>705</ele>
        <time>2012-03-04T11:19:14Z</time>
      </trkpt>
      <trkpt lat="44.41605" lon="5.94743">
        <ele>705.9</ele>
        <time>2012-03-04T11:19:16Z</time>
      </trkpt>
      <trkpt lat="44.41611" lon="5.94741">
        <ele>706.3</ele>
        <time>2012-03-04T11:19:18Z</time>
      </trkpt>
      <trkpt lat="44.41618" lon="5.9474">
        <ele>706.6</ele>
        <time>2012-03-04T11:19:20Z</time>
      </trkpt>
      <trkpt lat="44.41623" lon="5.94739">
        <ele>707.5</ele>
        <time>2012-03-04T11:19:23Z</time>
      </trkpt>
      <trkpt lat="44.41627" lon="5.94735">
        <ele>702.6</ele>
        <time>2012-03-04T11:20:13Z</time>
      </trkpt>
    </trkseg>
  </trk>
</gpx>